<?xml version="1.0" encoding="UTF-8" standalone="no" ?>
<gpx xmlns="http://www.topografix.com/GPX/1/1" xmlns:xsi="http://www.w3.org/2001/XMLSchema-instance" xsi:schemaLocation="http://www.topografix.com/GPX/1/1 http://www.topografix.com/GPX/1/1/gpx.xsd" version="1.1" creator="VisuGPX - https://www.visugpx.com">
  <metadata>
    <name>Us -- Le Perchay -- Santeuil</name>
  </metadata>
  <trk>
    <name><![CDATA[Us -- Le Perchay -- Santeuil_1]]></name>
    <trkseg>
      <trkpt lat="49.09968" lon="1.97086">
        <ele>50</ele>
        <time>2022-02-05T08:31:35Z</time>
      </trkpt>
      <trkpt lat="49.09976" lon="1.97081">
        <ele>50.1</ele>
        <time>2022-02-05T08:31:40Z</time>
      </trkpt>
      <trkpt lat="49.09985" lon="1.97079">
        <ele>50.4</ele>
        <time>2022-02-05T08:31:46Z</time>
      </trkpt>
      <trkpt lat="49.0999" lon="1.97078">
        <ele>50.5</ele>
        <time>2022-02-05T08:31:51Z</time>
      </trkpt>
      <trkpt lat="49.09995" lon="1.97076">
        <ele>50.6</ele>
        <time>2022-02-05T08:31:57Z</time>
      </trkpt>
      <trkpt lat="49.10002" lon="1.97074">
        <ele>50.6</ele>
        <time>2022-02-05T08:32:02Z</time>
      </trkpt>
      <trkpt lat="49.10009" lon="1.9707">
        <ele>50.4</ele>
        <time>2022-02-05T08:32:08Z</time>
      </trkpt>
      <trkpt lat="49.10017" lon="1.97067">
        <ele>50.2</ele>
        <time>2022-02-05T08:32:13Z</time>
      </trkpt>
      <trkpt lat="49.10024" lon="1.97065">
        <ele>50</ele>
        <time>2022-02-05T08:32:19Z</time>
      </trkpt>
      <trkpt lat="49.1003" lon="1.97065">
        <ele>50</ele>
        <time>2022-02-05T08:32:24Z</time>
      </trkpt>
      <trkpt lat="49.10038" lon="1.97059">
        <ele>50</ele>
        <time>2022-02-05T08:32:30Z</time>
      </trkpt>
      <trkpt lat="49.10045" lon="1.97058">
        <ele>49.9</ele>
        <time>2022-02-05T08:32:35Z</time>
      </trkpt>
      <trkpt lat="49.10052" lon="1.97056">
        <ele>50</ele>
        <time>2022-02-05T08:32:40Z</time>
      </trkpt>
      <trkpt lat="49.10057" lon="1.9705">
        <ele>49.9</ele>
        <time>2022-02-05T08:32:46Z</time>
      </trkpt>
      <trkpt lat="49.10064" lon="1.97045">
        <ele>49.6</ele>
        <time>2022-02-05T08:32:51Z</time>
      </trkpt>
      <trkpt lat="49.10072" lon="1.97041">
        <ele>49.4</ele>
        <time>2022-02-05T08:32:57Z</time>
      </trkpt>
      <trkpt lat="49.10079" lon="1.97039">
        <ele>49.3</ele>
        <time>2022-02-05T08:33:02Z</time>
      </trkpt>
      <trkpt lat="49.10086" lon="1.97036">
        <ele>49.4</ele>
        <time>2022-02-05T08:33:08Z</time>
      </trkpt>
      <trkpt lat="49.10093" lon="1.97031">
        <ele>49.5</ele>
        <time>2022-02-05T08:33:13Z</time>
      </trkpt>
      <trkpt lat="49.10098" lon="1.97021">
        <ele>49.3</ele>
        <time>2022-02-05T08:33:19Z</time>
      </trkpt>
      <trkpt lat="49.10098" lon="1.97006">
        <ele>49.1</ele>
        <time>2022-02-05T08:33:25Z</time>
      </trkpt>
      <trkpt lat="49.10097" lon="1.96992">
        <ele>49.1</ele>
        <time>2022-02-05T08:33:31Z</time>
      </trkpt>
      <trkpt lat="49.10095" lon="1.96984">
        <ele>49.4</ele>
        <time>2022-02-05T08:33:36Z</time>
      </trkpt>
      <trkpt lat="49.10091" lon="1.96973">
        <ele>49.7</ele>
        <time>2022-02-05T08:33:42Z</time>
      </trkpt>
      <trkpt lat="49.10087" lon="1.96962">
        <ele>50.2</ele>
        <time>2022-02-05T08:33:48Z</time>
      </trkpt>
      <trkpt lat="49.10086" lon="1.96952">
        <ele>50.6</ele>
        <time>2022-02-05T08:33:53Z</time>
      </trkpt>
      <trkpt lat="49.10083" lon="1.96945">
        <ele>51</ele>
        <time>2022-02-05T08:33:59Z</time>
      </trkpt>
      <trkpt lat="49.10077" lon="1.96937">
        <ele>51.1</ele>
        <time>2022-02-05T08:34:05Z</time>
      </trkpt>
      <trkpt lat="49.10071" lon="1.96927">
        <ele>51.3</ele>
        <time>2022-02-05T08:34:10Z</time>
      </trkpt>
      <trkpt lat="49.10069" lon="1.96917">
        <ele>51.5</ele>
        <time>2022-02-05T08:34:15Z</time>
      </trkpt>
      <trkpt lat="49.1007" lon="1.96905">
        <ele>51.9</ele>
        <time>2022-02-05T08:34:21Z</time>
      </trkpt>
      <trkpt lat="49.10073" lon="1.96895">
        <ele>52.2</ele>
        <time>2022-02-05T08:34:26Z</time>
      </trkpt>
      <trkpt lat="49.10078" lon="1.96883">
        <ele>52.4</ele>
        <time>2022-02-05T08:34:32Z</time>
      </trkpt>
      <trkpt lat="49.10083" lon="1.96873">
        <ele>52.6</ele>
        <time>2022-02-05T08:34:38Z</time>
      </trkpt>
      <trkpt lat="49.10086" lon="1.96862">
        <ele>52.8</ele>
        <time>2022-02-05T08:34:43Z</time>
      </trkpt>
      <trkpt lat="49.10088" lon="1.96856">
        <ele>52.8</ele>
        <time>2022-02-05T08:34:49Z</time>
      </trkpt>
      <trkpt lat="49.10088" lon="1.96857">
        <ele>52.8</ele>
        <time>2022-02-05T08:34:55Z</time>
      </trkpt>
      <trkpt lat="49.10088" lon="1.96858">
        <ele>52.8</ele>
        <time>2022-02-05T08:35:01Z</time>
      </trkpt>
      <trkpt lat="49.10087" lon="1.96858">
        <ele>52.8</ele>
        <time>2022-02-05T08:35:06Z</time>
      </trkpt>
      <trkpt lat="49.10088" lon="1.96855">
        <ele>52.9</ele>
        <time>2022-02-05T08:35:11Z</time>
      </trkpt>
      <trkpt lat="49.10092" lon="1.9684">
        <ele>53.2</ele>
        <time>2022-02-05T08:35:17Z</time>
      </trkpt>
      <trkpt lat="49.10096" lon="1.96829">
        <ele>53.3</ele>
        <time>2022-02-05T08:35:22Z</time>
      </trkpt>
      <trkpt lat="49.10101" lon="1.9682">
        <ele>53.4</ele>
        <time>2022-02-05T08:35:27Z</time>
      </trkpt>
      <trkpt lat="49.10105" lon="1.96812">
        <ele>53.4</ele>
        <time>2022-02-05T08:35:33Z</time>
      </trkpt>
      <trkpt lat="49.10108" lon="1.96802">
        <ele>53.5</ele>
        <time>2022-02-05T08:35:38Z</time>
      </trkpt>
      <trkpt lat="49.10112" lon="1.96791">
        <ele>53.9</ele>
        <time>2022-02-05T08:35:44Z</time>
      </trkpt>
      <trkpt lat="49.10114" lon="1.96777">
        <ele>54.7</ele>
        <time>2022-02-05T08:35:50Z</time>
      </trkpt>
      <trkpt lat="49.10118" lon="1.96765">
        <ele>55.2</ele>
        <time>2022-02-05T08:35:56Z</time>
      </trkpt>
      <trkpt lat="49.10121" lon="1.96751">
        <ele>55.9</ele>
        <time>2022-02-05T08:36:02Z</time>
      </trkpt>
      <trkpt lat="49.10125" lon="1.96737">
        <ele>55.7</ele>
        <time>2022-02-05T08:36:08Z</time>
      </trkpt>
      <trkpt lat="49.10128" lon="1.96725">
        <ele>55.7</ele>
        <time>2022-02-05T08:36:14Z</time>
      </trkpt>
      <trkpt lat="49.10133" lon="1.9671">
        <ele>56.3</ele>
        <time>2022-02-05T08:36:19Z</time>
      </trkpt>
      <trkpt lat="49.10136" lon="1.96699">
        <ele>56.9</ele>
        <time>2022-02-05T08:36:24Z</time>
      </trkpt>
      <trkpt lat="49.10136" lon="1.96688">
        <ele>57.7</ele>
        <time>2022-02-05T08:36:30Z</time>
      </trkpt>
      <trkpt lat="49.10135" lon="1.9668">
        <ele>58.3</ele>
        <time>2022-02-05T08:36:36Z</time>
      </trkpt>
      <trkpt lat="49.10142" lon="1.96667">
        <ele>58.8</ele>
        <time>2022-02-05T08:36:41Z</time>
      </trkpt>
      <trkpt lat="49.10147" lon="1.96654">
        <ele>59</ele>
        <time>2022-02-05T08:36:47Z</time>
      </trkpt>
      <trkpt lat="49.10149" lon="1.96644">
        <ele>59.4</ele>
        <time>2022-02-05T08:36:52Z</time>
      </trkpt>
      <trkpt lat="49.10152" lon="1.96636">
        <ele>59.7</ele>
        <time>2022-02-05T08:36:58Z</time>
      </trkpt>
      <trkpt lat="49.10156" lon="1.96624">
        <ele>60.1</ele>
        <time>2022-02-05T08:37:03Z</time>
      </trkpt>
      <trkpt lat="49.10161" lon="1.96612">
        <ele>60.3</ele>
        <time>2022-02-05T08:37:09Z</time>
      </trkpt>
      <trkpt lat="49.10166" lon="1.96599">
        <ele>60.9</ele>
        <time>2022-02-05T08:37:15Z</time>
      </trkpt>
      <trkpt lat="49.1017" lon="1.96587">
        <ele>61.5</ele>
        <time>2022-02-05T08:37:21Z</time>
      </trkpt>
      <trkpt lat="49.10175" lon="1.96579">
        <ele>61.8</ele>
        <time>2022-02-05T08:37:27Z</time>
      </trkpt>
      <trkpt lat="49.10177" lon="1.9657">
        <ele>62.4</ele>
        <time>2022-02-05T08:37:32Z</time>
      </trkpt>
      <trkpt lat="49.10182" lon="1.96559">
        <ele>63.1</ele>
        <time>2022-02-05T08:37:38Z</time>
      </trkpt>
      <trkpt lat="49.10186" lon="1.96548">
        <ele>63.9</ele>
        <time>2022-02-05T08:37:43Z</time>
      </trkpt>
      <trkpt lat="49.1019" lon="1.96537">
        <ele>64.5</ele>
        <time>2022-02-05T08:37:48Z</time>
      </trkpt>
      <trkpt lat="49.10193" lon="1.96528">
        <ele>65</ele>
        <time>2022-02-05T08:37:53Z</time>
      </trkpt>
      <trkpt lat="49.10193" lon="1.96518">
        <ele>65.4</ele>
        <time>2022-02-05T08:37:59Z</time>
      </trkpt>
      <trkpt lat="49.10198" lon="1.96506">
        <ele>65.5</ele>
        <time>2022-02-05T08:38:05Z</time>
      </trkpt>
      <trkpt lat="49.102" lon="1.96497">
        <ele>65.7</ele>
        <time>2022-02-05T08:38:11Z</time>
      </trkpt>
      <trkpt lat="49.10205" lon="1.96485">
        <ele>66</ele>
        <time>2022-02-05T08:38:17Z</time>
      </trkpt>
      <trkpt lat="49.10204" lon="1.96474">
        <ele>66.6</ele>
        <time>2022-02-05T08:38:23Z</time>
      </trkpt>
      <trkpt lat="49.10199" lon="1.96464">
        <ele>67.7</ele>
        <time>2022-02-05T08:38:28Z</time>
      </trkpt>
      <trkpt lat="49.10191" lon="1.96457">
        <ele>68.9</ele>
        <time>2022-02-05T08:38:34Z</time>
      </trkpt>
      <trkpt lat="49.10186" lon="1.96452">
        <ele>69.8</ele>
        <time>2022-02-05T08:38:39Z</time>
      </trkpt>
      <trkpt lat="49.10181" lon="1.96445">
        <ele>70.9</ele>
        <time>2022-02-05T08:38:45Z</time>
      </trkpt>
      <trkpt lat="49.10174" lon="1.9644">
        <ele>72.2</ele>
        <time>2022-02-05T08:38:51Z</time>
      </trkpt>
      <trkpt lat="49.10168" lon="1.96434">
        <ele>73.3</ele>
        <time>2022-02-05T08:38:56Z</time>
      </trkpt>
      <trkpt lat="49.10163" lon="1.96426">
        <ele>75.1</ele>
        <time>2022-02-05T08:39:01Z</time>
      </trkpt>
      <trkpt lat="49.10159" lon="1.96419">
        <ele>76.8</ele>
        <time>2022-02-05T08:39:06Z</time>
      </trkpt>
      <trkpt lat="49.10155" lon="1.96407">
        <ele>78.8</ele>
        <time>2022-02-05T08:39:12Z</time>
      </trkpt>
      <trkpt lat="49.10151" lon="1.96401">
        <ele>79.8</ele>
        <time>2022-02-05T08:39:18Z</time>
      </trkpt>
      <trkpt lat="49.10149" lon="1.96388">
        <ele>81.4</ele>
        <time>2022-02-05T08:39:24Z</time>
      </trkpt>
      <trkpt lat="49.10146" lon="1.96377">
        <ele>82.5</ele>
        <time>2022-02-05T08:39:32Z</time>
      </trkpt>
      <trkpt lat="49.10144" lon="1.96362">
        <ele>83.7</ele>
        <time>2022-02-05T08:39:37Z</time>
      </trkpt>
      <trkpt lat="49.10143" lon="1.9635">
        <ele>84.2</ele>
        <time>2022-02-05T08:39:43Z</time>
      </trkpt>
      <trkpt lat="49.10141" lon="1.96339">
        <ele>84.7</ele>
        <time>2022-02-05T08:39:49Z</time>
      </trkpt>
      <trkpt lat="49.10138" lon="1.96331">
        <ele>85.1</ele>
        <time>2022-02-05T08:39:54Z</time>
      </trkpt>
      <trkpt lat="49.10136" lon="1.96323">
        <ele>85.4</ele>
        <time>2022-02-05T08:40:00Z</time>
      </trkpt>
      <trkpt lat="49.10133" lon="1.9631">
        <ele>85.8</ele>
        <time>2022-02-05T08:40:05Z</time>
      </trkpt>
      <trkpt lat="49.10129" lon="1.96299">
        <ele>86.2</ele>
        <time>2022-02-05T08:40:11Z</time>
      </trkpt>
      <trkpt lat="49.10126" lon="1.96291">
        <ele>86.5</ele>
        <time>2022-02-05T08:40:17Z</time>
      </trkpt>
      <trkpt lat="49.10124" lon="1.96284">
        <ele>86.8</ele>
        <time>2022-02-05T08:40:22Z</time>
      </trkpt>
      <trkpt lat="49.10122" lon="1.96273">
        <ele>87.1</ele>
        <time>2022-02-05T08:40:28Z</time>
      </trkpt>
      <trkpt lat="49.10118" lon="1.96258">
        <ele>87.5</ele>
        <time>2022-02-05T08:40:34Z</time>
      </trkpt>
      <trkpt lat="49.10115" lon="1.96249">
        <ele>87.9</ele>
        <time>2022-02-05T08:40:39Z</time>
      </trkpt>
      <trkpt lat="49.10112" lon="1.96236">
        <ele>88.5</ele>
        <time>2022-02-05T08:40:45Z</time>
      </trkpt>
      <trkpt lat="49.10109" lon="1.96224">
        <ele>88.8</ele>
        <time>2022-02-05T08:40:51Z</time>
      </trkpt>
      <trkpt lat="49.10108" lon="1.96212">
        <ele>88.8</ele>
        <time>2022-02-05T08:40:57Z</time>
      </trkpt>
      <trkpt lat="49.10104" lon="1.96201">
        <ele>88.5</ele>
        <time>2022-02-05T08:41:03Z</time>
      </trkpt>
      <trkpt lat="49.10105" lon="1.96189">
        <ele>88.5</ele>
        <time>2022-02-05T08:41:08Z</time>
      </trkpt>
      <trkpt lat="49.10107" lon="1.9618">
        <ele>88.7</ele>
        <time>2022-02-05T08:41:13Z</time>
      </trkpt>
      <trkpt lat="49.10111" lon="1.96168">
        <ele>89</ele>
        <time>2022-02-05T08:41:19Z</time>
      </trkpt>
      <trkpt lat="49.10115" lon="1.96158">
        <ele>88.7</ele>
        <time>2022-02-05T08:41:25Z</time>
      </trkpt>
      <trkpt lat="49.10119" lon="1.96149">
        <ele>88.5</ele>
        <time>2022-02-05T08:41:30Z</time>
      </trkpt>
      <trkpt lat="49.10124" lon="1.96137">
        <ele>88.5</ele>
        <time>2022-02-05T08:41:36Z</time>
      </trkpt>
      <trkpt lat="49.10128" lon="1.96129">
        <ele>88.6</ele>
        <time>2022-02-05T08:41:42Z</time>
      </trkpt>
      <trkpt lat="49.10133" lon="1.96117">
        <ele>88.8</ele>
        <time>2022-02-05T08:41:48Z</time>
      </trkpt>
      <trkpt lat="49.10138" lon="1.96105">
        <ele>89</ele>
        <time>2022-02-05T08:41:54Z</time>
      </trkpt>
      <trkpt lat="49.10141" lon="1.96097">
        <ele>89.1</ele>
        <time>2022-02-05T08:41:59Z</time>
      </trkpt>
      <trkpt lat="49.10145" lon="1.96086">
        <ele>89.5</ele>
        <time>2022-02-05T08:42:05Z</time>
      </trkpt>
      <trkpt lat="49.1015" lon="1.96074">
        <ele>89.8</ele>
        <time>2022-02-05T08:42:10Z</time>
      </trkpt>
      <trkpt lat="49.10155" lon="1.96064">
        <ele>90.1</ele>
        <time>2022-02-05T08:42:16Z</time>
      </trkpt>
      <trkpt lat="49.1016" lon="1.96056">
        <ele>90.5</ele>
        <time>2022-02-05T08:42:22Z</time>
      </trkpt>
      <trkpt lat="49.10166" lon="1.96048">
        <ele>90.7</ele>
        <time>2022-02-05T08:42:28Z</time>
      </trkpt>
      <trkpt lat="49.10172" lon="1.96035">
        <ele>90.6</ele>
        <time>2022-02-05T08:42:34Z</time>
      </trkpt>
      <trkpt lat="49.10176" lon="1.96027">
        <ele>90.7</ele>
        <time>2022-02-05T08:42:39Z</time>
      </trkpt>
      <trkpt lat="49.10181" lon="1.96019">
        <ele>91.2</ele>
        <time>2022-02-05T08:42:45Z</time>
      </trkpt>
      <trkpt lat="49.10187" lon="1.96011">
        <ele>91.9</ele>
        <time>2022-02-05T08:42:51Z</time>
      </trkpt>
      <trkpt lat="49.10193" lon="1.96005">
        <ele>92.6</ele>
        <time>2022-02-05T08:42:57Z</time>
      </trkpt>
      <trkpt lat="49.10197" lon="1.95999">
        <ele>93</ele>
        <time>2022-02-05T08:43:02Z</time>
      </trkpt>
      <trkpt lat="49.10201" lon="1.95997">
        <ele>92.9</ele>
        <time>2022-02-05T08:43:07Z</time>
      </trkpt>
      <trkpt lat="49.10209" lon="1.9599">
        <ele>93</ele>
        <time>2022-02-05T08:43:13Z</time>
      </trkpt>
      <trkpt lat="49.10216" lon="1.95984">
        <ele>93.3</ele>
        <time>2022-02-05T08:43:18Z</time>
      </trkpt>
      <trkpt lat="49.10223" lon="1.95976">
        <ele>93.9</ele>
        <time>2022-02-05T08:43:24Z</time>
      </trkpt>
      <trkpt lat="49.1023" lon="1.9597">
        <ele>93.9</ele>
        <time>2022-02-05T08:43:29Z</time>
      </trkpt>
      <trkpt lat="49.10238" lon="1.95963">
        <ele>93.9</ele>
        <time>2022-02-05T08:43:35Z</time>
      </trkpt>
      <trkpt lat="49.10243" lon="1.95957">
        <ele>93.9</ele>
        <time>2022-02-05T08:43:40Z</time>
      </trkpt>
      <trkpt lat="49.10249" lon="1.95952">
        <ele>94</ele>
        <time>2022-02-05T08:43:45Z</time>
      </trkpt>
      <trkpt lat="49.10256" lon="1.95945">
        <ele>93.8</ele>
        <time>2022-02-05T08:43:50Z</time>
      </trkpt>
      <trkpt lat="49.10263" lon="1.95937">
        <ele>93.4</ele>
        <time>2022-02-05T08:43:56Z</time>
      </trkpt>
      <trkpt lat="49.10269" lon="1.95929">
        <ele>93.1</ele>
        <time>2022-02-05T08:44:01Z</time>
      </trkpt>
      <trkpt lat="49.10274" lon="1.95918">
        <ele>93</ele>
        <time>2022-02-05T08:44:07Z</time>
      </trkpt>
      <trkpt lat="49.10279" lon="1.95908">
        <ele>93</ele>
        <time>2022-02-05T08:44:12Z</time>
      </trkpt>
      <trkpt lat="49.10286" lon="1.95899">
        <ele>93</ele>
        <time>2022-02-05T08:44:17Z</time>
      </trkpt>
      <trkpt lat="49.10292" lon="1.95889">
        <ele>93</ele>
        <time>2022-02-05T08:44:23Z</time>
      </trkpt>
      <trkpt lat="49.10296" lon="1.95881">
        <ele>92.7</ele>
        <time>2022-02-05T08:44:28Z</time>
      </trkpt>
      <trkpt lat="49.103" lon="1.95871">
        <ele>92.4</ele>
        <time>2022-02-05T08:44:34Z</time>
      </trkpt>
      <trkpt lat="49.10306" lon="1.9586">
        <ele>92</ele>
        <time>2022-02-05T08:44:40Z</time>
      </trkpt>
      <trkpt lat="49.10311" lon="1.95849">
        <ele>92</ele>
        <time>2022-02-05T08:44:45Z</time>
      </trkpt>
      <trkpt lat="49.10317" lon="1.95838">
        <ele>92</ele>
        <time>2022-02-05T08:44:51Z</time>
      </trkpt>
      <trkpt lat="49.10321" lon="1.95831">
        <ele>92</ele>
        <time>2022-02-05T08:44:56Z</time>
      </trkpt>
      <trkpt lat="49.10327" lon="1.95821">
        <ele>92</ele>
        <time>2022-02-05T08:45:02Z</time>
      </trkpt>
      <trkpt lat="49.10332" lon="1.95811">
        <ele>92</ele>
        <time>2022-02-05T08:45:07Z</time>
      </trkpt>
      <trkpt lat="49.10339" lon="1.95799">
        <ele>91.8</ele>
        <time>2022-02-05T08:45:13Z</time>
      </trkpt>
      <trkpt lat="49.10345" lon="1.9579">
        <ele>91.6</ele>
        <time>2022-02-05T08:45:18Z</time>
      </trkpt>
      <trkpt lat="49.10351" lon="1.9578">
        <ele>91.4</ele>
        <time>2022-02-05T08:45:23Z</time>
      </trkpt>
      <trkpt lat="49.10357" lon="1.9577">
        <ele>91.1</ele>
        <time>2022-02-05T08:45:29Z</time>
      </trkpt>
      <trkpt lat="49.10362" lon="1.95762">
        <ele>91</ele>
        <time>2022-02-05T08:45:34Z</time>
      </trkpt>
      <trkpt lat="49.10368" lon="1.9575">
        <ele>90.8</ele>
        <time>2022-02-05T08:45:40Z</time>
      </trkpt>
      <trkpt lat="49.10373" lon="1.9574">
        <ele>90.4</ele>
        <time>2022-02-05T08:45:45Z</time>
      </trkpt>
      <trkpt lat="49.10378" lon="1.95729">
        <ele>90.1</ele>
        <time>2022-02-05T08:45:51Z</time>
      </trkpt>
      <trkpt lat="49.10385" lon="1.95718">
        <ele>90</ele>
        <time>2022-02-05T08:45:57Z</time>
      </trkpt>
      <trkpt lat="49.10391" lon="1.95708">
        <ele>90</ele>
        <time>2022-02-05T08:46:03Z</time>
      </trkpt>
      <trkpt lat="49.10397" lon="1.95698">
        <ele>90</ele>
        <time>2022-02-05T08:46:09Z</time>
      </trkpt>
      <trkpt lat="49.10403" lon="1.95689">
        <ele>90</ele>
        <time>2022-02-05T08:46:15Z</time>
      </trkpt>
      <trkpt lat="49.10408" lon="1.95679">
        <ele>90</ele>
        <time>2022-02-05T08:46:21Z</time>
      </trkpt>
      <trkpt lat="49.10411" lon="1.9567">
        <ele>90</ele>
        <time>2022-02-05T08:46:26Z</time>
      </trkpt>
      <trkpt lat="49.10416" lon="1.95659">
        <ele>90</ele>
        <time>2022-02-05T08:46:32Z</time>
      </trkpt>
      <trkpt lat="49.10421" lon="1.95648">
        <ele>90</ele>
        <time>2022-02-05T08:46:38Z</time>
      </trkpt>
      <trkpt lat="49.10426" lon="1.95639">
        <ele>90</ele>
        <time>2022-02-05T08:46:43Z</time>
      </trkpt>
      <trkpt lat="49.10432" lon="1.95629">
        <ele>90.2</ele>
        <time>2022-02-05T08:46:48Z</time>
      </trkpt>
      <trkpt lat="49.10438" lon="1.9562">
        <ele>90.5</ele>
        <time>2022-02-05T08:46:54Z</time>
      </trkpt>
      <trkpt lat="49.10444" lon="1.95613">
        <ele>90.9</ele>
        <time>2022-02-05T08:46:59Z</time>
      </trkpt>
      <trkpt lat="49.10448" lon="1.95606">
        <ele>91</ele>
        <time>2022-02-05T08:47:04Z</time>
      </trkpt>
      <trkpt lat="49.10454" lon="1.95594">
        <ele>91</ele>
        <time>2022-02-05T08:47:10Z</time>
      </trkpt>
      <trkpt lat="49.1046" lon="1.95584">
        <ele>91</ele>
        <time>2022-02-05T08:47:15Z</time>
      </trkpt>
      <trkpt lat="49.10465" lon="1.95573">
        <ele>91.3</ele>
        <time>2022-02-05T08:47:21Z</time>
      </trkpt>
      <trkpt lat="49.10466" lon="1.95563">
        <ele>91.6</ele>
        <time>2022-02-05T08:47:26Z</time>
      </trkpt>
      <trkpt lat="49.10464" lon="1.9555">
        <ele>91.7</ele>
        <time>2022-02-05T08:47:32Z</time>
      </trkpt>
      <trkpt lat="49.10462" lon="1.95538">
        <ele>91.6</ele>
        <time>2022-02-05T08:47:37Z</time>
      </trkpt>
      <trkpt lat="49.10461" lon="1.95525">
        <ele>91.7</ele>
        <time>2022-02-05T08:47:42Z</time>
      </trkpt>
      <trkpt lat="49.1046" lon="1.95514">
        <ele>92.1</ele>
        <time>2022-02-05T08:47:48Z</time>
      </trkpt>
      <trkpt lat="49.1046" lon="1.95503">
        <ele>92.4</ele>
        <time>2022-02-05T08:47:53Z</time>
      </trkpt>
      <trkpt lat="49.10458" lon="1.95489">
        <ele>92.5</ele>
        <time>2022-02-05T08:47:59Z</time>
      </trkpt>
      <trkpt lat="49.10458" lon="1.95478">
        <ele>92.5</ele>
        <time>2022-02-05T08:48:04Z</time>
      </trkpt>
      <trkpt lat="49.10458" lon="1.95466">
        <ele>92.6</ele>
        <time>2022-02-05T08:48:09Z</time>
      </trkpt>
      <trkpt lat="49.10458" lon="1.95452">
        <ele>92.9</ele>
        <time>2022-02-05T08:48:15Z</time>
      </trkpt>
      <trkpt lat="49.10457" lon="1.9544">
        <ele>93.1</ele>
        <time>2022-02-05T08:48:20Z</time>
      </trkpt>
      <trkpt lat="49.10456" lon="1.95427">
        <ele>93.3</ele>
        <time>2022-02-05T08:48:25Z</time>
      </trkpt>
      <trkpt lat="49.10456" lon="1.95416">
        <ele>93.4</ele>
        <time>2022-02-05T08:48:30Z</time>
      </trkpt>
      <trkpt lat="49.10455" lon="1.95406">
        <ele>93.8</ele>
        <time>2022-02-05T08:48:36Z</time>
      </trkpt>
      <trkpt lat="49.10455" lon="1.95396">
        <ele>94.1</ele>
        <time>2022-02-05T08:48:41Z</time>
      </trkpt>
      <trkpt lat="49.10455" lon="1.95385">
        <ele>94.5</ele>
        <time>2022-02-05T08:48:46Z</time>
      </trkpt>
      <trkpt lat="49.10454" lon="1.95371">
        <ele>95</ele>
        <time>2022-02-05T08:48:52Z</time>
      </trkpt>
      <trkpt lat="49.10454" lon="1.9536">
        <ele>95.4</ele>
        <time>2022-02-05T08:48:57Z</time>
      </trkpt>
      <trkpt lat="49.10453" lon="1.95344">
        <ele>95.9</ele>
        <time>2022-02-05T08:49:03Z</time>
      </trkpt>
      <trkpt lat="49.10451" lon="1.95331">
        <ele>96.3</ele>
        <time>2022-02-05T08:49:09Z</time>
      </trkpt>
      <trkpt lat="49.10451" lon="1.95317">
        <ele>96.8</ele>
        <time>2022-02-05T08:49:15Z</time>
      </trkpt>
      <trkpt lat="49.10451" lon="1.95305">
        <ele>97.3</ele>
        <time>2022-02-05T08:49:21Z</time>
      </trkpt>
      <trkpt lat="49.10449" lon="1.9529">
        <ele>97.6</ele>
        <time>2022-02-05T08:49:27Z</time>
      </trkpt>
      <trkpt lat="49.10448" lon="1.95279">
        <ele>98</ele>
        <time>2022-02-05T08:49:32Z</time>
      </trkpt>
      <trkpt lat="49.10447" lon="1.95269">
        <ele>98</ele>
        <time>2022-02-05T08:49:37Z</time>
      </trkpt>
      <trkpt lat="49.10448" lon="1.95258">
        <ele>98.1</ele>
        <time>2022-02-05T08:49:43Z</time>
      </trkpt>
      <trkpt lat="49.10448" lon="1.9525">
        <ele>98.1</ele>
        <time>2022-02-05T08:49:48Z</time>
      </trkpt>
      <trkpt lat="49.10447" lon="1.95242">
        <ele>98.4</ele>
        <time>2022-02-05T08:49:54Z</time>
      </trkpt>
      <trkpt lat="49.10448" lon="1.95233">
        <ele>98.7</ele>
        <time>2022-02-05T08:49:59Z</time>
      </trkpt>
      <trkpt lat="49.10446" lon="1.9522">
        <ele>99</ele>
        <time>2022-02-05T08:50:05Z</time>
      </trkpt>
      <trkpt lat="49.10445" lon="1.95208">
        <ele>99</ele>
        <time>2022-02-05T08:50:11Z</time>
      </trkpt>
      <trkpt lat="49.10444" lon="1.95198">
        <ele>99</ele>
        <time>2022-02-05T08:50:16Z</time>
      </trkpt>
      <trkpt lat="49.10443" lon="1.95187">
        <ele>99.3</ele>
        <time>2022-02-05T08:50:21Z</time>
      </trkpt>
      <trkpt lat="49.10444" lon="1.95175">
        <ele>99.7</ele>
        <time>2022-02-05T08:50:27Z</time>
      </trkpt>
      <trkpt lat="49.10443" lon="1.95165">
        <ele>100</ele>
        <time>2022-02-05T08:50:32Z</time>
      </trkpt>
      <trkpt lat="49.10442" lon="1.95154">
        <ele>100.1</ele>
        <time>2022-02-05T08:50:38Z</time>
      </trkpt>
      <trkpt lat="49.10441" lon="1.95143">
        <ele>100.1</ele>
        <time>2022-02-05T08:50:43Z</time>
      </trkpt>
      <trkpt lat="49.10441" lon="1.95129">
        <ele>100.1</ele>
        <time>2022-02-05T08:50:49Z</time>
      </trkpt>
      <trkpt lat="49.10441" lon="1.95116">
        <ele>100.1</ele>
        <time>2022-02-05T08:50:55Z</time>
      </trkpt>
      <trkpt lat="49.10441" lon="1.95104">
        <ele>100.3</ele>
        <time>2022-02-05T08:51:00Z</time>
      </trkpt>
      <trkpt lat="49.1044" lon="1.95091">
        <ele>100.6</ele>
        <time>2022-02-05T08:51:06Z</time>
      </trkpt>
      <trkpt lat="49.10438" lon="1.95083">
        <ele>100.7</ele>
        <time>2022-02-05T08:51:11Z</time>
      </trkpt>
      <trkpt lat="49.10437" lon="1.95073">
        <ele>100.4</ele>
        <time>2022-02-05T08:51:16Z</time>
      </trkpt>
      <trkpt lat="49.10435" lon="1.95057">
        <ele>100</ele>
        <time>2022-02-05T08:51:22Z</time>
      </trkpt>
      <trkpt lat="49.10434" lon="1.9504">
        <ele>100</ele>
        <time>2022-02-05T08:51:28Z</time>
      </trkpt>
      <trkpt lat="49.10433" lon="1.95028">
        <ele>100</ele>
        <time>2022-02-05T08:51:34Z</time>
      </trkpt>
      <trkpt lat="49.10434" lon="1.95016">
        <ele>99.6</ele>
        <time>2022-02-05T08:51:40Z</time>
      </trkpt>
      <trkpt lat="49.10435" lon="1.95003">
        <ele>99.1</ele>
        <time>2022-02-05T08:51:46Z</time>
      </trkpt>
      <trkpt lat="49.10435" lon="1.94994">
        <ele>99</ele>
        <time>2022-02-05T08:51:51Z</time>
      </trkpt>
      <trkpt lat="49.10434" lon="1.94983">
        <ele>99</ele>
        <time>2022-02-05T08:51:57Z</time>
      </trkpt>
      <trkpt lat="49.10432" lon="1.94967">
        <ele>98.9</ele>
        <time>2022-02-05T08:52:02Z</time>
      </trkpt>
      <trkpt lat="49.1043" lon="1.94951">
        <ele>98.6</ele>
        <time>2022-02-05T08:52:08Z</time>
      </trkpt>
      <trkpt lat="49.1043" lon="1.94938">
        <ele>98.3</ele>
        <time>2022-02-05T08:52:14Z</time>
      </trkpt>
      <trkpt lat="49.10431" lon="1.94926">
        <ele>97.8</ele>
        <time>2022-02-05T08:52:19Z</time>
      </trkpt>
      <trkpt lat="49.10432" lon="1.94913">
        <ele>97.4</ele>
        <time>2022-02-05T08:52:25Z</time>
      </trkpt>
      <trkpt lat="49.10432" lon="1.94899">
        <ele>97.5</ele>
        <time>2022-02-05T08:52:30Z</time>
      </trkpt>
      <trkpt lat="49.10432" lon="1.94885">
        <ele>97.4</ele>
        <time>2022-02-05T08:52:36Z</time>
      </trkpt>
      <trkpt lat="49.10434" lon="1.94874">
        <ele>97.2</ele>
        <time>2022-02-05T08:52:41Z</time>
      </trkpt>
      <trkpt lat="49.10435" lon="1.94861">
        <ele>97</ele>
        <time>2022-02-05T08:52:47Z</time>
      </trkpt>
      <trkpt lat="49.10432" lon="1.94849">
        <ele>97</ele>
        <time>2022-02-05T08:52:52Z</time>
      </trkpt>
      <trkpt lat="49.10429" lon="1.94841">
        <ele>97</ele>
        <time>2022-02-05T08:52:57Z</time>
      </trkpt>
      <trkpt lat="49.10425" lon="1.94831">
        <ele>97</ele>
        <time>2022-02-05T08:53:03Z</time>
      </trkpt>
      <trkpt lat="49.10423" lon="1.94822">
        <ele>97</ele>
        <time>2022-02-05T08:53:08Z</time>
      </trkpt>
      <trkpt lat="49.1042" lon="1.94812">
        <ele>97</ele>
        <time>2022-02-05T08:53:14Z</time>
      </trkpt>
      <trkpt lat="49.10416" lon="1.94804">
        <ele>97</ele>
        <time>2022-02-05T08:53:20Z</time>
      </trkpt>
      <trkpt lat="49.10412" lon="1.94792">
        <ele>97</ele>
        <time>2022-02-05T08:53:26Z</time>
      </trkpt>
      <trkpt lat="49.10407" lon="1.94781">
        <ele>97</ele>
        <time>2022-02-05T08:53:32Z</time>
      </trkpt>
      <trkpt lat="49.10402" lon="1.94769">
        <ele>97</ele>
        <time>2022-02-05T08:53:37Z</time>
      </trkpt>
      <trkpt lat="49.10398" lon="1.94759">
        <ele>97</ele>
        <time>2022-02-05T08:53:42Z</time>
      </trkpt>
      <trkpt lat="49.10395" lon="1.94746">
        <ele>97</ele>
        <time>2022-02-05T08:53:48Z</time>
      </trkpt>
      <trkpt lat="49.10391" lon="1.94735">
        <ele>97</ele>
        <time>2022-02-05T08:53:53Z</time>
      </trkpt>
      <trkpt lat="49.10389" lon="1.94723">
        <ele>97</ele>
        <time>2022-02-05T08:53:59Z</time>
      </trkpt>
      <trkpt lat="49.10387" lon="1.94709">
        <ele>97.1</ele>
        <time>2022-02-05T08:54:05Z</time>
      </trkpt>
      <trkpt lat="49.10386" lon="1.94699">
        <ele>97.1</ele>
        <time>2022-02-05T08:54:10Z</time>
      </trkpt>
      <trkpt lat="49.10383" lon="1.94687">
        <ele>97.3</ele>
        <time>2022-02-05T08:54:15Z</time>
      </trkpt>
      <trkpt lat="49.10381" lon="1.94676">
        <ele>97.5</ele>
        <time>2022-02-05T08:54:21Z</time>
      </trkpt>
      <trkpt lat="49.1038" lon="1.94668">
        <ele>97.6</ele>
        <time>2022-02-05T08:54:26Z</time>
      </trkpt>
      <trkpt lat="49.10376" lon="1.94657">
        <ele>97.9</ele>
        <time>2022-02-05T08:54:32Z</time>
      </trkpt>
      <trkpt lat="49.10374" lon="1.94644">
        <ele>98.1</ele>
        <time>2022-02-05T08:54:38Z</time>
      </trkpt>
      <trkpt lat="49.10371" lon="1.94634">
        <ele>98.2</ele>
        <time>2022-02-05T08:54:43Z</time>
      </trkpt>
      <trkpt lat="49.10369" lon="1.94624">
        <ele>98</ele>
        <time>2022-02-05T08:54:48Z</time>
      </trkpt>
      <trkpt lat="49.10365" lon="1.94612">
        <ele>97.9</ele>
        <time>2022-02-05T08:54:53Z</time>
      </trkpt>
      <trkpt lat="49.10362" lon="1.94598">
        <ele>98</ele>
        <time>2022-02-05T08:54:59Z</time>
      </trkpt>
      <trkpt lat="49.1036" lon="1.94588">
        <ele>98.1</ele>
        <time>2022-02-05T08:55:04Z</time>
      </trkpt>
      <trkpt lat="49.10357" lon="1.94577">
        <ele>98.2</ele>
        <time>2022-02-05T08:55:10Z</time>
      </trkpt>
      <trkpt lat="49.10353" lon="1.94563">
        <ele>98.3</ele>
        <time>2022-02-05T08:55:16Z</time>
      </trkpt>
      <trkpt lat="49.10348" lon="1.94551">
        <ele>98.5</ele>
        <time>2022-02-05T08:55:21Z</time>
      </trkpt>
      <trkpt lat="49.10343" lon="1.94538">
        <ele>98.6</ele>
        <time>2022-02-05T08:55:27Z</time>
      </trkpt>
      <trkpt lat="49.10339" lon="1.94529">
        <ele>98.8</ele>
        <time>2022-02-05T08:55:32Z</time>
      </trkpt>
      <trkpt lat="49.10335" lon="1.94518">
        <ele>98.9</ele>
        <time>2022-02-05T08:55:38Z</time>
      </trkpt>
      <trkpt lat="49.10331" lon="1.94508">
        <ele>99.1</ele>
        <time>2022-02-05T08:55:43Z</time>
      </trkpt>
      <trkpt lat="49.10327" lon="1.94497">
        <ele>99.2</ele>
        <time>2022-02-05T08:55:49Z</time>
      </trkpt>
      <trkpt lat="49.10323" lon="1.94488">
        <ele>99.1</ele>
        <time>2022-02-05T08:55:54Z</time>
      </trkpt>
      <trkpt lat="49.1032" lon="1.94479">
        <ele>99.1</ele>
        <time>2022-02-05T08:55:59Z</time>
      </trkpt>
      <trkpt lat="49.10315" lon="1.94466">
        <ele>99.2</ele>
        <time>2022-02-05T08:56:05Z</time>
      </trkpt>
      <trkpt lat="49.10311" lon="1.94458">
        <ele>99.2</ele>
        <time>2022-02-05T08:56:10Z</time>
      </trkpt>
      <trkpt lat="49.10307" lon="1.9445">
        <ele>99.1</ele>
        <time>2022-02-05T08:56:15Z</time>
      </trkpt>
      <trkpt lat="49.10302" lon="1.94437">
        <ele>99.3</ele>
        <time>2022-02-05T08:56:21Z</time>
      </trkpt>
      <trkpt lat="49.10297" lon="1.94427">
        <ele>99.6</ele>
        <time>2022-02-05T08:56:26Z</time>
      </trkpt>
      <trkpt lat="49.10292" lon="1.94419">
        <ele>100</ele>
        <time>2022-02-05T08:56:31Z</time>
      </trkpt>
      <trkpt lat="49.10286" lon="1.94408">
        <ele>100.2</ele>
        <time>2022-02-05T08:56:37Z</time>
      </trkpt>
      <trkpt lat="49.10281" lon="1.94398">
        <ele>100.2</ele>
        <time>2022-02-05T08:56:43Z</time>
      </trkpt>
      <trkpt lat="49.10276" lon="1.94387">
        <ele>100.2</ele>
        <time>2022-02-05T08:56:49Z</time>
      </trkpt>
      <trkpt lat="49.10271" lon="1.94379">
        <ele>100.5</ele>
        <time>2022-02-05T08:56:54Z</time>
      </trkpt>
      <trkpt lat="49.10265" lon="1.94367">
        <ele>100.9</ele>
        <time>2022-02-05T08:57:00Z</time>
      </trkpt>
      <trkpt lat="49.10261" lon="1.94358">
        <ele>101.1</ele>
        <time>2022-02-05T08:57:05Z</time>
      </trkpt>
      <trkpt lat="49.10257" lon="1.94348">
        <ele>101.2</ele>
        <time>2022-02-05T08:57:11Z</time>
      </trkpt>
      <trkpt lat="49.10252" lon="1.94338">
        <ele>101.1</ele>
        <time>2022-02-05T08:57:16Z</time>
      </trkpt>
      <trkpt lat="49.10249" lon="1.9433">
        <ele>101.1</ele>
        <time>2022-02-05T08:57:21Z</time>
      </trkpt>
      <trkpt lat="49.10244" lon="1.94322">
        <ele>101.4</ele>
        <time>2022-02-05T08:57:27Z</time>
      </trkpt>
      <trkpt lat="49.10239" lon="1.94312">
        <ele>101.8</ele>
        <time>2022-02-05T08:57:33Z</time>
      </trkpt>
      <trkpt lat="49.10235" lon="1.943">
        <ele>101.9</ele>
        <time>2022-02-05T08:57:39Z</time>
      </trkpt>
      <trkpt lat="49.10231" lon="1.94292">
        <ele>101.9</ele>
        <time>2022-02-05T08:57:44Z</time>
      </trkpt>
      <trkpt lat="49.10225" lon="1.94282">
        <ele>101.9</ele>
        <time>2022-02-05T08:57:49Z</time>
      </trkpt>
      <trkpt lat="49.1022" lon="1.94272">
        <ele>101.9</ele>
        <time>2022-02-05T08:57:55Z</time>
      </trkpt>
      <trkpt lat="49.10216" lon="1.94264">
        <ele>102.1</ele>
        <time>2022-02-05T08:58:00Z</time>
      </trkpt>
      <trkpt lat="49.10211" lon="1.94253">
        <ele>102.3</ele>
        <time>2022-02-05T08:58:06Z</time>
      </trkpt>
      <trkpt lat="49.10206" lon="1.94244">
        <ele>102.5</ele>
        <time>2022-02-05T08:58:11Z</time>
      </trkpt>
      <trkpt lat="49.10201" lon="1.94231">
        <ele>102.6</ele>
        <time>2022-02-05T08:58:17Z</time>
      </trkpt>
      <trkpt lat="49.10197" lon="1.94223">
        <ele>102.8</ele>
        <time>2022-02-05T08:58:22Z</time>
      </trkpt>
      <trkpt lat="49.10191" lon="1.94211">
        <ele>102.9</ele>
        <time>2022-02-05T08:58:28Z</time>
      </trkpt>
      <trkpt lat="49.10187" lon="1.94202">
        <ele>103</ele>
        <time>2022-02-05T08:58:34Z</time>
      </trkpt>
      <trkpt lat="49.10183" lon="1.94194">
        <ele>103.2</ele>
        <time>2022-02-05T08:58:39Z</time>
      </trkpt>
      <trkpt lat="49.10179" lon="1.94185">
        <ele>103.3</ele>
        <time>2022-02-05T08:58:44Z</time>
      </trkpt>
      <trkpt lat="49.10174" lon="1.94174">
        <ele>103.5</ele>
        <time>2022-02-05T08:58:50Z</time>
      </trkpt>
      <trkpt lat="49.10168" lon="1.94164">
        <ele>103.7</ele>
        <time>2022-02-05T08:58:56Z</time>
      </trkpt>
      <trkpt lat="49.10163" lon="1.94155">
        <ele>103.4</ele>
        <time>2022-02-05T08:59:01Z</time>
      </trkpt>
      <trkpt lat="49.10157" lon="1.94146">
        <ele>103.3</ele>
        <time>2022-02-05T08:59:07Z</time>
      </trkpt>
      <trkpt lat="49.10153" lon="1.94138">
        <ele>103.4</ele>
        <time>2022-02-05T08:59:12Z</time>
      </trkpt>
      <trkpt lat="49.10148" lon="1.94131">
        <ele>103.6</ele>
        <time>2022-02-05T08:59:17Z</time>
      </trkpt>
      <trkpt lat="49.10141" lon="1.94119">
        <ele>103.4</ele>
        <time>2022-02-05T08:59:23Z</time>
      </trkpt>
      <trkpt lat="49.10136" lon="1.94111">
        <ele>103.3</ele>
        <time>2022-02-05T08:59:28Z</time>
      </trkpt>
      <trkpt lat="49.10131" lon="1.94102">
        <ele>103.8</ele>
        <time>2022-02-05T08:59:34Z</time>
      </trkpt>
      <trkpt lat="49.10126" lon="1.94096">
        <ele>104.1</ele>
        <time>2022-02-05T08:59:39Z</time>
      </trkpt>
      <trkpt lat="49.1012" lon="1.94087">
        <ele>104.5</ele>
        <time>2022-02-05T08:59:45Z</time>
      </trkpt>
      <trkpt lat="49.10113" lon="1.9408">
        <ele>104.7</ele>
        <time>2022-02-05T08:59:50Z</time>
      </trkpt>
      <trkpt lat="49.10109" lon="1.94074">
        <ele>104.7</ele>
        <time>2022-02-05T08:59:55Z</time>
      </trkpt>
      <trkpt lat="49.10105" lon="1.94069">
        <ele>104.7</ele>
        <time>2022-02-05T09:00:01Z</time>
      </trkpt>
      <trkpt lat="49.10099" lon="1.94067">
        <ele>104.8</ele>
        <time>2022-02-05T09:00:06Z</time>
      </trkpt>
      <trkpt lat="49.10091" lon="1.94057">
        <ele>104.7</ele>
        <time>2022-02-05T09:00:12Z</time>
      </trkpt>
      <trkpt lat="49.10085" lon="1.94046">
        <ele>104.6</ele>
        <time>2022-02-05T09:00:17Z</time>
      </trkpt>
      <trkpt lat="49.10078" lon="1.94035">
        <ele>104.4</ele>
        <time>2022-02-05T09:00:23Z</time>
      </trkpt>
      <trkpt lat="49.10071" lon="1.94027">
        <ele>104.4</ele>
        <time>2022-02-05T09:00:28Z</time>
      </trkpt>
      <trkpt lat="49.10064" lon="1.94018">
        <ele>104.4</ele>
        <time>2022-02-05T09:00:34Z</time>
      </trkpt>
      <trkpt lat="49.10059" lon="1.94009">
        <ele>104.3</ele>
        <time>2022-02-05T09:00:40Z</time>
      </trkpt>
      <trkpt lat="49.10054" lon="1.94003">
        <ele>104.2</ele>
        <time>2022-02-05T09:00:45Z</time>
      </trkpt>
      <trkpt lat="49.10047" lon="1.93996">
        <ele>104.5</ele>
        <time>2022-02-05T09:00:51Z</time>
      </trkpt>
      <trkpt lat="49.10041" lon="1.93989">
        <ele>104.9</ele>
        <time>2022-02-05T09:00:57Z</time>
      </trkpt>
      <trkpt lat="49.10035" lon="1.93983">
        <ele>105</ele>
        <time>2022-02-05T09:01:02Z</time>
      </trkpt>
      <trkpt lat="49.10028" lon="1.93975">
        <ele>105.1</ele>
        <time>2022-02-05T09:01:08Z</time>
      </trkpt>
      <trkpt lat="49.10021" lon="1.93967">
        <ele>105.3</ele>
        <time>2022-02-05T09:01:14Z</time>
      </trkpt>
      <trkpt lat="49.10014" lon="1.93959">
        <ele>105.5</ele>
        <time>2022-02-05T09:01:19Z</time>
      </trkpt>
      <trkpt lat="49.10007" lon="1.93951">
        <ele>105.7</ele>
        <time>2022-02-05T09:01:25Z</time>
      </trkpt>
      <trkpt lat="49.1" lon="1.93943">
        <ele>106</ele>
        <time>2022-02-05T09:01:31Z</time>
      </trkpt>
      <trkpt lat="49.09994" lon="1.93936">
        <ele>105.9</ele>
        <time>2022-02-05T09:01:36Z</time>
      </trkpt>
      <trkpt lat="49.09988" lon="1.9393">
        <ele>105.9</ele>
        <time>2022-02-05T09:01:41Z</time>
      </trkpt>
      <trkpt lat="49.09982" lon="1.93924">
        <ele>105.9</ele>
        <time>2022-02-05T09:01:46Z</time>
      </trkpt>
      <trkpt lat="49.09975" lon="1.93918">
        <ele>106</ele>
        <time>2022-02-05T09:01:52Z</time>
      </trkpt>
      <trkpt lat="49.09968" lon="1.93914">
        <ele>106.1</ele>
        <time>2022-02-05T09:01:57Z</time>
      </trkpt>
      <trkpt lat="49.09961" lon="1.93909">
        <ele>106.2</ele>
        <time>2022-02-05T09:02:02Z</time>
      </trkpt>
      <trkpt lat="49.09955" lon="1.93906">
        <ele>106.5</ele>
        <time>2022-02-05T09:02:08Z</time>
      </trkpt>
      <trkpt lat="49.09949" lon="1.93903">
        <ele>106.8</ele>
        <time>2022-02-05T09:02:13Z</time>
      </trkpt>
      <trkpt lat="49.09941" lon="1.93897">
        <ele>107.2</ele>
        <time>2022-02-05T09:02:19Z</time>
      </trkpt>
      <trkpt lat="49.09933" lon="1.9389">
        <ele>107.4</ele>
        <time>2022-02-05T09:02:25Z</time>
      </trkpt>
      <trkpt lat="49.09925" lon="1.93886">
        <ele>107.6</ele>
        <time>2022-02-05T09:02:31Z</time>
      </trkpt>
      <trkpt lat="49.09916" lon="1.93879">
        <ele>107.7</ele>
        <time>2022-02-05T09:02:37Z</time>
      </trkpt>
      <trkpt lat="49.09907" lon="1.93874">
        <ele>107.8</ele>
        <time>2022-02-05T09:02:43Z</time>
      </trkpt>
      <trkpt lat="49.09898" lon="1.93872">
        <ele>108.1</ele>
        <time>2022-02-05T09:02:49Z</time>
      </trkpt>
      <trkpt lat="49.09892" lon="1.93869">
        <ele>108.2</ele>
        <time>2022-02-05T09:02:54Z</time>
      </trkpt>
      <trkpt lat="49.09885" lon="1.93862">
        <ele>108.3</ele>
        <time>2022-02-05T09:03:00Z</time>
      </trkpt>
      <trkpt lat="49.09877" lon="1.93856">
        <ele>108.8</ele>
        <time>2022-02-05T09:03:06Z</time>
      </trkpt>
      <trkpt lat="49.0987" lon="1.93852">
        <ele>109.1</ele>
        <time>2022-02-05T09:03:12Z</time>
      </trkpt>
      <trkpt lat="49.09863" lon="1.93847">
        <ele>109.4</ele>
        <time>2022-02-05T09:03:17Z</time>
      </trkpt>
      <trkpt lat="49.09855" lon="1.9384">
        <ele>109.5</ele>
        <time>2022-02-05T09:03:23Z</time>
      </trkpt>
      <trkpt lat="49.09849" lon="1.93836">
        <ele>109.6</ele>
        <time>2022-02-05T09:03:28Z</time>
      </trkpt>
      <trkpt lat="49.09841" lon="1.93832">
        <ele>109.7</ele>
        <time>2022-02-05T09:03:34Z</time>
      </trkpt>
      <trkpt lat="49.09834" lon="1.93826">
        <ele>109.7</ele>
        <time>2022-02-05T09:03:39Z</time>
      </trkpt>
      <trkpt lat="49.09827" lon="1.9382">
        <ele>109.8</ele>
        <time>2022-02-05T09:03:44Z</time>
      </trkpt>
      <trkpt lat="49.0982" lon="1.93813">
        <ele>109.7</ele>
        <time>2022-02-05T09:03:50Z</time>
      </trkpt>
      <trkpt lat="49.09812" lon="1.93806">
        <ele>109.7</ele>
        <time>2022-02-05T09:03:56Z</time>
      </trkpt>
      <trkpt lat="49.09806" lon="1.93801">
        <ele>109.8</ele>
        <time>2022-02-05T09:04:02Z</time>
      </trkpt>
      <trkpt lat="49.09798" lon="1.93795">
        <ele>109.9</ele>
        <time>2022-02-05T09:04:08Z</time>
      </trkpt>
      <trkpt lat="49.0979" lon="1.93787">
        <ele>109.9</ele>
        <time>2022-02-05T09:04:14Z</time>
      </trkpt>
      <trkpt lat="49.09784" lon="1.93781">
        <ele>109.9</ele>
        <time>2022-02-05T09:04:19Z</time>
      </trkpt>
      <trkpt lat="49.09783" lon="1.93773">
        <ele>109.8</ele>
        <time>2022-02-05T09:04:25Z</time>
      </trkpt>
      <trkpt lat="49.09784" lon="1.93773">
        <ele>109.8</ele>
        <time>2022-02-05T09:04:31Z</time>
      </trkpt>
      <trkpt lat="49.09783" lon="1.93773">
        <ele>109.8</ele>
        <time>2022-02-05T09:04:36Z</time>
      </trkpt>
      <trkpt lat="49.09783" lon="1.93773">
        <ele>109.8</ele>
        <time>2022-02-05T09:04:42Z</time>
      </trkpt>
      <trkpt lat="49.09783" lon="1.93773">
        <ele>109.8</ele>
        <time>2022-02-05T09:04:48Z</time>
      </trkpt>
      <trkpt lat="49.09783" lon="1.93773">
        <ele>109.8</ele>
        <time>2022-02-05T09:04:54Z</time>
      </trkpt>
      <trkpt lat="49.09782" lon="1.93773">
        <ele>109.8</ele>
        <time>2022-02-05T09:04:59Z</time>
      </trkpt>
      <trkpt lat="49.09782" lon="1.93772">
        <ele>109.8</ele>
        <time>2022-02-05T09:05:04Z</time>
      </trkpt>
      <trkpt lat="49.09782" lon="1.93772">
        <ele>109.8</ele>
        <time>2022-02-05T09:05:10Z</time>
      </trkpt>
      <trkpt lat="49.09782" lon="1.93772">
        <ele>109.8</ele>
        <time>2022-02-05T09:05:15Z</time>
      </trkpt>
      <trkpt lat="49.09782" lon="1.93772">
        <ele>109.8</ele>
        <time>2022-02-05T09:05:21Z</time>
      </trkpt>
      <trkpt lat="49.09782" lon="1.93772">
        <ele>109.8</ele>
        <time>2022-02-05T09:05:26Z</time>
      </trkpt>
      <trkpt lat="49.0978" lon="1.93772">
        <ele>109.9</ele>
        <time>2022-02-05T09:05:32Z</time>
      </trkpt>
      <trkpt lat="49.0978" lon="1.93771">
        <ele>109.9</ele>
        <time>2022-02-05T09:05:37Z</time>
      </trkpt>
      <trkpt lat="49.09782" lon="1.93772">
        <ele>109.8</ele>
        <time>2022-02-05T09:05:43Z</time>
      </trkpt>
      <trkpt lat="49.09782" lon="1.93772">
        <ele>109.8</ele>
        <time>2022-02-05T09:05:49Z</time>
      </trkpt>
      <trkpt lat="49.09782" lon="1.93772">
        <ele>109.8</ele>
        <time>2022-02-05T09:05:54Z</time>
      </trkpt>
      <trkpt lat="49.09782" lon="1.93771">
        <ele>109.8</ele>
        <time>2022-02-05T09:06:00Z</time>
      </trkpt>
      <trkpt lat="49.09782" lon="1.93771">
        <ele>109.8</ele>
        <time>2022-02-05T09:06:05Z</time>
      </trkpt>
      <trkpt lat="49.09783" lon="1.93771">
        <ele>109.8</ele>
        <time>2022-02-05T09:06:10Z</time>
      </trkpt>
      <trkpt lat="49.09783" lon="1.93771">
        <ele>109.8</ele>
        <time>2022-02-05T09:06:15Z</time>
      </trkpt>
      <trkpt lat="49.09783" lon="1.93771">
        <ele>109.8</ele>
        <time>2022-02-05T09:06:21Z</time>
      </trkpt>
      <trkpt lat="49.09783" lon="1.9377">
        <ele>109.7</ele>
        <time>2022-02-05T09:06:26Z</time>
      </trkpt>
      <trkpt lat="49.09789" lon="1.93758">
        <ele>109.3</ele>
        <time>2022-02-05T09:06:32Z</time>
      </trkpt>
      <trkpt lat="49.09793" lon="1.93749">
        <ele>108.9</ele>
        <time>2022-02-05T09:06:37Z</time>
      </trkpt>
      <trkpt lat="49.09797" lon="1.93739">
        <ele>108.8</ele>
        <time>2022-02-05T09:06:43Z</time>
      </trkpt>
      <trkpt lat="49.098" lon="1.9373">
        <ele>108.8</ele>
        <time>2022-02-05T09:06:48Z</time>
      </trkpt>
      <trkpt lat="49.09805" lon="1.93718">
        <ele>109</ele>
        <time>2022-02-05T09:06:54Z</time>
      </trkpt>
      <trkpt lat="49.09808" lon="1.9371">
        <ele>108.9</ele>
        <time>2022-02-05T09:06:59Z</time>
      </trkpt>
      <trkpt lat="49.09813" lon="1.937">
        <ele>108.7</ele>
        <time>2022-02-05T09:07:05Z</time>
      </trkpt>
      <trkpt lat="49.09818" lon="1.9369">
        <ele>108.6</ele>
        <time>2022-02-05T09:07:10Z</time>
      </trkpt>
      <trkpt lat="49.09823" lon="1.9368">
        <ele>108.4</ele>
        <time>2022-02-05T09:07:16Z</time>
      </trkpt>
      <trkpt lat="49.09827" lon="1.93671">
        <ele>108.2</ele>
        <time>2022-02-05T09:07:22Z</time>
      </trkpt>
      <trkpt lat="49.09831" lon="1.93662">
        <ele>108.2</ele>
        <time>2022-02-05T09:07:27Z</time>
      </trkpt>
      <trkpt lat="49.09835" lon="1.93653">
        <ele>108.5</ele>
        <time>2022-02-05T09:07:33Z</time>
      </trkpt>
      <trkpt lat="49.0984" lon="1.93643">
        <ele>108.7</ele>
        <time>2022-02-05T09:07:38Z</time>
      </trkpt>
      <trkpt lat="49.09845" lon="1.93631">
        <ele>108.7</ele>
        <time>2022-02-05T09:07:44Z</time>
      </trkpt>
      <trkpt lat="49.09849" lon="1.93621">
        <ele>108.8</ele>
        <time>2022-02-05T09:07:50Z</time>
      </trkpt>
      <trkpt lat="49.09852" lon="1.93613">
        <ele>109</ele>
        <time>2022-02-05T09:07:55Z</time>
      </trkpt>
      <trkpt lat="49.09856" lon="1.93603">
        <ele>109.2</ele>
        <time>2022-02-05T09:08:01Z</time>
      </trkpt>
      <trkpt lat="49.0986" lon="1.93592">
        <ele>109.6</ele>
        <time>2022-02-05T09:08:07Z</time>
      </trkpt>
      <trkpt lat="49.09863" lon="1.93584">
        <ele>109.9</ele>
        <time>2022-02-05T09:08:12Z</time>
      </trkpt>
      <trkpt lat="49.09869" lon="1.93574">
        <ele>109.6</ele>
        <time>2022-02-05T09:08:18Z</time>
      </trkpt>
      <trkpt lat="49.09872" lon="1.93564">
        <ele>109.5</ele>
        <time>2022-02-05T09:08:23Z</time>
      </trkpt>
      <trkpt lat="49.09876" lon="1.93556">
        <ele>109.5</ele>
        <time>2022-02-05T09:08:28Z</time>
      </trkpt>
      <trkpt lat="49.09878" lon="1.93547">
        <ele>109.6</ele>
        <time>2022-02-05T09:08:33Z</time>
      </trkpt>
      <trkpt lat="49.09883" lon="1.93537">
        <ele>109.7</ele>
        <time>2022-02-05T09:08:39Z</time>
      </trkpt>
      <trkpt lat="49.09888" lon="1.93528">
        <ele>110</ele>
        <time>2022-02-05T09:08:44Z</time>
      </trkpt>
      <trkpt lat="49.09892" lon="1.93516">
        <ele>109.9</ele>
        <time>2022-02-05T09:08:50Z</time>
      </trkpt>
      <trkpt lat="49.09897" lon="1.93505">
        <ele>110</ele>
        <time>2022-02-05T09:08:56Z</time>
      </trkpt>
      <trkpt lat="49.099" lon="1.93497">
        <ele>110</ele>
        <time>2022-02-05T09:09:01Z</time>
      </trkpt>
      <trkpt lat="49.09905" lon="1.93486">
        <ele>110</ele>
        <time>2022-02-05T09:09:07Z</time>
      </trkpt>
      <trkpt lat="49.09909" lon="1.93475">
        <ele>110</ele>
        <time>2022-02-05T09:09:12Z</time>
      </trkpt>
      <trkpt lat="49.09914" lon="1.93462">
        <ele>110.3</ele>
        <time>2022-02-05T09:09:18Z</time>
      </trkpt>
      <trkpt lat="49.09919" lon="1.93453">
        <ele>110.7</ele>
        <time>2022-02-05T09:09:24Z</time>
      </trkpt>
      <trkpt lat="49.09922" lon="1.93442">
        <ele>111</ele>
        <time>2022-02-05T09:09:30Z</time>
      </trkpt>
      <trkpt lat="49.09926" lon="1.93432">
        <ele>111.1</ele>
        <time>2022-02-05T09:09:36Z</time>
      </trkpt>
      <trkpt lat="49.0993" lon="1.93422">
        <ele>111.4</ele>
        <time>2022-02-05T09:09:42Z</time>
      </trkpt>
      <trkpt lat="49.09933" lon="1.93413">
        <ele>111.6</ele>
        <time>2022-02-05T09:09:47Z</time>
      </trkpt>
      <trkpt lat="49.0994" lon="1.93402">
        <ele>111.8</ele>
        <time>2022-02-05T09:09:53Z</time>
      </trkpt>
      <trkpt lat="49.09946" lon="1.93393">
        <ele>112</ele>
        <time>2022-02-05T09:10:00Z</time>
      </trkpt>
      <trkpt lat="49.0995" lon="1.93382">
        <ele>112</ele>
        <time>2022-02-05T09:10:05Z</time>
      </trkpt>
      <trkpt lat="49.09955" lon="1.9337">
        <ele>112</ele>
        <time>2022-02-05T09:10:11Z</time>
      </trkpt>
      <trkpt lat="49.09959" lon="1.93362">
        <ele>112</ele>
        <time>2022-02-05T09:10:16Z</time>
      </trkpt>
      <trkpt lat="49.09963" lon="1.93353">
        <ele>112.2</ele>
        <time>2022-02-05T09:10:21Z</time>
      </trkpt>
      <trkpt lat="49.09969" lon="1.9334">
        <ele>112.7</ele>
        <time>2022-02-05T09:10:27Z</time>
      </trkpt>
      <trkpt lat="49.09972" lon="1.9333">
        <ele>113</ele>
        <time>2022-02-05T09:10:32Z</time>
      </trkpt>
      <trkpt lat="49.09975" lon="1.9332">
        <ele>113</ele>
        <time>2022-02-05T09:10:38Z</time>
      </trkpt>
      <trkpt lat="49.0998" lon="1.93311">
        <ele>113</ele>
        <time>2022-02-05T09:10:43Z</time>
      </trkpt>
      <trkpt lat="49.09987" lon="1.93302">
        <ele>113.1</ele>
        <time>2022-02-05T09:10:48Z</time>
      </trkpt>
      <trkpt lat="49.09992" lon="1.93289">
        <ele>113.4</ele>
        <time>2022-02-05T09:10:54Z</time>
      </trkpt>
      <trkpt lat="49.09996" lon="1.93277">
        <ele>113.9</ele>
        <time>2022-02-05T09:11:00Z</time>
      </trkpt>
      <trkpt lat="49.1" lon="1.93267">
        <ele>114</ele>
        <time>2022-02-05T09:11:05Z</time>
      </trkpt>
      <trkpt lat="49.10004" lon="1.93257">
        <ele>114</ele>
        <time>2022-02-05T09:11:10Z</time>
      </trkpt>
      <trkpt lat="49.10009" lon="1.93244">
        <ele>114</ele>
        <time>2022-02-05T09:11:16Z</time>
      </trkpt>
      <trkpt lat="49.10013" lon="1.93232">
        <ele>114</ele>
        <time>2022-02-05T09:11:22Z</time>
      </trkpt>
      <trkpt lat="49.10017" lon="1.93226">
        <ele>114</ele>
        <time>2022-02-05T09:11:28Z</time>
      </trkpt>
      <trkpt lat="49.10021" lon="1.93216">
        <ele>114.2</ele>
        <time>2022-02-05T09:11:33Z</time>
      </trkpt>
      <trkpt lat="49.10023" lon="1.93208">
        <ele>114.4</ele>
        <time>2022-02-05T09:11:38Z</time>
      </trkpt>
      <trkpt lat="49.10026" lon="1.93197">
        <ele>114.8</ele>
        <time>2022-02-05T09:11:44Z</time>
      </trkpt>
      <trkpt lat="49.10032" lon="1.93185">
        <ele>115</ele>
        <time>2022-02-05T09:11:50Z</time>
      </trkpt>
      <trkpt lat="49.10036" lon="1.93175">
        <ele>115</ele>
        <time>2022-02-05T09:11:55Z</time>
      </trkpt>
      <trkpt lat="49.10042" lon="1.93165">
        <ele>115</ele>
        <time>2022-02-05T09:12:01Z</time>
      </trkpt>
      <trkpt lat="49.10046" lon="1.93156">
        <ele>115</ele>
        <time>2022-02-05T09:12:06Z</time>
      </trkpt>
      <trkpt lat="49.1005" lon="1.93146">
        <ele>115</ele>
        <time>2022-02-05T09:12:11Z</time>
      </trkpt>
      <trkpt lat="49.10055" lon="1.93133">
        <ele>115</ele>
        <time>2022-02-05T09:12:17Z</time>
      </trkpt>
      <trkpt lat="49.10059" lon="1.93124">
        <ele>115</ele>
        <time>2022-02-05T09:12:22Z</time>
      </trkpt>
      <trkpt lat="49.10064" lon="1.93113">
        <ele>115</ele>
        <time>2022-02-05T09:12:28Z</time>
      </trkpt>
      <trkpt lat="49.10069" lon="1.93102">
        <ele>115</ele>
        <time>2022-02-05T09:12:34Z</time>
      </trkpt>
      <trkpt lat="49.10073" lon="1.93092">
        <ele>115.2</ele>
        <time>2022-02-05T09:12:39Z</time>
      </trkpt>
      <trkpt lat="49.10077" lon="1.93084">
        <ele>115.6</ele>
        <time>2022-02-05T09:12:44Z</time>
      </trkpt>
      <trkpt lat="49.10083" lon="1.93072">
        <ele>115.9</ele>
        <time>2022-02-05T09:12:50Z</time>
      </trkpt>
      <trkpt lat="49.10087" lon="1.93063">
        <ele>116</ele>
        <time>2022-02-05T09:12:55Z</time>
      </trkpt>
      <trkpt lat="49.10089" lon="1.93051">
        <ele>115.9</ele>
        <time>2022-02-05T09:13:01Z</time>
      </trkpt>
      <trkpt lat="49.10093" lon="1.93041">
        <ele>115.7</ele>
        <time>2022-02-05T09:13:06Z</time>
      </trkpt>
      <trkpt lat="49.10099" lon="1.93033">
        <ele>115.6</ele>
        <time>2022-02-05T09:13:12Z</time>
      </trkpt>
      <trkpt lat="49.10103" lon="1.93022">
        <ele>115.7</ele>
        <time>2022-02-05T09:13:17Z</time>
      </trkpt>
      <trkpt lat="49.10109" lon="1.9301">
        <ele>115.9</ele>
        <time>2022-02-05T09:13:23Z</time>
      </trkpt>
      <trkpt lat="49.10114" lon="1.92997">
        <ele>115.8</ele>
        <time>2022-02-05T09:13:29Z</time>
      </trkpt>
      <trkpt lat="49.10118" lon="1.92988">
        <ele>115.4</ele>
        <time>2022-02-05T09:13:34Z</time>
      </trkpt>
      <trkpt lat="49.10122" lon="1.92978">
        <ele>115.1</ele>
        <time>2022-02-05T09:13:39Z</time>
      </trkpt>
      <trkpt lat="49.10127" lon="1.92967">
        <ele>114.8</ele>
        <time>2022-02-05T09:13:45Z</time>
      </trkpt>
      <trkpt lat="49.10132" lon="1.92955">
        <ele>114.4</ele>
        <time>2022-02-05T09:13:51Z</time>
      </trkpt>
      <trkpt lat="49.10137" lon="1.92943">
        <ele>114</ele>
        <time>2022-02-05T09:13:57Z</time>
      </trkpt>
      <trkpt lat="49.10142" lon="1.92929">
        <ele>113.4</ele>
        <time>2022-02-05T09:14:03Z</time>
      </trkpt>
      <trkpt lat="49.10146" lon="1.92919">
        <ele>113.1</ele>
        <time>2022-02-05T09:14:08Z</time>
      </trkpt>
      <trkpt lat="49.10151" lon="1.92908">
        <ele>112.7</ele>
        <time>2022-02-05T09:14:14Z</time>
      </trkpt>
      <trkpt lat="49.10155" lon="1.92899">
        <ele>112.4</ele>
        <time>2022-02-05T09:14:19Z</time>
      </trkpt>
      <trkpt lat="49.1016" lon="1.92887">
        <ele>111.9</ele>
        <time>2022-02-05T09:14:25Z</time>
      </trkpt>
      <trkpt lat="49.10164" lon="1.92877">
        <ele>111.6</ele>
        <time>2022-02-05T09:14:30Z</time>
      </trkpt>
      <trkpt lat="49.10168" lon="1.92868">
        <ele>111.2</ele>
        <time>2022-02-05T09:14:35Z</time>
      </trkpt>
      <trkpt lat="49.10173" lon="1.92855">
        <ele>110.8</ele>
        <time>2022-02-05T09:14:41Z</time>
      </trkpt>
      <trkpt lat="49.10178" lon="1.92844">
        <ele>110.4</ele>
        <time>2022-02-05T09:14:47Z</time>
      </trkpt>
      <trkpt lat="49.10183" lon="1.92835">
        <ele>110.1</ele>
        <time>2022-02-05T09:14:53Z</time>
      </trkpt>
      <trkpt lat="49.10189" lon="1.92823">
        <ele>110</ele>
        <time>2022-02-05T09:14:59Z</time>
      </trkpt>
      <trkpt lat="49.10193" lon="1.92813">
        <ele>110</ele>
        <time>2022-02-05T09:15:04Z</time>
      </trkpt>
      <trkpt lat="49.10196" lon="1.92803">
        <ele>109.9</ele>
        <time>2022-02-05T09:15:09Z</time>
      </trkpt>
      <trkpt lat="49.10201" lon="1.92795">
        <ele>109.5</ele>
        <time>2022-02-05T09:15:14Z</time>
      </trkpt>
      <trkpt lat="49.10206" lon="1.92784">
        <ele>109.1</ele>
        <time>2022-02-05T09:15:20Z</time>
      </trkpt>
      <trkpt lat="49.1021" lon="1.92772">
        <ele>108.8</ele>
        <time>2022-02-05T09:15:26Z</time>
      </trkpt>
      <trkpt lat="49.10215" lon="1.92759">
        <ele>108.3</ele>
        <time>2022-02-05T09:15:31Z</time>
      </trkpt>
      <trkpt lat="49.10221" lon="1.92748">
        <ele>107.9</ele>
        <time>2022-02-05T09:15:37Z</time>
      </trkpt>
      <trkpt lat="49.10225" lon="1.92739">
        <ele>107.6</ele>
        <time>2022-02-05T09:15:42Z</time>
      </trkpt>
      <trkpt lat="49.10229" lon="1.92727">
        <ele>107.2</ele>
        <time>2022-02-05T09:15:48Z</time>
      </trkpt>
      <trkpt lat="49.10235" lon="1.92716">
        <ele>106.8</ele>
        <time>2022-02-05T09:15:54Z</time>
      </trkpt>
      <trkpt lat="49.10239" lon="1.92706">
        <ele>106.4</ele>
        <time>2022-02-05T09:15:59Z</time>
      </trkpt>
      <trkpt lat="49.10244" lon="1.92692">
        <ele>105.9</ele>
        <time>2022-02-05T09:16:05Z</time>
      </trkpt>
      <trkpt lat="49.10249" lon="1.92678">
        <ele>104.8</ele>
        <time>2022-02-05T09:16:11Z</time>
      </trkpt>
      <trkpt lat="49.10254" lon="1.92668">
        <ele>104.2</ele>
        <time>2022-02-05T09:16:16Z</time>
      </trkpt>
      <trkpt lat="49.10258" lon="1.92656">
        <ele>104.2</ele>
        <time>2022-02-05T09:16:22Z</time>
      </trkpt>
      <trkpt lat="49.10262" lon="1.92649">
        <ele>104.1</ele>
        <time>2022-02-05T09:16:27Z</time>
      </trkpt>
      <trkpt lat="49.10266" lon="1.92638">
        <ele>104</ele>
        <time>2022-02-05T09:16:33Z</time>
      </trkpt>
      <trkpt lat="49.1027" lon="1.92627">
        <ele>103.7</ele>
        <time>2022-02-05T09:16:38Z</time>
      </trkpt>
      <trkpt lat="49.10275" lon="1.92616">
        <ele>103.3</ele>
        <time>2022-02-05T09:16:44Z</time>
      </trkpt>
      <trkpt lat="49.1028" lon="1.92608">
        <ele>103.1</ele>
        <time>2022-02-05T09:16:49Z</time>
      </trkpt>
      <trkpt lat="49.1029" lon="1.92611">
        <ele>103</ele>
        <time>2022-02-05T09:16:55Z</time>
      </trkpt>
      <trkpt lat="49.10298" lon="1.92614">
        <ele>103.1</ele>
        <time>2022-02-05T09:17:00Z</time>
      </trkpt>
      <trkpt lat="49.10309" lon="1.92617">
        <ele>103.2</ele>
        <time>2022-02-05T09:17:06Z</time>
      </trkpt>
      <trkpt lat="49.10316" lon="1.92623">
        <ele>103.3</ele>
        <time>2022-02-05T09:17:11Z</time>
      </trkpt>
      <trkpt lat="49.10322" lon="1.92624">
        <ele>103.2</ele>
        <time>2022-02-05T09:17:17Z</time>
      </trkpt>
      <trkpt lat="49.10321" lon="1.92623">
        <ele>103.2</ele>
        <time>2022-02-05T09:17:22Z</time>
      </trkpt>
      <trkpt lat="49.1032" lon="1.92623">
        <ele>103.2</ele>
        <time>2022-02-05T09:17:28Z</time>
      </trkpt>
      <trkpt lat="49.10319" lon="1.92624">
        <ele>103.2</ele>
        <time>2022-02-05T09:17:33Z</time>
      </trkpt>
      <trkpt lat="49.10319" lon="1.92624">
        <ele>103.2</ele>
        <time>2022-02-05T09:17:39Z</time>
      </trkpt>
      <trkpt lat="49.10319" lon="1.92624">
        <ele>103.2</ele>
        <time>2022-02-05T09:17:44Z</time>
      </trkpt>
      <trkpt lat="49.10318" lon="1.92624">
        <ele>103.3</ele>
        <time>2022-02-05T09:17:50Z</time>
      </trkpt>
      <trkpt lat="49.10318" lon="1.92624">
        <ele>103.3</ele>
        <time>2022-02-05T09:17:55Z</time>
      </trkpt>
      <trkpt lat="49.10319" lon="1.92624">
        <ele>103.2</ele>
        <time>2022-02-05T09:18:01Z</time>
      </trkpt>
      <trkpt lat="49.10319" lon="1.92624">
        <ele>103.2</ele>
        <time>2022-02-05T09:18:06Z</time>
      </trkpt>
      <trkpt lat="49.10319" lon="1.92623">
        <ele>103.2</ele>
        <time>2022-02-05T09:18:12Z</time>
      </trkpt>
      <trkpt lat="49.10318" lon="1.92624">
        <ele>103.2</ele>
        <time>2022-02-05T09:18:17Z</time>
      </trkpt>
      <trkpt lat="49.10318" lon="1.92624">
        <ele>103.2</ele>
        <time>2022-02-05T09:18:22Z</time>
      </trkpt>
      <trkpt lat="49.10318" lon="1.92625">
        <ele>103.3</ele>
        <time>2022-02-05T09:18:28Z</time>
      </trkpt>
      <trkpt lat="49.10321" lon="1.92628">
        <ele>103.3</ele>
        <time>2022-02-05T09:18:33Z</time>
      </trkpt>
      <trkpt lat="49.10326" lon="1.92632">
        <ele>103.2</ele>
        <time>2022-02-05T09:18:39Z</time>
      </trkpt>
      <trkpt lat="49.1033" lon="1.92635">
        <ele>103.1</ele>
        <time>2022-02-05T09:18:44Z</time>
      </trkpt>
      <trkpt lat="49.10333" lon="1.92634">
        <ele>103</ele>
        <time>2022-02-05T09:18:50Z</time>
      </trkpt>
      <trkpt lat="49.1034" lon="1.92637">
        <ele>103</ele>
        <time>2022-02-05T09:18:55Z</time>
      </trkpt>
      <trkpt lat="49.1035" lon="1.92639">
        <ele>103</ele>
        <time>2022-02-05T09:19:01Z</time>
      </trkpt>
      <trkpt lat="49.10356" lon="1.9264">
        <ele>103.1</ele>
        <time>2022-02-05T09:19:07Z</time>
      </trkpt>
      <trkpt lat="49.10362" lon="1.92641">
        <ele>103</ele>
        <time>2022-02-05T09:19:12Z</time>
      </trkpt>
      <trkpt lat="49.1037" lon="1.92643">
        <ele>102.9</ele>
        <time>2022-02-05T09:19:17Z</time>
      </trkpt>
      <trkpt lat="49.10382" lon="1.92645">
        <ele>102.7</ele>
        <time>2022-02-05T09:19:23Z</time>
      </trkpt>
      <trkpt lat="49.10391" lon="1.92645">
        <ele>102.4</ele>
        <time>2022-02-05T09:19:28Z</time>
      </trkpt>
      <trkpt lat="49.10399" lon="1.92644">
        <ele>102.3</ele>
        <time>2022-02-05T09:19:34Z</time>
      </trkpt>
      <trkpt lat="49.10406" lon="1.92645">
        <ele>102.3</ele>
        <time>2022-02-05T09:19:39Z</time>
      </trkpt>
      <trkpt lat="49.10415" lon="1.92646">
        <ele>102.3</ele>
        <time>2022-02-05T09:19:45Z</time>
      </trkpt>
      <trkpt lat="49.10424" lon="1.92645">
        <ele>102</ele>
        <time>2022-02-05T09:19:50Z</time>
      </trkpt>
      <trkpt lat="49.10433" lon="1.92646">
        <ele>101.7</ele>
        <time>2022-02-05T09:19:56Z</time>
      </trkpt>
      <trkpt lat="49.10439" lon="1.92646">
        <ele>101.4</ele>
        <time>2022-02-05T09:20:01Z</time>
      </trkpt>
      <trkpt lat="49.10447" lon="1.92647">
        <ele>101.3</ele>
        <time>2022-02-05T09:20:07Z</time>
      </trkpt>
      <trkpt lat="49.10455" lon="1.92647">
        <ele>101.3</ele>
        <time>2022-02-05T09:20:12Z</time>
      </trkpt>
      <trkpt lat="49.10463" lon="1.92647">
        <ele>101.3</ele>
        <time>2022-02-05T09:20:18Z</time>
      </trkpt>
      <trkpt lat="49.10472" lon="1.92645">
        <ele>101.2</ele>
        <time>2022-02-05T09:20:24Z</time>
      </trkpt>
      <trkpt lat="49.10481" lon="1.92644">
        <ele>100.9</ele>
        <time>2022-02-05T09:20:29Z</time>
      </trkpt>
      <trkpt lat="49.10487" lon="1.92645">
        <ele>100.7</ele>
        <time>2022-02-05T09:20:34Z</time>
      </trkpt>
      <trkpt lat="49.10494" lon="1.92645">
        <ele>100.4</ele>
        <time>2022-02-05T09:20:40Z</time>
      </trkpt>
      <trkpt lat="49.10502" lon="1.92645">
        <ele>100.2</ele>
        <time>2022-02-05T09:20:46Z</time>
      </trkpt>
      <trkpt lat="49.10509" lon="1.92644">
        <ele>99.9</ele>
        <time>2022-02-05T09:20:51Z</time>
      </trkpt>
      <trkpt lat="49.10518" lon="1.92641">
        <ele>99.4</ele>
        <time>2022-02-05T09:20:57Z</time>
      </trkpt>
      <trkpt lat="49.10526" lon="1.92641">
        <ele>99.2</ele>
        <time>2022-02-05T09:21:02Z</time>
      </trkpt>
      <trkpt lat="49.10536" lon="1.92642">
        <ele>98.9</ele>
        <time>2022-02-05T09:21:08Z</time>
      </trkpt>
      <trkpt lat="49.10546" lon="1.92644">
        <ele>98.6</ele>
        <time>2022-02-05T09:21:14Z</time>
      </trkpt>
      <trkpt lat="49.10554" lon="1.92645">
        <ele>98.3</ele>
        <time>2022-02-05T09:21:19Z</time>
      </trkpt>
      <trkpt lat="49.10563" lon="1.92646">
        <ele>98</ele>
        <time>2022-02-05T09:21:25Z</time>
      </trkpt>
      <trkpt lat="49.10571" lon="1.92646">
        <ele>97.7</ele>
        <time>2022-02-05T09:21:30Z</time>
      </trkpt>
      <trkpt lat="49.10578" lon="1.92649">
        <ele>97.5</ele>
        <time>2022-02-05T09:21:35Z</time>
      </trkpt>
      <trkpt lat="49.10587" lon="1.92651">
        <ele>97.3</ele>
        <time>2022-02-05T09:21:41Z</time>
      </trkpt>
      <trkpt lat="49.10593" lon="1.92652">
        <ele>97.1</ele>
        <time>2022-02-05T09:21:46Z</time>
      </trkpt>
      <trkpt lat="49.106" lon="1.92655">
        <ele>97</ele>
        <time>2022-02-05T09:21:51Z</time>
      </trkpt>
      <trkpt lat="49.10608" lon="1.92658">
        <ele>96.8</ele>
        <time>2022-02-05T09:21:57Z</time>
      </trkpt>
      <trkpt lat="49.10617" lon="1.92661">
        <ele>96.6</ele>
        <time>2022-02-05T09:22:03Z</time>
      </trkpt>
      <trkpt lat="49.10626" lon="1.92664">
        <ele>96.4</ele>
        <time>2022-02-05T09:22:09Z</time>
      </trkpt>
      <trkpt lat="49.10635" lon="1.92667">
        <ele>96.1</ele>
        <time>2022-02-05T09:22:15Z</time>
      </trkpt>
      <trkpt lat="49.10643" lon="1.92671">
        <ele>95.8</ele>
        <time>2022-02-05T09:22:21Z</time>
      </trkpt>
      <trkpt lat="49.10651" lon="1.92673">
        <ele>95.6</ele>
        <time>2022-02-05T09:22:26Z</time>
      </trkpt>
      <trkpt lat="49.10659" lon="1.92676">
        <ele>95.3</ele>
        <time>2022-02-05T09:22:32Z</time>
      </trkpt>
      <trkpt lat="49.10666" lon="1.92678">
        <ele>95</ele>
        <time>2022-02-05T09:22:37Z</time>
      </trkpt>
      <trkpt lat="49.10674" lon="1.92679">
        <ele>95.3</ele>
        <time>2022-02-05T09:22:43Z</time>
      </trkpt>
      <trkpt lat="49.10683" lon="1.92681">
        <ele>95.6</ele>
        <time>2022-02-05T09:22:49Z</time>
      </trkpt>
      <trkpt lat="49.10691" lon="1.92685">
        <ele>95.9</ele>
        <time>2022-02-05T09:22:55Z</time>
      </trkpt>
      <trkpt lat="49.10694" lon="1.92687">
        <ele>96</ele>
        <time>2022-02-05T09:23:00Z</time>
      </trkpt>
      <trkpt lat="49.10698" lon="1.92695">
        <ele>96.1</ele>
        <time>2022-02-05T09:23:06Z</time>
      </trkpt>
      <trkpt lat="49.10704" lon="1.92697">
        <ele>96.3</ele>
        <time>2022-02-05T09:23:11Z</time>
      </trkpt>
      <trkpt lat="49.1071" lon="1.92702">
        <ele>96.4</ele>
        <time>2022-02-05T09:23:16Z</time>
      </trkpt>
      <trkpt lat="49.10714" lon="1.92711">
        <ele>96.5</ele>
        <time>2022-02-05T09:23:21Z</time>
      </trkpt>
      <trkpt lat="49.10718" lon="1.92721">
        <ele>96.7</ele>
        <time>2022-02-05T09:23:27Z</time>
      </trkpt>
      <trkpt lat="49.10722" lon="1.92732">
        <ele>96.9</ele>
        <time>2022-02-05T09:23:33Z</time>
      </trkpt>
      <trkpt lat="49.1072" lon="1.92742">
        <ele>96.8</ele>
        <time>2022-02-05T09:23:39Z</time>
      </trkpt>
      <trkpt lat="49.10716" lon="1.92754">
        <ele>96.3</ele>
        <time>2022-02-05T09:23:44Z</time>
      </trkpt>
      <trkpt lat="49.10714" lon="1.92766">
        <ele>96.1</ele>
        <time>2022-02-05T09:23:49Z</time>
      </trkpt>
      <trkpt lat="49.10712" lon="1.92779">
        <ele>95.8</ele>
        <time>2022-02-05T09:23:55Z</time>
      </trkpt>
      <trkpt lat="49.1071" lon="1.9279">
        <ele>95.3</ele>
        <time>2022-02-05T09:24:01Z</time>
      </trkpt>
      <trkpt lat="49.10711" lon="1.92798">
        <ele>95.1</ele>
        <time>2022-02-05T09:24:07Z</time>
      </trkpt>
      <trkpt lat="49.10712" lon="1.92811">
        <ele>94.8</ele>
        <time>2022-02-05T09:24:13Z</time>
      </trkpt>
      <trkpt lat="49.10709" lon="1.92826">
        <ele>94.2</ele>
        <time>2022-02-05T09:24:19Z</time>
      </trkpt>
      <trkpt lat="49.10707" lon="1.92839">
        <ele>93.9</ele>
        <time>2022-02-05T09:24:25Z</time>
      </trkpt>
      <trkpt lat="49.10706" lon="1.92852">
        <ele>93.8</ele>
        <time>2022-02-05T09:24:31Z</time>
      </trkpt>
      <trkpt lat="49.10706" lon="1.92865">
        <ele>93.9</ele>
        <time>2022-02-05T09:24:37Z</time>
      </trkpt>
      <trkpt lat="49.1071" lon="1.92876">
        <ele>94.1</ele>
        <time>2022-02-05T09:24:43Z</time>
      </trkpt>
      <trkpt lat="49.10716" lon="1.92885">
        <ele>94.1</ele>
        <time>2022-02-05T09:24:48Z</time>
      </trkpt>
      <trkpt lat="49.10719" lon="1.92894">
        <ele>94</ele>
        <time>2022-02-05T09:24:54Z</time>
      </trkpt>
      <trkpt lat="49.1072" lon="1.929">
        <ele>94</ele>
        <time>2022-02-05T09:24:59Z</time>
      </trkpt>
      <trkpt lat="49.1072" lon="1.92911">
        <ele>94</ele>
        <time>2022-02-05T09:25:05Z</time>
      </trkpt>
      <trkpt lat="49.10726" lon="1.92922">
        <ele>94.3</ele>
        <time>2022-02-05T09:25:10Z</time>
      </trkpt>
      <trkpt lat="49.10733" lon="1.92934">
        <ele>94.7</ele>
        <time>2022-02-05T09:25:16Z</time>
      </trkpt>
      <trkpt lat="49.10739" lon="1.92944">
        <ele>94.6</ele>
        <time>2022-02-05T09:25:21Z</time>
      </trkpt>
      <trkpt lat="49.10744" lon="1.92954">
        <ele>94.5</ele>
        <time>2022-02-05T09:25:26Z</time>
      </trkpt>
      <trkpt lat="49.1075" lon="1.92965">
        <ele>94.3</ele>
        <time>2022-02-05T09:25:32Z</time>
      </trkpt>
      <trkpt lat="49.10754" lon="1.92974">
        <ele>94.6</ele>
        <time>2022-02-05T09:25:37Z</time>
      </trkpt>
      <trkpt lat="49.1076" lon="1.92987">
        <ele>95</ele>
        <time>2022-02-05T09:25:43Z</time>
      </trkpt>
      <trkpt lat="49.10765" lon="1.92996">
        <ele>95.2</ele>
        <time>2022-02-05T09:25:48Z</time>
      </trkpt>
      <trkpt lat="49.1077" lon="1.93005">
        <ele>95.3</ele>
        <time>2022-02-05T09:25:53Z</time>
      </trkpt>
      <trkpt lat="49.10773" lon="1.93012">
        <ele>95.3</ele>
        <time>2022-02-05T09:25:58Z</time>
      </trkpt>
      <trkpt lat="49.10775" lon="1.93019">
        <ele>95.2</ele>
        <time>2022-02-05T09:26:03Z</time>
      </trkpt>
      <trkpt lat="49.10777" lon="1.93028">
        <ele>95</ele>
        <time>2022-02-05T09:26:09Z</time>
      </trkpt>
      <trkpt lat="49.10781" lon="1.93039">
        <ele>95.3</ele>
        <time>2022-02-05T09:26:15Z</time>
      </trkpt>
      <trkpt lat="49.10784" lon="1.93049">
        <ele>95.5</ele>
        <time>2022-02-05T09:26:20Z</time>
      </trkpt>
      <trkpt lat="49.10788" lon="1.93061">
        <ele>95.6</ele>
        <time>2022-02-05T09:26:26Z</time>
      </trkpt>
      <trkpt lat="49.10795" lon="1.9307">
        <ele>96</ele>
        <time>2022-02-05T09:26:31Z</time>
      </trkpt>
      <trkpt lat="49.108" lon="1.93082">
        <ele>96.4</ele>
        <time>2022-02-05T09:26:37Z</time>
      </trkpt>
      <trkpt lat="49.10804" lon="1.93093">
        <ele>96.2</ele>
        <time>2022-02-05T09:26:42Z</time>
      </trkpt>
      <trkpt lat="49.10809" lon="1.93105">
        <ele>95.8</ele>
        <time>2022-02-05T09:26:47Z</time>
      </trkpt>
      <trkpt lat="49.10812" lon="1.93113">
        <ele>95.7</ele>
        <time>2022-02-05T09:26:53Z</time>
      </trkpt>
      <trkpt lat="49.10815" lon="1.9312">
        <ele>95.8</ele>
        <time>2022-02-05T09:26:58Z</time>
      </trkpt>
      <trkpt lat="49.10818" lon="1.9313">
        <ele>95.6</ele>
        <time>2022-02-05T09:27:04Z</time>
      </trkpt>
      <trkpt lat="49.1082" lon="1.93137">
        <ele>95.6</ele>
        <time>2022-02-05T09:27:09Z</time>
      </trkpt>
      <trkpt lat="49.10824" lon="1.93146">
        <ele>95.6</ele>
        <time>2022-02-05T09:27:15Z</time>
      </trkpt>
      <trkpt lat="49.10829" lon="1.93156">
        <ele>95.4</ele>
        <time>2022-02-05T09:27:21Z</time>
      </trkpt>
      <trkpt lat="49.10833" lon="1.93168">
        <ele>95</ele>
        <time>2022-02-05T09:27:27Z</time>
      </trkpt>
      <trkpt lat="49.10838" lon="1.9318">
        <ele>95.4</ele>
        <time>2022-02-05T09:27:33Z</time>
      </trkpt>
      <trkpt lat="49.10842" lon="1.93191">
        <ele>95.6</ele>
        <time>2022-02-05T09:27:39Z</time>
      </trkpt>
      <trkpt lat="49.10846" lon="1.93204">
        <ele>95.8</ele>
        <time>2022-02-05T09:27:45Z</time>
      </trkpt>
      <trkpt lat="49.1085" lon="1.93218">
        <ele>95.7</ele>
        <time>2022-02-05T09:27:51Z</time>
      </trkpt>
      <trkpt lat="49.10853" lon="1.93232">
        <ele>95.7</ele>
        <time>2022-02-05T09:27:57Z</time>
      </trkpt>
      <trkpt lat="49.10855" lon="1.93244">
        <ele>95.8</ele>
        <time>2022-02-05T09:28:03Z</time>
      </trkpt>
      <trkpt lat="49.10857" lon="1.93252">
        <ele>95.8</ele>
        <time>2022-02-05T09:28:08Z</time>
      </trkpt>
      <trkpt lat="49.10859" lon="1.93261">
        <ele>95.6</ele>
        <time>2022-02-05T09:28:13Z</time>
      </trkpt>
      <trkpt lat="49.10862" lon="1.93272">
        <ele>95.2</ele>
        <time>2022-02-05T09:28:19Z</time>
      </trkpt>
      <trkpt lat="49.10865" lon="1.93284">
        <ele>94.9</ele>
        <time>2022-02-05T09:28:25Z</time>
      </trkpt>
      <trkpt lat="49.10867" lon="1.93294">
        <ele>94.5</ele>
        <time>2022-02-05T09:28:30Z</time>
      </trkpt>
      <trkpt lat="49.10871" lon="1.93304">
        <ele>94.1</ele>
        <time>2022-02-05T09:28:36Z</time>
      </trkpt>
      <trkpt lat="49.10875" lon="1.93312">
        <ele>94</ele>
        <time>2022-02-05T09:28:41Z</time>
      </trkpt>
      <trkpt lat="49.10882" lon="1.9332">
        <ele>94</ele>
        <time>2022-02-05T09:28:47Z</time>
      </trkpt>
      <trkpt lat="49.10888" lon="1.93327">
        <ele>94</ele>
        <time>2022-02-05T09:28:53Z</time>
      </trkpt>
      <trkpt lat="49.10893" lon="1.93332">
        <ele>94.2</ele>
        <time>2022-02-05T09:28:58Z</time>
      </trkpt>
      <trkpt lat="49.10897" lon="1.93335">
        <ele>94.2</ele>
        <time>2022-02-05T09:29:03Z</time>
      </trkpt>
      <trkpt lat="49.10901" lon="1.9334">
        <ele>94.2</ele>
        <time>2022-02-05T09:29:10Z</time>
      </trkpt>
      <trkpt lat="49.1091" lon="1.9335">
        <ele>94.2</ele>
        <time>2022-02-05T09:29:15Z</time>
      </trkpt>
      <trkpt lat="49.10918" lon="1.93357">
        <ele>94.2</ele>
        <time>2022-02-05T09:29:20Z</time>
      </trkpt>
      <trkpt lat="49.10925" lon="1.93365">
        <ele>94</ele>
        <time>2022-02-05T09:29:26Z</time>
      </trkpt>
      <trkpt lat="49.10931" lon="1.93371">
        <ele>93.8</ele>
        <time>2022-02-05T09:29:31Z</time>
      </trkpt>
      <trkpt lat="49.10936" lon="1.93378">
        <ele>93.7</ele>
        <time>2022-02-05T09:29:38Z</time>
      </trkpt>
      <trkpt lat="49.10942" lon="1.93384">
        <ele>94</ele>
        <time>2022-02-05T09:29:43Z</time>
      </trkpt>
      <trkpt lat="49.10948" lon="1.93388">
        <ele>94.1</ele>
        <time>2022-02-05T09:29:49Z</time>
      </trkpt>
      <trkpt lat="49.10953" lon="1.93392">
        <ele>94</ele>
        <time>2022-02-05T09:29:54Z</time>
      </trkpt>
      <trkpt lat="49.10958" lon="1.93397">
        <ele>94</ele>
        <time>2022-02-05T09:30:00Z</time>
      </trkpt>
      <trkpt lat="49.10959" lon="1.93402">
        <ele>93.9</ele>
        <time>2022-02-05T09:30:05Z</time>
      </trkpt>
      <trkpt lat="49.10964" lon="1.93407">
        <ele>94.1</ele>
        <time>2022-02-05T09:30:10Z</time>
      </trkpt>
      <trkpt lat="49.1097" lon="1.93414">
        <ele>94.7</ele>
        <time>2022-02-05T09:30:15Z</time>
      </trkpt>
      <trkpt lat="49.10979" lon="1.93421">
        <ele>94.8</ele>
        <time>2022-02-05T09:30:21Z</time>
      </trkpt>
      <trkpt lat="49.10987" lon="1.93427">
        <ele>94.8</ele>
        <time>2022-02-05T09:30:27Z</time>
      </trkpt>
      <trkpt lat="49.10993" lon="1.93429">
        <ele>95.1</ele>
        <time>2022-02-05T09:30:33Z</time>
      </trkpt>
      <trkpt lat="49.10995" lon="1.93429">
        <ele>95.2</ele>
        <time>2022-02-05T09:30:38Z</time>
      </trkpt>
      <trkpt lat="49.10997" lon="1.93433">
        <ele>95.2</ele>
        <time>2022-02-05T09:30:43Z</time>
      </trkpt>
      <trkpt lat="49.10999" lon="1.93436">
        <ele>95.2</ele>
        <time>2022-02-05T09:30:49Z</time>
      </trkpt>
      <trkpt lat="49.10999" lon="1.93436">
        <ele>95.2</ele>
        <time>2022-02-05T09:30:54Z</time>
      </trkpt>
      <trkpt lat="49.10998" lon="1.93436">
        <ele>95.1</ele>
        <time>2022-02-05T09:30:59Z</time>
      </trkpt>
      <trkpt lat="49.10997" lon="1.93436">
        <ele>95</ele>
        <time>2022-02-05T09:31:05Z</time>
      </trkpt>
      <trkpt lat="49.10997" lon="1.93435">
        <ele>95.1</ele>
        <time>2022-02-05T09:31:10Z</time>
      </trkpt>
      <trkpt lat="49.10998" lon="1.93434">
        <ele>95.2</ele>
        <time>2022-02-05T09:31:16Z</time>
      </trkpt>
      <trkpt lat="49.10999" lon="1.93435">
        <ele>95.2</ele>
        <time>2022-02-05T09:31:21Z</time>
      </trkpt>
      <trkpt lat="49.10999" lon="1.93436">
        <ele>95.3</ele>
        <time>2022-02-05T09:31:27Z</time>
      </trkpt>
      <trkpt lat="49.10999" lon="1.93436">
        <ele>95.3</ele>
        <time>2022-02-05T09:31:32Z</time>
      </trkpt>
      <trkpt lat="49.11" lon="1.93436">
        <ele>95.3</ele>
        <time>2022-02-05T09:31:38Z</time>
      </trkpt>
      <trkpt lat="49.11" lon="1.93438">
        <ele>95.2</ele>
        <time>2022-02-05T09:31:43Z</time>
      </trkpt>
      <trkpt lat="49.11" lon="1.93438">
        <ele>95.2</ele>
        <time>2022-02-05T09:31:49Z</time>
      </trkpt>
      <trkpt lat="49.11" lon="1.93438">
        <ele>95.2</ele>
        <time>2022-02-05T09:31:55Z</time>
      </trkpt>
      <trkpt lat="49.11" lon="1.93438">
        <ele>95.2</ele>
        <time>2022-02-05T09:32:00Z</time>
      </trkpt>
      <trkpt lat="49.11" lon="1.93438">
        <ele>95.2</ele>
        <time>2022-02-05T09:32:05Z</time>
      </trkpt>
      <trkpt lat="49.11" lon="1.93438">
        <ele>95.2</ele>
        <time>2022-02-05T09:32:11Z</time>
      </trkpt>
      <trkpt lat="49.11" lon="1.93438">
        <ele>95.2</ele>
        <time>2022-02-05T09:32:16Z</time>
      </trkpt>
      <trkpt lat="49.11" lon="1.93438">
        <ele>95.2</ele>
        <time>2022-02-05T09:32:22Z</time>
      </trkpt>
      <trkpt lat="49.11001" lon="1.93439">
        <ele>95.2</ele>
        <time>2022-02-05T09:32:27Z</time>
      </trkpt>
      <trkpt lat="49.11001" lon="1.93439">
        <ele>95.2</ele>
        <time>2022-02-05T09:32:32Z</time>
      </trkpt>
      <trkpt lat="49.11001" lon="1.93439">
        <ele>95.2</ele>
        <time>2022-02-05T09:32:38Z</time>
      </trkpt>
      <trkpt lat="49.11002" lon="1.9344">
        <ele>95.2</ele>
        <time>2022-02-05T09:32:43Z</time>
      </trkpt>
      <trkpt lat="49.11002" lon="1.93441">
        <ele>95.2</ele>
        <time>2022-02-05T09:32:48Z</time>
      </trkpt>
      <trkpt lat="49.11001" lon="1.93441">
        <ele>95.2</ele>
        <time>2022-02-05T09:32:53Z</time>
      </trkpt>
      <trkpt lat="49.11001" lon="1.93441">
        <ele>95.2</ele>
        <time>2022-02-05T09:32:59Z</time>
      </trkpt>
      <trkpt lat="49.11001" lon="1.9344">
        <ele>95.2</ele>
        <time>2022-02-05T09:33:04Z</time>
      </trkpt>
      <trkpt lat="49.11001" lon="1.9344">
        <ele>95.2</ele>
        <time>2022-02-05T09:33:10Z</time>
      </trkpt>
      <trkpt lat="49.11001" lon="1.9344">
        <ele>95.2</ele>
        <time>2022-02-05T09:33:16Z</time>
      </trkpt>
      <trkpt lat="49.11002" lon="1.93439">
        <ele>95.2</ele>
        <time>2022-02-05T09:33:22Z</time>
      </trkpt>
      <trkpt lat="49.11002" lon="1.93439">
        <ele>95.3</ele>
        <time>2022-02-05T09:33:28Z</time>
      </trkpt>
      <trkpt lat="49.11003" lon="1.93441">
        <ele>95.2</ele>
        <time>2022-02-05T09:33:34Z</time>
      </trkpt>
      <trkpt lat="49.11005" lon="1.93449">
        <ele>94.9</ele>
        <time>2022-02-05T09:33:39Z</time>
      </trkpt>
      <trkpt lat="49.11005" lon="1.93457">
        <ele>94.3</ele>
        <time>2022-02-05T09:33:45Z</time>
      </trkpt>
      <trkpt lat="49.11005" lon="1.93463">
        <ele>93.9</ele>
        <time>2022-02-05T09:33:51Z</time>
      </trkpt>
      <trkpt lat="49.11005" lon="1.93469">
        <ele>93.6</ele>
        <time>2022-02-05T09:33:56Z</time>
      </trkpt>
      <trkpt lat="49.11005" lon="1.93475">
        <ele>93.1</ele>
        <time>2022-02-05T09:34:02Z</time>
      </trkpt>
      <trkpt lat="49.11006" lon="1.93482">
        <ele>92.5</ele>
        <time>2022-02-05T09:34:07Z</time>
      </trkpt>
      <trkpt lat="49.11012" lon="1.93497">
        <ele>91.9</ele>
        <time>2022-02-05T09:34:13Z</time>
      </trkpt>
      <trkpt lat="49.11016" lon="1.93509">
        <ele>91.4</ele>
        <time>2022-02-05T09:34:19Z</time>
      </trkpt>
      <trkpt lat="49.11018" lon="1.93516">
        <ele>91.1</ele>
        <time>2022-02-05T09:34:24Z</time>
      </trkpt>
      <trkpt lat="49.11019" lon="1.93526">
        <ele>90.3</ele>
        <time>2022-02-05T09:34:30Z</time>
      </trkpt>
      <trkpt lat="49.1102" lon="1.93534">
        <ele>89.2</ele>
        <time>2022-02-05T09:34:35Z</time>
      </trkpt>
      <trkpt lat="49.1102" lon="1.93542">
        <ele>88.1</ele>
        <time>2022-02-05T09:34:41Z</time>
      </trkpt>
      <trkpt lat="49.11021" lon="1.9355">
        <ele>87.1</ele>
        <time>2022-02-05T09:34:46Z</time>
      </trkpt>
      <trkpt lat="49.11022" lon="1.93559">
        <ele>85.6</ele>
        <time>2022-02-05T09:34:52Z</time>
      </trkpt>
      <trkpt lat="49.11022" lon="1.93569">
        <ele>83.7</ele>
        <time>2022-02-05T09:34:58Z</time>
      </trkpt>
      <trkpt lat="49.11024" lon="1.93577">
        <ele>82.2</ele>
        <time>2022-02-05T09:35:04Z</time>
      </trkpt>
      <trkpt lat="49.11026" lon="1.93586">
        <ele>81.2</ele>
        <time>2022-02-05T09:35:09Z</time>
      </trkpt>
      <trkpt lat="49.11032" lon="1.93595">
        <ele>80.9</ele>
        <time>2022-02-05T09:35:14Z</time>
      </trkpt>
      <trkpt lat="49.11047" lon="1.93607">
        <ele>81.8</ele>
        <time>2022-02-05T09:35:20Z</time>
      </trkpt>
      <trkpt lat="49.11057" lon="1.93616">
        <ele>82.4</ele>
        <time>2022-02-05T09:35:25Z</time>
      </trkpt>
      <trkpt lat="49.11067" lon="1.93626">
        <ele>82.7</ele>
        <time>2022-02-05T09:35:31Z</time>
      </trkpt>
      <trkpt lat="49.11076" lon="1.93634">
        <ele>83.1</ele>
        <time>2022-02-05T09:35:37Z</time>
      </trkpt>
      <trkpt lat="49.11081" lon="1.9364">
        <ele>83.5</ele>
        <time>2022-02-05T09:35:42Z</time>
      </trkpt>
      <trkpt lat="49.11087" lon="1.93646">
        <ele>83.8</ele>
        <time>2022-02-05T09:35:48Z</time>
      </trkpt>
      <trkpt lat="49.11092" lon="1.93654">
        <ele>84</ele>
        <time>2022-02-05T09:35:54Z</time>
      </trkpt>
      <trkpt lat="49.11096" lon="1.93661">
        <ele>83.9</ele>
        <time>2022-02-05T09:35:59Z</time>
      </trkpt>
      <trkpt lat="49.11101" lon="1.93672">
        <ele>83.3</ele>
        <time>2022-02-05T09:36:05Z</time>
      </trkpt>
      <trkpt lat="49.11105" lon="1.93683">
        <ele>82.1</ele>
        <time>2022-02-05T09:36:11Z</time>
      </trkpt>
      <trkpt lat="49.11108" lon="1.93691">
        <ele>81.1</ele>
        <time>2022-02-05T09:36:16Z</time>
      </trkpt>
      <trkpt lat="49.11111" lon="1.93699">
        <ele>79.9</ele>
        <time>2022-02-05T09:36:22Z</time>
      </trkpt>
      <trkpt lat="49.11115" lon="1.93705">
        <ele>79.5</ele>
        <time>2022-02-05T09:36:27Z</time>
      </trkpt>
      <trkpt lat="49.1112" lon="1.93711">
        <ele>79.2</ele>
        <time>2022-02-05T09:36:33Z</time>
      </trkpt>
      <trkpt lat="49.11125" lon="1.93717">
        <ele>79.1</ele>
        <time>2022-02-05T09:36:39Z</time>
      </trkpt>
      <trkpt lat="49.1113" lon="1.93723">
        <ele>79</ele>
        <time>2022-02-05T09:36:44Z</time>
      </trkpt>
      <trkpt lat="49.11136" lon="1.9373">
        <ele>78.6</ele>
        <time>2022-02-05T09:36:50Z</time>
      </trkpt>
      <trkpt lat="49.11142" lon="1.93736">
        <ele>78</ele>
        <time>2022-02-05T09:36:56Z</time>
      </trkpt>
      <trkpt lat="49.11147" lon="1.93741">
        <ele>77.6</ele>
        <time>2022-02-05T09:37:02Z</time>
      </trkpt>
      <trkpt lat="49.11153" lon="1.93746">
        <ele>77.5</ele>
        <time>2022-02-05T09:37:08Z</time>
      </trkpt>
      <trkpt lat="49.11159" lon="1.93752">
        <ele>77.1</ele>
        <time>2022-02-05T09:37:13Z</time>
      </trkpt>
      <trkpt lat="49.11163" lon="1.93757">
        <ele>76.6</ele>
        <time>2022-02-05T09:37:18Z</time>
      </trkpt>
      <trkpt lat="49.11167" lon="1.93763">
        <ele>75.7</ele>
        <time>2022-02-05T09:37:24Z</time>
      </trkpt>
      <trkpt lat="49.11172" lon="1.93771">
        <ele>74.1</ele>
        <time>2022-02-05T09:37:30Z</time>
      </trkpt>
      <trkpt lat="49.11176" lon="1.93779">
        <ele>72.4</ele>
        <time>2022-02-05T09:37:36Z</time>
      </trkpt>
      <trkpt lat="49.11181" lon="1.93789">
        <ele>70.7</ele>
        <time>2022-02-05T09:37:42Z</time>
      </trkpt>
      <trkpt lat="49.11187" lon="1.93796">
        <ele>69.4</ele>
        <time>2022-02-05T09:37:47Z</time>
      </trkpt>
      <trkpt lat="49.1119" lon="1.93801">
        <ele>68.7</ele>
        <time>2022-02-05T09:37:53Z</time>
      </trkpt>
      <trkpt lat="49.11194" lon="1.93804">
        <ele>68.3</ele>
        <time>2022-02-05T09:37:59Z</time>
      </trkpt>
      <trkpt lat="49.11197" lon="1.93807">
        <ele>67.9</ele>
        <time>2022-02-05T09:38:04Z</time>
      </trkpt>
      <trkpt lat="49.11201" lon="1.93812">
        <ele>67.5</ele>
        <time>2022-02-05T09:38:10Z</time>
      </trkpt>
      <trkpt lat="49.11206" lon="1.93817">
        <ele>67.1</ele>
        <time>2022-02-05T09:38:15Z</time>
      </trkpt>
      <trkpt lat="49.11211" lon="1.93822">
        <ele>66.9</ele>
        <time>2022-02-05T09:38:20Z</time>
      </trkpt>
      <trkpt lat="49.11212" lon="1.93824">
        <ele>66.6</ele>
        <time>2022-02-05T09:38:26Z</time>
      </trkpt>
      <trkpt lat="49.1121" lon="1.93825">
        <ele>66.4</ele>
        <time>2022-02-05T09:38:31Z</time>
      </trkpt>
      <trkpt lat="49.11206" lon="1.93824">
        <ele>66.2</ele>
        <time>2022-02-05T09:38:37Z</time>
      </trkpt>
      <trkpt lat="49.11203" lon="1.93823">
        <ele>66.1</ele>
        <time>2022-02-05T09:38:42Z</time>
      </trkpt>
      <trkpt lat="49.11201" lon="1.93823">
        <ele>66</ele>
        <time>2022-02-05T09:38:49Z</time>
      </trkpt>
      <trkpt lat="49.112" lon="1.93822">
        <ele>66</ele>
        <time>2022-02-05T09:38:55Z</time>
      </trkpt>
      <trkpt lat="49.112" lon="1.93818">
        <ele>66.6</ele>
        <time>2022-02-05T09:39:01Z</time>
      </trkpt>
      <trkpt lat="49.112" lon="1.93818">
        <ele>66.6</ele>
        <time>2022-02-05T09:39:06Z</time>
      </trkpt>
      <trkpt lat="49.11205" lon="1.9382">
        <ele>66.6</ele>
        <time>2022-02-05T09:39:12Z</time>
      </trkpt>
      <trkpt lat="49.11209" lon="1.93822">
        <ele>66.6</ele>
        <time>2022-02-05T09:39:18Z</time>
      </trkpt>
      <trkpt lat="49.11212" lon="1.93824">
        <ele>66.5</ele>
        <time>2022-02-05T09:39:23Z</time>
      </trkpt>
      <trkpt lat="49.11216" lon="1.93829">
        <ele>66.1</ele>
        <time>2022-02-05T09:39:28Z</time>
      </trkpt>
      <trkpt lat="49.1122" lon="1.93837">
        <ele>65.3</ele>
        <time>2022-02-05T09:39:34Z</time>
      </trkpt>
      <trkpt lat="49.11225" lon="1.93844">
        <ele>64.9</ele>
        <time>2022-02-05T09:39:39Z</time>
      </trkpt>
      <trkpt lat="49.11231" lon="1.93851">
        <ele>64.6</ele>
        <time>2022-02-05T09:39:45Z</time>
      </trkpt>
      <trkpt lat="49.11238" lon="1.93861">
        <ele>64.2</ele>
        <time>2022-02-05T09:39:51Z</time>
      </trkpt>
      <trkpt lat="49.11244" lon="1.9387">
        <ele>64.2</ele>
        <time>2022-02-05T09:39:57Z</time>
      </trkpt>
      <trkpt lat="49.11249" lon="1.9388">
        <ele>63.9</ele>
        <time>2022-02-05T09:40:03Z</time>
      </trkpt>
      <trkpt lat="49.11252" lon="1.93888">
        <ele>63.4</ele>
        <time>2022-02-05T09:40:08Z</time>
      </trkpt>
      <trkpt lat="49.11256" lon="1.93897">
        <ele>63.2</ele>
        <time>2022-02-05T09:40:14Z</time>
      </trkpt>
      <trkpt lat="49.11259" lon="1.93905">
        <ele>62.9</ele>
        <time>2022-02-05T09:40:19Z</time>
      </trkpt>
      <trkpt lat="49.11263" lon="1.93914">
        <ele>62.6</ele>
        <time>2022-02-05T09:40:24Z</time>
      </trkpt>
      <trkpt lat="49.11268" lon="1.93924">
        <ele>62.6</ele>
        <time>2022-02-05T09:40:30Z</time>
      </trkpt>
      <trkpt lat="49.11272" lon="1.93935">
        <ele>62.4</ele>
        <time>2022-02-05T09:40:36Z</time>
      </trkpt>
      <trkpt lat="49.11278" lon="1.93947">
        <ele>62</ele>
        <time>2022-02-05T09:40:42Z</time>
      </trkpt>
      <trkpt lat="49.11284" lon="1.93957">
        <ele>62.1</ele>
        <time>2022-02-05T09:40:48Z</time>
      </trkpt>
      <trkpt lat="49.11288" lon="1.93965">
        <ele>62.1</ele>
        <time>2022-02-05T09:40:53Z</time>
      </trkpt>
      <trkpt lat="49.11294" lon="1.93973">
        <ele>62.1</ele>
        <time>2022-02-05T09:40:59Z</time>
      </trkpt>
      <trkpt lat="49.11299" lon="1.9398">
        <ele>61.9</ele>
        <time>2022-02-05T09:41:05Z</time>
      </trkpt>
      <trkpt lat="49.11302" lon="1.93983">
        <ele>61.7</ele>
        <time>2022-02-05T09:41:10Z</time>
      </trkpt>
      <trkpt lat="49.11304" lon="1.93986">
        <ele>61.5</ele>
        <time>2022-02-05T09:41:16Z</time>
      </trkpt>
      <trkpt lat="49.11306" lon="1.93989">
        <ele>61.2</ele>
        <time>2022-02-05T09:41:22Z</time>
      </trkpt>
      <trkpt lat="49.11308" lon="1.93992">
        <ele>61</ele>
        <time>2022-02-05T09:41:28Z</time>
      </trkpt>
      <trkpt lat="49.11309" lon="1.93993">
        <ele>60.9</ele>
        <time>2022-02-05T09:41:34Z</time>
      </trkpt>
      <trkpt lat="49.1131" lon="1.93994">
        <ele>61</ele>
        <time>2022-02-05T09:41:40Z</time>
      </trkpt>
      <trkpt lat="49.11312" lon="1.93995">
        <ele>61</ele>
        <time>2022-02-05T09:41:45Z</time>
      </trkpt>
      <trkpt lat="49.11314" lon="1.93996">
        <ele>61.1</ele>
        <time>2022-02-05T09:41:51Z</time>
      </trkpt>
      <trkpt lat="49.11315" lon="1.93996">
        <ele>61.1</ele>
        <time>2022-02-05T09:41:56Z</time>
      </trkpt>
      <trkpt lat="49.11316" lon="1.93996">
        <ele>61.1</ele>
        <time>2022-02-05T09:42:02Z</time>
      </trkpt>
      <trkpt lat="49.11317" lon="1.93997">
        <ele>61.1</ele>
        <time>2022-02-05T09:42:07Z</time>
      </trkpt>
      <trkpt lat="49.11319" lon="1.93998">
        <ele>61.1</ele>
        <time>2022-02-05T09:42:12Z</time>
      </trkpt>
      <trkpt lat="49.1132" lon="1.93999">
        <ele>61.2</ele>
        <time>2022-02-05T09:42:18Z</time>
      </trkpt>
      <trkpt lat="49.11325" lon="1.94001">
        <ele>61.4</ele>
        <time>2022-02-05T09:42:23Z</time>
      </trkpt>
      <trkpt lat="49.11332" lon="1.94002">
        <ele>61.7</ele>
        <time>2022-02-05T09:42:29Z</time>
      </trkpt>
      <trkpt lat="49.11338" lon="1.94004">
        <ele>62.3</ele>
        <time>2022-02-05T09:42:34Z</time>
      </trkpt>
      <trkpt lat="49.11342" lon="1.94007">
        <ele>62.7</ele>
        <time>2022-02-05T09:42:39Z</time>
      </trkpt>
      <trkpt lat="49.11348" lon="1.94012">
        <ele>63</ele>
        <time>2022-02-05T09:42:45Z</time>
      </trkpt>
      <trkpt lat="49.11354" lon="1.94022">
        <ele>62.9</ele>
        <time>2022-02-05T09:42:51Z</time>
      </trkpt>
      <trkpt lat="49.1136" lon="1.94032">
        <ele>62.6</ele>
        <time>2022-02-05T09:42:57Z</time>
      </trkpt>
      <trkpt lat="49.11365" lon="1.94042">
        <ele>63.1</ele>
        <time>2022-02-05T09:43:02Z</time>
      </trkpt>
      <trkpt lat="49.1137" lon="1.94052">
        <ele>63.4</ele>
        <time>2022-02-05T09:43:07Z</time>
      </trkpt>
      <trkpt lat="49.11374" lon="1.94062">
        <ele>63.8</ele>
        <time>2022-02-05T09:43:12Z</time>
      </trkpt>
      <trkpt lat="49.11378" lon="1.94073">
        <ele>64.3</ele>
        <time>2022-02-05T09:43:18Z</time>
      </trkpt>
      <trkpt lat="49.11383" lon="1.94082">
        <ele>64.7</ele>
        <time>2022-02-05T09:43:24Z</time>
      </trkpt>
      <trkpt lat="49.11387" lon="1.9409">
        <ele>65.1</ele>
        <time>2022-02-05T09:43:29Z</time>
      </trkpt>
      <trkpt lat="49.11391" lon="1.94098">
        <ele>65.7</ele>
        <time>2022-02-05T09:43:34Z</time>
      </trkpt>
      <trkpt lat="49.11396" lon="1.94107">
        <ele>66.8</ele>
        <time>2022-02-05T09:43:40Z</time>
      </trkpt>
      <trkpt lat="49.11398" lon="1.94112">
        <ele>67.4</ele>
        <time>2022-02-05T09:43:45Z</time>
      </trkpt>
      <trkpt lat="49.11401" lon="1.94121">
        <ele>68.1</ele>
        <time>2022-02-05T09:43:51Z</time>
      </trkpt>
      <trkpt lat="49.11404" lon="1.94131">
        <ele>68.8</ele>
        <time>2022-02-05T09:43:57Z</time>
      </trkpt>
      <trkpt lat="49.11407" lon="1.94143">
        <ele>69.5</ele>
        <time>2022-02-05T09:44:03Z</time>
      </trkpt>
      <trkpt lat="49.1141" lon="1.94152">
        <ele>69.9</ele>
        <time>2022-02-05T09:44:08Z</time>
      </trkpt>
      <trkpt lat="49.11412" lon="1.94162">
        <ele>70</ele>
        <time>2022-02-05T09:44:13Z</time>
      </trkpt>
      <trkpt lat="49.11413" lon="1.94174">
        <ele>69.8</ele>
        <time>2022-02-05T09:44:19Z</time>
      </trkpt>
      <trkpt lat="49.11414" lon="1.94186">
        <ele>69.6</ele>
        <time>2022-02-05T09:44:25Z</time>
      </trkpt>
      <trkpt lat="49.11416" lon="1.94197">
        <ele>69.7</ele>
        <time>2022-02-05T09:44:30Z</time>
      </trkpt>
      <trkpt lat="49.11419" lon="1.94213">
        <ele>70</ele>
        <time>2022-02-05T09:44:36Z</time>
      </trkpt>
      <trkpt lat="49.11421" lon="1.94229">
        <ele>70.1</ele>
        <time>2022-02-05T09:44:42Z</time>
      </trkpt>
      <trkpt lat="49.11423" lon="1.94242">
        <ele>70</ele>
        <time>2022-02-05T09:44:47Z</time>
      </trkpt>
      <trkpt lat="49.11425" lon="1.94253">
        <ele>69.8</ele>
        <time>2022-02-05T09:44:52Z</time>
      </trkpt>
      <trkpt lat="49.11426" lon="1.94263">
        <ele>69.4</ele>
        <time>2022-02-05T09:44:57Z</time>
      </trkpt>
      <trkpt lat="49.11428" lon="1.94274">
        <ele>69</ele>
        <time>2022-02-05T09:45:03Z</time>
      </trkpt>
      <trkpt lat="49.11429" lon="1.94285">
        <ele>68.6</ele>
        <time>2022-02-05T09:45:09Z</time>
      </trkpt>
      <trkpt lat="49.11431" lon="1.94295">
        <ele>68.4</ele>
        <time>2022-02-05T09:45:14Z</time>
      </trkpt>
      <trkpt lat="49.11433" lon="1.94306">
        <ele>68.1</ele>
        <time>2022-02-05T09:45:20Z</time>
      </trkpt>
      <trkpt lat="49.11435" lon="1.94316">
        <ele>67.9</ele>
        <time>2022-02-05T09:45:25Z</time>
      </trkpt>
      <trkpt lat="49.11437" lon="1.94327">
        <ele>67.6</ele>
        <time>2022-02-05T09:45:31Z</time>
      </trkpt>
      <trkpt lat="49.1144" lon="1.94339">
        <ele>67.3</ele>
        <time>2022-02-05T09:45:37Z</time>
      </trkpt>
      <trkpt lat="49.11442" lon="1.94349">
        <ele>66.7</ele>
        <time>2022-02-05T09:45:43Z</time>
      </trkpt>
      <trkpt lat="49.11445" lon="1.9436">
        <ele>66.2</ele>
        <time>2022-02-05T09:45:49Z</time>
      </trkpt>
      <trkpt lat="49.11447" lon="1.9437">
        <ele>65.9</ele>
        <time>2022-02-05T09:45:54Z</time>
      </trkpt>
      <trkpt lat="49.11451" lon="1.94381">
        <ele>65.5</ele>
        <time>2022-02-05T09:46:00Z</time>
      </trkpt>
      <trkpt lat="49.11454" lon="1.9439">
        <ele>65.3</ele>
        <time>2022-02-05T09:46:05Z</time>
      </trkpt>
      <trkpt lat="49.11457" lon="1.94401">
        <ele>65.2</ele>
        <time>2022-02-05T09:46:11Z</time>
      </trkpt>
      <trkpt lat="49.11461" lon="1.94412">
        <ele>65.1</ele>
        <time>2022-02-05T09:46:17Z</time>
      </trkpt>
      <trkpt lat="49.11465" lon="1.94421">
        <ele>64.8</ele>
        <time>2022-02-05T09:46:22Z</time>
      </trkpt>
      <trkpt lat="49.11468" lon="1.94431">
        <ele>64.1</ele>
        <time>2022-02-05T09:46:28Z</time>
      </trkpt>
      <trkpt lat="49.11472" lon="1.94441">
        <ele>63.5</ele>
        <time>2022-02-05T09:46:34Z</time>
      </trkpt>
      <trkpt lat="49.11475" lon="1.94449">
        <ele>63.2</ele>
        <time>2022-02-05T09:46:39Z</time>
      </trkpt>
      <trkpt lat="49.11478" lon="1.94458">
        <ele>63</ele>
        <time>2022-02-05T09:46:45Z</time>
      </trkpt>
      <trkpt lat="49.11482" lon="1.94468">
        <ele>62.7</ele>
        <time>2022-02-05T09:46:51Z</time>
      </trkpt>
      <trkpt lat="49.11484" lon="1.94475">
        <ele>62.3</ele>
        <time>2022-02-05T09:46:56Z</time>
      </trkpt>
      <trkpt lat="49.11486" lon="1.94484">
        <ele>61.8</ele>
        <time>2022-02-05T09:47:02Z</time>
      </trkpt>
      <trkpt lat="49.11489" lon="1.94492">
        <ele>61.3</ele>
        <time>2022-02-05T09:47:08Z</time>
      </trkpt>
      <trkpt lat="49.11491" lon="1.94499">
        <ele>60.8</ele>
        <time>2022-02-05T09:47:13Z</time>
      </trkpt>
      <trkpt lat="49.11495" lon="1.9451">
        <ele>60.3</ele>
        <time>2022-02-05T09:47:19Z</time>
      </trkpt>
      <trkpt lat="49.115" lon="1.9452">
        <ele>59.7</ele>
        <time>2022-02-05T09:47:25Z</time>
      </trkpt>
      <trkpt lat="49.11504" lon="1.94528">
        <ele>59.5</ele>
        <time>2022-02-05T09:47:30Z</time>
      </trkpt>
      <trkpt lat="49.11509" lon="1.94536">
        <ele>59.6</ele>
        <time>2022-02-05T09:47:35Z</time>
      </trkpt>
      <trkpt lat="49.11513" lon="1.94542">
        <ele>59.6</ele>
        <time>2022-02-05T09:47:41Z</time>
      </trkpt>
      <trkpt lat="49.11516" lon="1.94546">
        <ele>59.5</ele>
        <time>2022-02-05T09:47:46Z</time>
      </trkpt>
      <trkpt lat="49.11519" lon="1.94551">
        <ele>59.5</ele>
        <time>2022-02-05T09:47:51Z</time>
      </trkpt>
      <trkpt lat="49.11523" lon="1.94557">
        <ele>59.4</ele>
        <time>2022-02-05T09:47:57Z</time>
      </trkpt>
      <trkpt lat="49.11528" lon="1.94563">
        <ele>59.3</ele>
        <time>2022-02-05T09:48:03Z</time>
      </trkpt>
      <trkpt lat="49.11531" lon="1.94567">
        <ele>59.2</ele>
        <time>2022-02-05T09:48:08Z</time>
      </trkpt>
      <trkpt lat="49.11535" lon="1.94574">
        <ele>58.9</ele>
        <time>2022-02-05T09:48:14Z</time>
      </trkpt>
      <trkpt lat="49.1154" lon="1.94581">
        <ele>58.6</ele>
        <time>2022-02-05T09:48:20Z</time>
      </trkpt>
      <trkpt lat="49.11546" lon="1.94589">
        <ele>58.4</ele>
        <time>2022-02-05T09:48:25Z</time>
      </trkpt>
      <trkpt lat="49.1155" lon="1.94595">
        <ele>58.2</ele>
        <time>2022-02-05T09:48:30Z</time>
      </trkpt>
      <trkpt lat="49.11554" lon="1.946">
        <ele>58.1</ele>
        <time>2022-02-05T09:48:36Z</time>
      </trkpt>
      <trkpt lat="49.11559" lon="1.94605">
        <ele>58</ele>
        <time>2022-02-05T09:48:41Z</time>
      </trkpt>
      <trkpt lat="49.11563" lon="1.94609">
        <ele>58.1</ele>
        <time>2022-02-05T09:48:47Z</time>
      </trkpt>
      <trkpt lat="49.11567" lon="1.94613">
        <ele>58.1</ele>
        <time>2022-02-05T09:48:52Z</time>
      </trkpt>
      <trkpt lat="49.11572" lon="1.94618">
        <ele>58.1</ele>
        <time>2022-02-05T09:48:57Z</time>
      </trkpt>
      <trkpt lat="49.11578" lon="1.94626">
        <ele>58</ele>
        <time>2022-02-05T09:49:03Z</time>
      </trkpt>
      <trkpt lat="49.11584" lon="1.94632">
        <ele>57.8</ele>
        <time>2022-02-05T09:49:08Z</time>
      </trkpt>
      <trkpt lat="49.1159" lon="1.94639">
        <ele>57.4</ele>
        <time>2022-02-05T09:49:14Z</time>
      </trkpt>
      <trkpt lat="49.11595" lon="1.94644">
        <ele>57.4</ele>
        <time>2022-02-05T09:49:20Z</time>
      </trkpt>
      <trkpt lat="49.11602" lon="1.94647">
        <ele>57.6</ele>
        <time>2022-02-05T09:49:26Z</time>
      </trkpt>
      <trkpt lat="49.1161" lon="1.94646">
        <ele>58.1</ele>
        <time>2022-02-05T09:49:32Z</time>
      </trkpt>
      <trkpt lat="49.11617" lon="1.94646">
        <ele>58.6</ele>
        <time>2022-02-05T09:49:38Z</time>
      </trkpt>
      <trkpt lat="49.11624" lon="1.94645">
        <ele>59.2</ele>
        <time>2022-02-05T09:49:43Z</time>
      </trkpt>
      <trkpt lat="49.11631" lon="1.94645">
        <ele>59.7</ele>
        <time>2022-02-05T09:49:48Z</time>
      </trkpt>
      <trkpt lat="49.11639" lon="1.94645">
        <ele>60.1</ele>
        <time>2022-02-05T09:49:55Z</time>
      </trkpt>
      <trkpt lat="49.11647" lon="1.94646">
        <ele>61.1</ele>
        <time>2022-02-05T09:50:00Z</time>
      </trkpt>
      <trkpt lat="49.11656" lon="1.94649">
        <ele>61.9</ele>
        <time>2022-02-05T09:50:06Z</time>
      </trkpt>
      <trkpt lat="49.11664" lon="1.94652">
        <ele>62.3</ele>
        <time>2022-02-05T09:50:11Z</time>
      </trkpt>
      <trkpt lat="49.11674" lon="1.94656">
        <ele>63.2</ele>
        <time>2022-02-05T09:50:17Z</time>
      </trkpt>
      <trkpt lat="49.11683" lon="1.94658">
        <ele>64</ele>
        <time>2022-02-05T09:50:22Z</time>
      </trkpt>
      <trkpt lat="49.11692" lon="1.9466">
        <ele>65.1</ele>
        <time>2022-02-05T09:50:28Z</time>
      </trkpt>
      <trkpt lat="49.117" lon="1.94662">
        <ele>66</ele>
        <time>2022-02-05T09:50:33Z</time>
      </trkpt>
      <trkpt lat="49.11709" lon="1.94667">
        <ele>66.6</ele>
        <time>2022-02-05T09:50:39Z</time>
      </trkpt>
      <trkpt lat="49.11716" lon="1.94673">
        <ele>66.7</ele>
        <time>2022-02-05T09:50:44Z</time>
      </trkpt>
      <trkpt lat="49.11723" lon="1.9468">
        <ele>66.7</ele>
        <time>2022-02-05T09:50:50Z</time>
      </trkpt>
      <trkpt lat="49.11728" lon="1.94686">
        <ele>66.6</ele>
        <time>2022-02-05T09:50:55Z</time>
      </trkpt>
      <trkpt lat="49.11733" lon="1.94691">
        <ele>66.6</ele>
        <time>2022-02-05T09:51:00Z</time>
      </trkpt>
      <trkpt lat="49.11739" lon="1.94697">
        <ele>66.6</ele>
        <time>2022-02-05T09:51:06Z</time>
      </trkpt>
      <trkpt lat="49.11745" lon="1.94703">
        <ele>66.6</ele>
        <time>2022-02-05T09:51:11Z</time>
      </trkpt>
      <trkpt lat="49.11753" lon="1.94711">
        <ele>66.6</ele>
        <time>2022-02-05T09:51:17Z</time>
      </trkpt>
      <trkpt lat="49.11761" lon="1.94719">
        <ele>67</ele>
        <time>2022-02-05T09:51:23Z</time>
      </trkpt>
      <trkpt lat="49.11767" lon="1.94724">
        <ele>67.3</ele>
        <time>2022-02-05T09:51:28Z</time>
      </trkpt>
      <trkpt lat="49.11772" lon="1.9473">
        <ele>67.4</ele>
        <time>2022-02-05T09:51:34Z</time>
      </trkpt>
      <trkpt lat="49.11777" lon="1.94736">
        <ele>67.4</ele>
        <time>2022-02-05T09:51:40Z</time>
      </trkpt>
      <trkpt lat="49.11784" lon="1.94744">
        <ele>67.4</ele>
        <time>2022-02-05T09:51:46Z</time>
      </trkpt>
      <trkpt lat="49.1179" lon="1.9475">
        <ele>67.5</ele>
        <time>2022-02-05T09:51:51Z</time>
      </trkpt>
      <trkpt lat="49.11797" lon="1.94759">
        <ele>67.6</ele>
        <time>2022-02-05T09:51:57Z</time>
      </trkpt>
      <trkpt lat="49.11804" lon="1.94767">
        <ele>67.5</ele>
        <time>2022-02-05T09:52:03Z</time>
      </trkpt>
      <trkpt lat="49.11809" lon="1.94774">
        <ele>67.4</ele>
        <time>2022-02-05T09:52:08Z</time>
      </trkpt>
      <trkpt lat="49.11814" lon="1.94779">
        <ele>67.4</ele>
        <time>2022-02-05T09:52:14Z</time>
      </trkpt>
      <trkpt lat="49.1182" lon="1.94785">
        <ele>67.4</ele>
        <time>2022-02-05T09:52:20Z</time>
      </trkpt>
      <trkpt lat="49.11825" lon="1.94792">
        <ele>67.4</ele>
        <time>2022-02-05T09:52:25Z</time>
      </trkpt>
      <trkpt lat="49.11829" lon="1.94798">
        <ele>67.3</ele>
        <time>2022-02-05T09:52:30Z</time>
      </trkpt>
      <trkpt lat="49.11834" lon="1.94805">
        <ele>67.2</ele>
        <time>2022-02-05T09:52:35Z</time>
      </trkpt>
      <trkpt lat="49.1184" lon="1.94813">
        <ele>67.1</ele>
        <time>2022-02-05T09:52:41Z</time>
      </trkpt>
      <trkpt lat="49.11846" lon="1.9482">
        <ele>67.2</ele>
        <time>2022-02-05T09:52:47Z</time>
      </trkpt>
      <trkpt lat="49.11852" lon="1.94827">
        <ele>67.4</ele>
        <time>2022-02-05T09:52:53Z</time>
      </trkpt>
      <trkpt lat="49.11859" lon="1.94834">
        <ele>67.5</ele>
        <time>2022-02-05T09:52:59Z</time>
      </trkpt>
      <trkpt lat="49.11864" lon="1.94841">
        <ele>67.4</ele>
        <time>2022-02-05T09:53:05Z</time>
      </trkpt>
      <trkpt lat="49.11869" lon="1.94848">
        <ele>67.3</ele>
        <time>2022-02-05T09:53:10Z</time>
      </trkpt>
      <trkpt lat="49.11876" lon="1.94854">
        <ele>67.3</ele>
        <time>2022-02-05T09:53:16Z</time>
      </trkpt>
      <trkpt lat="49.1188" lon="1.94856">
        <ele>67.5</ele>
        <time>2022-02-05T09:53:21Z</time>
      </trkpt>
      <trkpt lat="49.11886" lon="1.94857">
        <ele>68.1</ele>
        <time>2022-02-05T09:53:27Z</time>
      </trkpt>
      <trkpt lat="49.11893" lon="1.94859">
        <ele>68.3</ele>
        <time>2022-02-05T09:53:32Z</time>
      </trkpt>
      <trkpt lat="49.119" lon="1.94862">
        <ele>68.3</ele>
        <time>2022-02-05T09:53:37Z</time>
      </trkpt>
      <trkpt lat="49.11908" lon="1.94864">
        <ele>68.3</ele>
        <time>2022-02-05T09:53:43Z</time>
      </trkpt>
      <trkpt lat="49.11915" lon="1.94863">
        <ele>68.7</ele>
        <time>2022-02-05T09:53:48Z</time>
      </trkpt>
      <trkpt lat="49.11923" lon="1.9486">
        <ele>68.4</ele>
        <time>2022-02-05T09:53:54Z</time>
      </trkpt>
      <trkpt lat="49.11929" lon="1.94856">
        <ele>68</ele>
        <time>2022-02-05T09:53:59Z</time>
      </trkpt>
      <trkpt lat="49.11938" lon="1.9485">
        <ele>67.5</ele>
        <time>2022-02-05T09:54:05Z</time>
      </trkpt>
      <trkpt lat="49.11948" lon="1.94839">
        <ele>66.9</ele>
        <time>2022-02-05T09:54:11Z</time>
      </trkpt>
      <trkpt lat="49.11952" lon="1.94832">
        <ele>66.5</ele>
        <time>2022-02-05T09:54:16Z</time>
      </trkpt>
      <trkpt lat="49.11956" lon="1.94824">
        <ele>66</ele>
        <time>2022-02-05T09:54:21Z</time>
      </trkpt>
      <trkpt lat="49.1196" lon="1.94813">
        <ele>65.7</ele>
        <time>2022-02-05T09:54:27Z</time>
      </trkpt>
      <trkpt lat="49.11961" lon="1.94799">
        <ele>66.1</ele>
        <time>2022-02-05T09:54:33Z</time>
      </trkpt>
      <trkpt lat="49.11963" lon="1.94788">
        <ele>66.3</ele>
        <time>2022-02-05T09:54:38Z</time>
      </trkpt>
      <trkpt lat="49.11965" lon="1.94776">
        <ele>66.1</ele>
        <time>2022-02-05T09:54:44Z</time>
      </trkpt>
      <trkpt lat="49.11968" lon="1.94763">
        <ele>65.7</ele>
        <time>2022-02-05T09:54:50Z</time>
      </trkpt>
      <trkpt lat="49.11973" lon="1.94752">
        <ele>64.7</ele>
        <time>2022-02-05T09:54:56Z</time>
      </trkpt>
      <trkpt lat="49.11977" lon="1.9474">
        <ele>64.5</ele>
        <time>2022-02-05T09:55:02Z</time>
      </trkpt>
      <trkpt lat="49.11979" lon="1.94733">
        <ele>64.3</ele>
        <time>2022-02-05T09:55:07Z</time>
      </trkpt>
      <trkpt lat="49.11981" lon="1.94725">
        <ele>64.2</ele>
        <time>2022-02-05T09:55:13Z</time>
      </trkpt>
      <trkpt lat="49.11984" lon="1.94716">
        <ele>64</ele>
        <time>2022-02-05T09:55:18Z</time>
      </trkpt>
      <trkpt lat="49.11987" lon="1.94707">
        <ele>63.5</ele>
        <time>2022-02-05T09:55:23Z</time>
      </trkpt>
      <trkpt lat="49.11992" lon="1.94696">
        <ele>62.6</ele>
        <time>2022-02-05T09:55:29Z</time>
      </trkpt>
      <trkpt lat="49.11994" lon="1.94687">
        <ele>62.3</ele>
        <time>2022-02-05T09:55:34Z</time>
      </trkpt>
      <trkpt lat="49.11997" lon="1.94675">
        <ele>62.2</ele>
        <time>2022-02-05T09:55:40Z</time>
      </trkpt>
      <trkpt lat="49.11999" lon="1.94663">
        <ele>62.5</ele>
        <time>2022-02-05T09:55:46Z</time>
      </trkpt>
      <trkpt lat="49.12001" lon="1.94652">
        <ele>62.9</ele>
        <time>2022-02-05T09:55:51Z</time>
      </trkpt>
      <trkpt lat="49.12004" lon="1.9464">
        <ele>63.2</ele>
        <time>2022-02-05T09:55:57Z</time>
      </trkpt>
      <trkpt lat="49.12007" lon="1.9463">
        <ele>63.4</ele>
        <time>2022-02-05T09:56:02Z</time>
      </trkpt>
      <trkpt lat="49.12011" lon="1.94617">
        <ele>63.7</ele>
        <time>2022-02-05T09:56:08Z</time>
      </trkpt>
      <trkpt lat="49.12014" lon="1.94607">
        <ele>63.6</ele>
        <time>2022-02-05T09:56:13Z</time>
      </trkpt>
      <trkpt lat="49.12017" lon="1.94598">
        <ele>63.2</ele>
        <time>2022-02-05T09:56:18Z</time>
      </trkpt>
      <trkpt lat="49.1202" lon="1.94585">
        <ele>62.8</ele>
        <time>2022-02-05T09:56:24Z</time>
      </trkpt>
      <trkpt lat="49.12023" lon="1.9458">
        <ele>62.3</ele>
        <time>2022-02-05T09:56:30Z</time>
      </trkpt>
      <trkpt lat="49.12024" lon="1.94577">
        <ele>62.3</ele>
        <time>2022-02-05T09:56:36Z</time>
      </trkpt>
      <trkpt lat="49.12025" lon="1.94577">
        <ele>62.2</ele>
        <time>2022-02-05T09:56:41Z</time>
      </trkpt>
      <trkpt lat="49.12025" lon="1.94576">
        <ele>62.2</ele>
        <time>2022-02-05T09:56:46Z</time>
      </trkpt>
      <trkpt lat="49.12025" lon="1.94576">
        <ele>62.2</ele>
        <time>2022-02-05T09:56:52Z</time>
      </trkpt>
      <trkpt lat="49.12025" lon="1.94577">
        <ele>62.2</ele>
        <time>2022-02-05T09:56:58Z</time>
      </trkpt>
      <trkpt lat="49.12025" lon="1.94578">
        <ele>62.2</ele>
        <time>2022-02-05T09:57:04Z</time>
      </trkpt>
      <trkpt lat="49.12025" lon="1.94578">
        <ele>62.2</ele>
        <time>2022-02-05T09:57:09Z</time>
      </trkpt>
      <trkpt lat="49.12024" lon="1.94579">
        <ele>62.2</ele>
        <time>2022-02-05T09:57:15Z</time>
      </trkpt>
      <trkpt lat="49.12027" lon="1.9459">
        <ele>61</ele>
        <time>2022-02-05T09:57:21Z</time>
      </trkpt>
      <trkpt lat="49.12029" lon="1.94599">
        <ele>60.3</ele>
        <time>2022-02-05T09:57:27Z</time>
      </trkpt>
      <trkpt lat="49.12032" lon="1.94614">
        <ele>59.3</ele>
        <time>2022-02-05T09:57:33Z</time>
      </trkpt>
      <trkpt lat="49.12034" lon="1.94627">
        <ele>58.3</ele>
        <time>2022-02-05T09:57:38Z</time>
      </trkpt>
      <trkpt lat="49.12038" lon="1.9464">
        <ele>57.6</ele>
        <time>2022-02-05T09:57:44Z</time>
      </trkpt>
      <trkpt lat="49.1204" lon="1.9465">
        <ele>57.1</ele>
        <time>2022-02-05T09:57:49Z</time>
      </trkpt>
      <trkpt lat="49.12044" lon="1.94663">
        <ele>56.5</ele>
        <time>2022-02-05T09:57:55Z</time>
      </trkpt>
      <trkpt lat="49.12048" lon="1.94672">
        <ele>56.1</ele>
        <time>2022-02-05T09:58:01Z</time>
      </trkpt>
      <trkpt lat="49.12052" lon="1.94681">
        <ele>55.6</ele>
        <time>2022-02-05T09:58:07Z</time>
      </trkpt>
      <trkpt lat="49.12057" lon="1.9469">
        <ele>55.1</ele>
        <time>2022-02-05T09:58:12Z</time>
      </trkpt>
      <trkpt lat="49.12063" lon="1.94701">
        <ele>54.7</ele>
        <time>2022-02-05T09:58:17Z</time>
      </trkpt>
      <trkpt lat="49.12071" lon="1.94711">
        <ele>54.1</ele>
        <time>2022-02-05T09:58:23Z</time>
      </trkpt>
      <trkpt lat="49.12078" lon="1.94718">
        <ele>53.5</ele>
        <time>2022-02-05T09:58:28Z</time>
      </trkpt>
      <trkpt lat="49.12085" lon="1.94724">
        <ele>53</ele>
        <time>2022-02-05T09:58:34Z</time>
      </trkpt>
      <trkpt lat="49.1209" lon="1.94731">
        <ele>53</ele>
        <time>2022-02-05T09:58:39Z</time>
      </trkpt>
      <trkpt lat="49.12096" lon="1.94741">
        <ele>53</ele>
        <time>2022-02-05T09:58:45Z</time>
      </trkpt>
      <trkpt lat="49.12102" lon="1.94752">
        <ele>53</ele>
        <time>2022-02-05T09:58:51Z</time>
      </trkpt>
      <trkpt lat="49.12109" lon="1.94763">
        <ele>53</ele>
        <time>2022-02-05T09:58:57Z</time>
      </trkpt>
      <trkpt lat="49.12112" lon="1.94773">
        <ele>53</ele>
        <time>2022-02-05T09:59:02Z</time>
      </trkpt>
      <trkpt lat="49.12116" lon="1.94782">
        <ele>53</ele>
        <time>2022-02-05T09:59:08Z</time>
      </trkpt>
      <trkpt lat="49.12117" lon="1.94785">
        <ele>53</ele>
        <time>2022-02-05T09:59:13Z</time>
      </trkpt>
      <trkpt lat="49.12119" lon="1.9479">
        <ele>53</ele>
        <time>2022-02-05T09:59:19Z</time>
      </trkpt>
      <trkpt lat="49.12122" lon="1.94796">
        <ele>53</ele>
        <time>2022-02-05T09:59:24Z</time>
      </trkpt>
      <trkpt lat="49.12128" lon="1.94806">
        <ele>53</ele>
        <time>2022-02-05T09:59:30Z</time>
      </trkpt>
      <trkpt lat="49.12136" lon="1.94815">
        <ele>53.3</ele>
        <time>2022-02-05T09:59:35Z</time>
      </trkpt>
      <trkpt lat="49.12145" lon="1.94826">
        <ele>53.9</ele>
        <time>2022-02-05T09:59:41Z</time>
      </trkpt>
      <trkpt lat="49.12152" lon="1.94835">
        <ele>54.5</ele>
        <time>2022-02-05T09:59:47Z</time>
      </trkpt>
      <trkpt lat="49.12156" lon="1.94842">
        <ele>54.8</ele>
        <time>2022-02-05T09:59:52Z</time>
      </trkpt>
      <trkpt lat="49.1216" lon="1.94854">
        <ele>55.3</ele>
        <time>2022-02-05T09:59:58Z</time>
      </trkpt>
      <trkpt lat="49.12162" lon="1.94863">
        <ele>55.7</ele>
        <time>2022-02-05T10:00:03Z</time>
      </trkpt>
      <trkpt lat="49.12164" lon="1.94872">
        <ele>55.8</ele>
        <time>2022-02-05T10:00:09Z</time>
      </trkpt>
      <trkpt lat="49.12167" lon="1.94872">
        <ele>56.1</ele>
        <time>2022-02-05T10:00:15Z</time>
      </trkpt>
      <trkpt lat="49.12173" lon="1.94877">
        <ele>56.9</ele>
        <time>2022-02-05T10:00:20Z</time>
      </trkpt>
      <trkpt lat="49.1218" lon="1.94886">
        <ele>57.5</ele>
        <time>2022-02-05T10:00:26Z</time>
      </trkpt>
      <trkpt lat="49.12185" lon="1.94896">
        <ele>57.8</ele>
        <time>2022-02-05T10:00:32Z</time>
      </trkpt>
      <trkpt lat="49.1219" lon="1.94902">
        <ele>58.1</ele>
        <time>2022-02-05T10:00:37Z</time>
      </trkpt>
      <trkpt lat="49.12193" lon="1.94905">
        <ele>58.3</ele>
        <time>2022-02-05T10:00:43Z</time>
      </trkpt>
      <trkpt lat="49.12199" lon="1.9491">
        <ele>58.8</ele>
        <time>2022-02-05T10:00:48Z</time>
      </trkpt>
      <trkpt lat="49.12205" lon="1.94916">
        <ele>59.3</ele>
        <time>2022-02-05T10:00:53Z</time>
      </trkpt>
      <trkpt lat="49.12212" lon="1.9492">
        <ele>59.8</ele>
        <time>2022-02-05T10:00:59Z</time>
      </trkpt>
      <trkpt lat="49.12218" lon="1.94924">
        <ele>60.3</ele>
        <time>2022-02-05T10:01:04Z</time>
      </trkpt>
      <trkpt lat="49.12226" lon="1.94925">
        <ele>60.9</ele>
        <time>2022-02-05T10:01:10Z</time>
      </trkpt>
      <trkpt lat="49.12233" lon="1.94924">
        <ele>61.3</ele>
        <time>2022-02-05T10:01:17Z</time>
      </trkpt>
      <trkpt lat="49.12242" lon="1.94921">
        <ele>62</ele>
        <time>2022-02-05T10:01:23Z</time>
      </trkpt>
      <trkpt lat="49.12251" lon="1.94915">
        <ele>63.1</ele>
        <time>2022-02-05T10:01:28Z</time>
      </trkpt>
      <trkpt lat="49.1226" lon="1.9491">
        <ele>63</ele>
        <time>2022-02-05T10:01:34Z</time>
      </trkpt>
      <trkpt lat="49.12267" lon="1.94905">
        <ele>63.1</ele>
        <time>2022-02-05T10:01:39Z</time>
      </trkpt>
      <trkpt lat="49.12276" lon="1.94896">
        <ele>63.3</ele>
        <time>2022-02-05T10:01:45Z</time>
      </trkpt>
      <trkpt lat="49.12282" lon="1.94889">
        <ele>63.6</ele>
        <time>2022-02-05T10:01:51Z</time>
      </trkpt>
      <trkpt lat="49.12289" lon="1.94884">
        <ele>63.6</ele>
        <time>2022-02-05T10:01:57Z</time>
      </trkpt>
      <trkpt lat="49.12297" lon="1.94877">
        <ele>63.3</ele>
        <time>2022-02-05T10:02:03Z</time>
      </trkpt>
      <trkpt lat="49.12302" lon="1.94872">
        <ele>63</ele>
        <time>2022-02-05T10:02:08Z</time>
      </trkpt>
      <trkpt lat="49.12309" lon="1.94867">
        <ele>62.4</ele>
        <time>2022-02-05T10:02:13Z</time>
      </trkpt>
      <trkpt lat="49.12318" lon="1.9486">
        <ele>61.8</ele>
        <time>2022-02-05T10:02:19Z</time>
      </trkpt>
      <trkpt lat="49.12324" lon="1.94853">
        <ele>61.5</ele>
        <time>2022-02-05T10:02:24Z</time>
      </trkpt>
      <trkpt lat="49.1233" lon="1.94849">
        <ele>60.9</ele>
        <time>2022-02-05T10:02:30Z</time>
      </trkpt>
      <trkpt lat="49.12338" lon="1.94846">
        <ele>60.1</ele>
        <time>2022-02-05T10:02:36Z</time>
      </trkpt>
      <trkpt lat="49.12347" lon="1.94843">
        <ele>59.5</ele>
        <time>2022-02-05T10:02:41Z</time>
      </trkpt>
      <trkpt lat="49.12355" lon="1.94843">
        <ele>58.8</ele>
        <time>2022-02-05T10:02:47Z</time>
      </trkpt>
      <trkpt lat="49.12363" lon="1.94844">
        <ele>58.2</ele>
        <time>2022-02-05T10:02:53Z</time>
      </trkpt>
      <trkpt lat="49.1237" lon="1.94846">
        <ele>57.7</ele>
        <time>2022-02-05T10:02:58Z</time>
      </trkpt>
      <trkpt lat="49.12378" lon="1.94852">
        <ele>57.1</ele>
        <time>2022-02-05T10:03:03Z</time>
      </trkpt>
      <trkpt lat="49.12384" lon="1.94856">
        <ele>56.5</ele>
        <time>2022-02-05T10:03:09Z</time>
      </trkpt>
      <trkpt lat="49.1239" lon="1.94862">
        <ele>55.9</ele>
        <time>2022-02-05T10:03:15Z</time>
      </trkpt>
      <trkpt lat="49.12398" lon="1.9487">
        <ele>55.5</ele>
        <time>2022-02-05T10:03:21Z</time>
      </trkpt>
      <trkpt lat="49.12405" lon="1.9488">
        <ele>55.1</ele>
        <time>2022-02-05T10:03:27Z</time>
      </trkpt>
      <trkpt lat="49.12413" lon="1.94891">
        <ele>54.9</ele>
        <time>2022-02-05T10:03:33Z</time>
      </trkpt>
      <trkpt lat="49.12418" lon="1.94899">
        <ele>54.6</ele>
        <time>2022-02-05T10:03:39Z</time>
      </trkpt>
      <trkpt lat="49.12422" lon="1.94906">
        <ele>54.3</ele>
        <time>2022-02-05T10:03:44Z</time>
      </trkpt>
      <trkpt lat="49.12427" lon="1.94913">
        <ele>54.1</ele>
        <time>2022-02-05T10:03:50Z</time>
      </trkpt>
      <trkpt lat="49.12433" lon="1.9492">
        <ele>53.8</ele>
        <time>2022-02-05T10:03:56Z</time>
      </trkpt>
      <trkpt lat="49.12438" lon="1.94925">
        <ele>53.6</ele>
        <time>2022-02-05T10:04:02Z</time>
      </trkpt>
      <trkpt lat="49.12439" lon="1.94926">
        <ele>53.6</ele>
        <time>2022-02-05T10:04:07Z</time>
      </trkpt>
      <trkpt lat="49.12442" lon="1.94928">
        <ele>53.6</ele>
        <time>2022-02-05T10:04:12Z</time>
      </trkpt>
      <trkpt lat="49.12444" lon="1.94934">
        <ele>53.4</ele>
        <time>2022-02-05T10:04:18Z</time>
      </trkpt>
      <trkpt lat="49.12448" lon="1.94941">
        <ele>53.1</ele>
        <time>2022-02-05T10:04:23Z</time>
      </trkpt>
      <trkpt lat="49.12456" lon="1.94951">
        <ele>52.9</ele>
        <time>2022-02-05T10:04:29Z</time>
      </trkpt>
      <trkpt lat="49.12462" lon="1.94957">
        <ele>52.8</ele>
        <time>2022-02-05T10:04:35Z</time>
      </trkpt>
      <trkpt lat="49.12469" lon="1.94962">
        <ele>52.9</ele>
        <time>2022-02-05T10:04:41Z</time>
      </trkpt>
      <trkpt lat="49.12477" lon="1.9497">
        <ele>53</ele>
        <time>2022-02-05T10:04:47Z</time>
      </trkpt>
      <trkpt lat="49.12482" lon="1.94974">
        <ele>53</ele>
        <time>2022-02-05T10:04:52Z</time>
      </trkpt>
      <trkpt lat="49.12489" lon="1.94981">
        <ele>52.9</ele>
        <time>2022-02-05T10:04:58Z</time>
      </trkpt>
      <trkpt lat="49.12497" lon="1.94989">
        <ele>52.9</ele>
        <time>2022-02-05T10:05:04Z</time>
      </trkpt>
      <trkpt lat="49.12501" lon="1.94993">
        <ele>53</ele>
        <time>2022-02-05T10:05:09Z</time>
      </trkpt>
      <trkpt lat="49.12507" lon="1.94999">
        <ele>53.3</ele>
        <time>2022-02-05T10:05:14Z</time>
      </trkpt>
      <trkpt lat="49.12515" lon="1.95006">
        <ele>53.6</ele>
        <time>2022-02-05T10:05:20Z</time>
      </trkpt>
      <trkpt lat="49.12524" lon="1.95014">
        <ele>53.8</ele>
        <time>2022-02-05T10:05:27Z</time>
      </trkpt>
      <trkpt lat="49.12531" lon="1.95021">
        <ele>54.1</ele>
        <time>2022-02-05T10:05:33Z</time>
      </trkpt>
      <trkpt lat="49.12536" lon="1.95025">
        <ele>54.3</ele>
        <time>2022-02-05T10:05:39Z</time>
      </trkpt>
      <trkpt lat="49.12541" lon="1.9503">
        <ele>54.5</ele>
        <time>2022-02-05T10:05:44Z</time>
      </trkpt>
      <trkpt lat="49.12545" lon="1.9504">
        <ele>54.9</ele>
        <time>2022-02-05T10:05:50Z</time>
      </trkpt>
      <trkpt lat="49.12547" lon="1.95048">
        <ele>55.2</ele>
        <time>2022-02-05T10:05:56Z</time>
      </trkpt>
      <trkpt lat="49.12549" lon="1.95057">
        <ele>55.6</ele>
        <time>2022-02-05T10:06:01Z</time>
      </trkpt>
      <trkpt lat="49.12549" lon="1.95068">
        <ele>56.1</ele>
        <time>2022-02-05T10:06:07Z</time>
      </trkpt>
      <trkpt lat="49.12548" lon="1.95077">
        <ele>56.5</ele>
        <time>2022-02-05T10:06:12Z</time>
      </trkpt>
      <trkpt lat="49.12548" lon="1.95087">
        <ele>57.1</ele>
        <time>2022-02-05T10:06:17Z</time>
      </trkpt>
      <trkpt lat="49.12548" lon="1.95099">
        <ele>58.2</ele>
        <time>2022-02-05T10:06:23Z</time>
      </trkpt>
      <trkpt lat="49.12548" lon="1.9511">
        <ele>59.3</ele>
        <time>2022-02-05T10:06:29Z</time>
      </trkpt>
      <trkpt lat="49.12548" lon="1.95116">
        <ele>59.9</ele>
        <time>2022-02-05T10:06:34Z</time>
      </trkpt>
      <trkpt lat="49.12548" lon="1.95124">
        <ele>60.6</ele>
        <time>2022-02-05T10:06:39Z</time>
      </trkpt>
      <trkpt lat="49.12547" lon="1.95135">
        <ele>61.4</ele>
        <time>2022-02-05T10:06:45Z</time>
      </trkpt>
      <trkpt lat="49.12545" lon="1.95147">
        <ele>62</ele>
        <time>2022-02-05T10:06:51Z</time>
      </trkpt>
      <trkpt lat="49.12545" lon="1.95153">
        <ele>62.4</ele>
        <time>2022-02-05T10:06:57Z</time>
      </trkpt>
      <trkpt lat="49.12543" lon="1.95158">
        <ele>62.6</ele>
        <time>2022-02-05T10:07:02Z</time>
      </trkpt>
      <trkpt lat="49.12543" lon="1.95164">
        <ele>63</ele>
        <time>2022-02-05T10:07:07Z</time>
      </trkpt>
      <trkpt lat="49.12545" lon="1.95171">
        <ele>63.9</ele>
        <time>2022-02-05T10:07:12Z</time>
      </trkpt>
      <trkpt lat="49.1255" lon="1.95179">
        <ele>65</ele>
        <time>2022-02-05T10:07:18Z</time>
      </trkpt>
      <trkpt lat="49.12555" lon="1.95183">
        <ele>66</ele>
        <time>2022-02-05T10:07:23Z</time>
      </trkpt>
      <trkpt lat="49.12563" lon="1.95184">
        <ele>67.8</ele>
        <time>2022-02-05T10:07:29Z</time>
      </trkpt>
      <trkpt lat="49.12571" lon="1.95183">
        <ele>69.5</ele>
        <time>2022-02-05T10:07:35Z</time>
      </trkpt>
      <trkpt lat="49.12573" lon="1.95186">
        <ele>70.3</ele>
        <time>2022-02-05T10:07:41Z</time>
      </trkpt>
      <trkpt lat="49.12576" lon="1.95194">
        <ele>71.3</ele>
        <time>2022-02-05T10:07:47Z</time>
      </trkpt>
      <trkpt lat="49.12577" lon="1.95203">
        <ele>72</ele>
        <time>2022-02-05T10:07:52Z</time>
      </trkpt>
      <trkpt lat="49.12577" lon="1.95214">
        <ele>72.7</ele>
        <time>2022-02-05T10:07:58Z</time>
      </trkpt>
      <trkpt lat="49.12578" lon="1.95223">
        <ele>73.3</ele>
        <time>2022-02-05T10:08:03Z</time>
      </trkpt>
      <trkpt lat="49.12577" lon="1.95234">
        <ele>74.1</ele>
        <time>2022-02-05T10:08:09Z</time>
      </trkpt>
      <trkpt lat="49.12576" lon="1.95243">
        <ele>74.7</ele>
        <time>2022-02-05T10:08:14Z</time>
      </trkpt>
      <trkpt lat="49.12574" lon="1.95254">
        <ele>75.3</ele>
        <time>2022-02-05T10:08:20Z</time>
      </trkpt>
      <trkpt lat="49.12571" lon="1.95264">
        <ele>76</ele>
        <time>2022-02-05T10:08:26Z</time>
      </trkpt>
      <trkpt lat="49.12568" lon="1.95275">
        <ele>76.7</ele>
        <time>2022-02-05T10:08:32Z</time>
      </trkpt>
      <trkpt lat="49.12566" lon="1.95286">
        <ele>77.4</ele>
        <time>2022-02-05T10:08:38Z</time>
      </trkpt>
      <trkpt lat="49.12563" lon="1.95295">
        <ele>77.9</ele>
        <time>2022-02-05T10:08:43Z</time>
      </trkpt>
      <trkpt lat="49.12561" lon="1.95304">
        <ele>78.5</ele>
        <time>2022-02-05T10:08:48Z</time>
      </trkpt>
      <trkpt lat="49.12559" lon="1.95315">
        <ele>79.1</ele>
        <time>2022-02-05T10:08:54Z</time>
      </trkpt>
      <trkpt lat="49.12557" lon="1.95326">
        <ele>79.7</ele>
        <time>2022-02-05T10:08:59Z</time>
      </trkpt>
      <trkpt lat="49.12558" lon="1.95338">
        <ele>80.7</ele>
        <time>2022-02-05T10:09:05Z</time>
      </trkpt>
      <trkpt lat="49.1256" lon="1.95349">
        <ele>82.1</ele>
        <time>2022-02-05T10:09:11Z</time>
      </trkpt>
      <trkpt lat="49.12564" lon="1.95359">
        <ele>83.4</ele>
        <time>2022-02-05T10:09:17Z</time>
      </trkpt>
      <trkpt lat="49.12567" lon="1.95368">
        <ele>84.2</ele>
        <time>2022-02-05T10:09:23Z</time>
      </trkpt>
      <trkpt lat="49.12569" lon="1.95377">
        <ele>84.8</ele>
        <time>2022-02-05T10:09:28Z</time>
      </trkpt>
      <trkpt lat="49.12569" lon="1.95388">
        <ele>85.4</ele>
        <time>2022-02-05T10:09:34Z</time>
      </trkpt>
      <trkpt lat="49.12568" lon="1.95398">
        <ele>85.6</ele>
        <time>2022-02-05T10:09:39Z</time>
      </trkpt>
      <trkpt lat="49.12569" lon="1.9541">
        <ele>86.2</ele>
        <time>2022-02-05T10:09:45Z</time>
      </trkpt>
      <trkpt lat="49.1257" lon="1.95419">
        <ele>86.6</ele>
        <time>2022-02-05T10:09:50Z</time>
      </trkpt>
      <trkpt lat="49.12572" lon="1.95429">
        <ele>86.8</ele>
        <time>2022-02-05T10:09:56Z</time>
      </trkpt>
      <trkpt lat="49.12574" lon="1.95439">
        <ele>87.2</ele>
        <time>2022-02-05T10:10:02Z</time>
      </trkpt>
      <trkpt lat="49.12575" lon="1.95447">
        <ele>87.5</ele>
        <time>2022-02-05T10:10:07Z</time>
      </trkpt>
      <trkpt lat="49.12577" lon="1.95457">
        <ele>88.1</ele>
        <time>2022-02-05T10:10:12Z</time>
      </trkpt>
      <trkpt lat="49.12581" lon="1.9547">
        <ele>89.3</ele>
        <time>2022-02-05T10:10:18Z</time>
      </trkpt>
      <trkpt lat="49.12589" lon="1.95479">
        <ele>90.2</ele>
        <time>2022-02-05T10:10:23Z</time>
      </trkpt>
      <trkpt lat="49.12591" lon="1.95487">
        <ele>90.2</ele>
        <time>2022-02-05T10:10:28Z</time>
      </trkpt>
      <trkpt lat="49.12595" lon="1.95492">
        <ele>90.5</ele>
        <time>2022-02-05T10:10:34Z</time>
      </trkpt>
      <trkpt lat="49.12596" lon="1.95492">
        <ele>90.5</ele>
        <time>2022-02-05T10:10:40Z</time>
      </trkpt>
      <trkpt lat="49.12596" lon="1.95491">
        <ele>90.6</ele>
        <time>2022-02-05T10:10:45Z</time>
      </trkpt>
      <trkpt lat="49.12597" lon="1.95491">
        <ele>90.6</ele>
        <time>2022-02-05T10:10:51Z</time>
      </trkpt>
      <trkpt lat="49.12597" lon="1.95491">
        <ele>90.6</ele>
        <time>2022-02-05T10:10:56Z</time>
      </trkpt>
      <trkpt lat="49.12597" lon="1.95492">
        <ele>90.6</ele>
        <time>2022-02-05T10:11:02Z</time>
      </trkpt>
      <trkpt lat="49.12597" lon="1.95493">
        <ele>90.6</ele>
        <time>2022-02-05T10:11:08Z</time>
      </trkpt>
      <trkpt lat="49.12596" lon="1.95493">
        <ele>90.5</ele>
        <time>2022-02-05T10:11:13Z</time>
      </trkpt>
      <trkpt lat="49.12596" lon="1.95493">
        <ele>90.5</ele>
        <time>2022-02-05T10:11:19Z</time>
      </trkpt>
      <trkpt lat="49.12596" lon="1.95494">
        <ele>90.5</ele>
        <time>2022-02-05T10:11:25Z</time>
      </trkpt>
      <trkpt lat="49.12596" lon="1.95494">
        <ele>90.5</ele>
        <time>2022-02-05T10:11:32Z</time>
      </trkpt>
      <trkpt lat="49.12596" lon="1.95494">
        <ele>90.5</ele>
        <time>2022-02-05T10:11:37Z</time>
      </trkpt>
      <trkpt lat="49.12597" lon="1.95494">
        <ele>90.6</ele>
        <time>2022-02-05T10:11:43Z</time>
      </trkpt>
      <trkpt lat="49.12597" lon="1.95494">
        <ele>90.6</ele>
        <time>2022-02-05T10:11:48Z</time>
      </trkpt>
      <trkpt lat="49.12596" lon="1.95493">
        <ele>90.5</ele>
        <time>2022-02-05T10:11:53Z</time>
      </trkpt>
      <trkpt lat="49.12597" lon="1.95492">
        <ele>90.6</ele>
        <time>2022-02-05T10:11:59Z</time>
      </trkpt>
      <trkpt lat="49.12597" lon="1.95491">
        <ele>90.7</ele>
        <time>2022-02-05T10:12:05Z</time>
      </trkpt>
      <trkpt lat="49.12598" lon="1.95491">
        <ele>90.7</ele>
        <time>2022-02-05T10:12:10Z</time>
      </trkpt>
      <trkpt lat="49.12598" lon="1.95491">
        <ele>90.7</ele>
        <time>2022-02-05T10:12:16Z</time>
      </trkpt>
      <trkpt lat="49.12598" lon="1.95491">
        <ele>90.7</ele>
        <time>2022-02-05T10:12:22Z</time>
      </trkpt>
      <trkpt lat="49.12598" lon="1.95491">
        <ele>90.7</ele>
        <time>2022-02-05T10:12:28Z</time>
      </trkpt>
      <trkpt lat="49.12597" lon="1.9549">
        <ele>90.7</ele>
        <time>2022-02-05T10:12:33Z</time>
      </trkpt>
      <trkpt lat="49.12598" lon="1.9549">
        <ele>90.7</ele>
        <time>2022-02-05T10:12:39Z</time>
      </trkpt>
      <trkpt lat="49.12597" lon="1.9549">
        <ele>90.7</ele>
        <time>2022-02-05T10:12:44Z</time>
      </trkpt>
      <trkpt lat="49.12597" lon="1.9549">
        <ele>90.7</ele>
        <time>2022-02-05T10:12:50Z</time>
      </trkpt>
      <trkpt lat="49.12597" lon="1.95489">
        <ele>90.7</ele>
        <time>2022-02-05T10:12:56Z</time>
      </trkpt>
      <trkpt lat="49.12598" lon="1.95489">
        <ele>90.8</ele>
        <time>2022-02-05T10:13:02Z</time>
      </trkpt>
      <trkpt lat="49.12598" lon="1.95489">
        <ele>90.7</ele>
        <time>2022-02-05T10:13:07Z</time>
      </trkpt>
      <trkpt lat="49.12597" lon="1.95489">
        <ele>90.7</ele>
        <time>2022-02-05T10:13:13Z</time>
      </trkpt>
      <trkpt lat="49.12597" lon="1.9549">
        <ele>90.7</ele>
        <time>2022-02-05T10:13:19Z</time>
      </trkpt>
      <trkpt lat="49.12597" lon="1.9549">
        <ele>90.7</ele>
        <time>2022-02-05T10:13:24Z</time>
      </trkpt>
      <trkpt lat="49.12598" lon="1.95491">
        <ele>90.7</ele>
        <time>2022-02-05T10:13:29Z</time>
      </trkpt>
      <trkpt lat="49.12598" lon="1.95491">
        <ele>90.7</ele>
        <time>2022-02-05T10:13:35Z</time>
      </trkpt>
      <trkpt lat="49.12598" lon="1.95491">
        <ele>90.7</ele>
        <time>2022-02-05T10:13:40Z</time>
      </trkpt>
      <trkpt lat="49.12598" lon="1.95491">
        <ele>90.7</ele>
        <time>2022-02-05T10:13:46Z</time>
      </trkpt>
      <trkpt lat="49.12598" lon="1.95491">
        <ele>90.7</ele>
        <time>2022-02-05T10:13:51Z</time>
      </trkpt>
      <trkpt lat="49.12598" lon="1.9549">
        <ele>90.7</ele>
        <time>2022-02-05T10:13:57Z</time>
      </trkpt>
      <trkpt lat="49.12598" lon="1.9549">
        <ele>90.8</ele>
        <time>2022-02-05T10:14:03Z</time>
      </trkpt>
      <trkpt lat="49.12599" lon="1.9549">
        <ele>90.8</ele>
        <time>2022-02-05T10:14:09Z</time>
      </trkpt>
      <trkpt lat="49.12599" lon="1.9549">
        <ele>90.8</ele>
        <time>2022-02-05T10:14:15Z</time>
      </trkpt>
      <trkpt lat="49.12599" lon="1.95489">
        <ele>90.8</ele>
        <time>2022-02-05T10:14:21Z</time>
      </trkpt>
      <trkpt lat="49.12599" lon="1.95489">
        <ele>90.8</ele>
        <time>2022-02-05T10:14:26Z</time>
      </trkpt>
      <trkpt lat="49.12597" lon="1.95487">
        <ele>90.7</ele>
        <time>2022-02-05T10:14:32Z</time>
      </trkpt>
      <trkpt lat="49.12597" lon="1.95487">
        <ele>90.7</ele>
        <time>2022-02-05T10:14:38Z</time>
      </trkpt>
      <trkpt lat="49.12597" lon="1.95487">
        <ele>90.7</ele>
        <time>2022-02-05T10:14:43Z</time>
      </trkpt>
      <trkpt lat="49.12598" lon="1.95488">
        <ele>90.8</ele>
        <time>2022-02-05T10:14:48Z</time>
      </trkpt>
      <trkpt lat="49.12598" lon="1.95488">
        <ele>90.8</ele>
        <time>2022-02-05T10:14:54Z</time>
      </trkpt>
      <trkpt lat="49.12597" lon="1.95487">
        <ele>90.7</ele>
        <time>2022-02-05T10:15:00Z</time>
      </trkpt>
      <trkpt lat="49.12597" lon="1.95488">
        <ele>90.7</ele>
        <time>2022-02-05T10:15:06Z</time>
      </trkpt>
      <trkpt lat="49.12597" lon="1.95488">
        <ele>90.7</ele>
        <time>2022-02-05T10:15:11Z</time>
      </trkpt>
      <trkpt lat="49.12598" lon="1.95489">
        <ele>90.7</ele>
        <time>2022-02-05T10:15:17Z</time>
      </trkpt>
      <trkpt lat="49.12598" lon="1.95489">
        <ele>90.7</ele>
        <time>2022-02-05T10:15:23Z</time>
      </trkpt>
      <trkpt lat="49.12597" lon="1.95489">
        <ele>90.7</ele>
        <time>2022-02-05T10:15:29Z</time>
      </trkpt>
      <trkpt lat="49.12597" lon="1.95489">
        <ele>90.7</ele>
        <time>2022-02-05T10:15:34Z</time>
      </trkpt>
      <trkpt lat="49.12597" lon="1.95488">
        <ele>90.7</ele>
        <time>2022-02-05T10:15:40Z</time>
      </trkpt>
      <trkpt lat="49.12597" lon="1.95488">
        <ele>90.7</ele>
        <time>2022-02-05T10:15:45Z</time>
      </trkpt>
      <trkpt lat="49.12597" lon="1.95488">
        <ele>90.7</ele>
        <time>2022-02-05T10:15:51Z</time>
      </trkpt>
      <trkpt lat="49.12597" lon="1.95489">
        <ele>90.7</ele>
        <time>2022-02-05T10:15:56Z</time>
      </trkpt>
      <trkpt lat="49.12598" lon="1.95489">
        <ele>90.7</ele>
        <time>2022-02-05T10:16:02Z</time>
      </trkpt>
      <trkpt lat="49.12598" lon="1.95489">
        <ele>90.8</ele>
        <time>2022-02-05T10:16:07Z</time>
      </trkpt>
      <trkpt lat="49.12598" lon="1.95489">
        <ele>90.8</ele>
        <time>2022-02-05T10:16:13Z</time>
      </trkpt>
      <trkpt lat="49.12599" lon="1.95489">
        <ele>90.8</ele>
        <time>2022-02-05T10:16:18Z</time>
      </trkpt>
      <trkpt lat="49.12599" lon="1.95488">
        <ele>90.9</ele>
        <time>2022-02-05T10:16:24Z</time>
      </trkpt>
      <trkpt lat="49.12599" lon="1.95488">
        <ele>90.9</ele>
        <time>2022-02-05T10:16:30Z</time>
      </trkpt>
      <trkpt lat="49.12599" lon="1.95488">
        <ele>90.8</ele>
        <time>2022-02-05T10:16:36Z</time>
      </trkpt>
      <trkpt lat="49.12598" lon="1.95489">
        <ele>90.8</ele>
        <time>2022-02-05T10:16:41Z</time>
      </trkpt>
      <trkpt lat="49.12598" lon="1.95489">
        <ele>90.8</ele>
        <time>2022-02-05T10:16:46Z</time>
      </trkpt>
      <trkpt lat="49.12598" lon="1.9549">
        <ele>90.8</ele>
        <time>2022-02-05T10:16:51Z</time>
      </trkpt>
      <trkpt lat="49.12598" lon="1.9549">
        <ele>90.8</ele>
        <time>2022-02-05T10:16:57Z</time>
      </trkpt>
      <trkpt lat="49.12598" lon="1.9549">
        <ele>90.8</ele>
        <time>2022-02-05T10:17:02Z</time>
      </trkpt>
      <trkpt lat="49.12598" lon="1.95489">
        <ele>90.8</ele>
        <time>2022-02-05T10:17:08Z</time>
      </trkpt>
      <trkpt lat="49.12598" lon="1.95489">
        <ele>90.8</ele>
        <time>2022-02-05T10:17:13Z</time>
      </trkpt>
      <trkpt lat="49.12598" lon="1.95489">
        <ele>90.8</ele>
        <time>2022-02-05T10:17:19Z</time>
      </trkpt>
      <trkpt lat="49.12598" lon="1.95489">
        <ele>90.7</ele>
        <time>2022-02-05T10:17:24Z</time>
      </trkpt>
      <trkpt lat="49.12598" lon="1.95489">
        <ele>90.7</ele>
        <time>2022-02-05T10:17:30Z</time>
      </trkpt>
      <trkpt lat="49.12598" lon="1.95489">
        <ele>90.7</ele>
        <time>2022-02-05T10:17:35Z</time>
      </trkpt>
      <trkpt lat="49.12597" lon="1.95489">
        <ele>90.7</ele>
        <time>2022-02-05T10:17:41Z</time>
      </trkpt>
      <trkpt lat="49.12597" lon="1.9549">
        <ele>90.7</ele>
        <time>2022-02-05T10:17:46Z</time>
      </trkpt>
      <trkpt lat="49.12597" lon="1.95489">
        <ele>90.7</ele>
        <time>2022-02-05T10:17:52Z</time>
      </trkpt>
      <trkpt lat="49.12597" lon="1.95489">
        <ele>90.6</ele>
        <time>2022-02-05T10:17:57Z</time>
      </trkpt>
      <trkpt lat="49.12596" lon="1.95488">
        <ele>90.6</ele>
        <time>2022-02-05T10:18:03Z</time>
      </trkpt>
      <trkpt lat="49.12596" lon="1.95489">
        <ele>90.6</ele>
        <time>2022-02-05T10:18:08Z</time>
      </trkpt>
      <trkpt lat="49.12596" lon="1.95489">
        <ele>90.6</ele>
        <time>2022-02-05T10:18:13Z</time>
      </trkpt>
      <trkpt lat="49.12596" lon="1.95488">
        <ele>90.6</ele>
        <time>2022-02-05T10:18:19Z</time>
      </trkpt>
      <trkpt lat="49.12596" lon="1.95488">
        <ele>90.6</ele>
        <time>2022-02-05T10:18:24Z</time>
      </trkpt>
      <trkpt lat="49.12595" lon="1.95494">
        <ele>90.4</ele>
        <time>2022-02-05T10:18:30Z</time>
      </trkpt>
      <trkpt lat="49.12596" lon="1.95505">
        <ele>90.2</ele>
        <time>2022-02-05T10:18:35Z</time>
      </trkpt>
      <trkpt lat="49.12597" lon="1.95518">
        <ele>89.8</ele>
        <time>2022-02-05T10:18:41Z</time>
      </trkpt>
      <trkpt lat="49.12598" lon="1.95529">
        <ele>89.5</ele>
        <time>2022-02-05T10:18:47Z</time>
      </trkpt>
      <trkpt lat="49.12599" lon="1.9554">
        <ele>89.3</ele>
        <time>2022-02-05T10:18:53Z</time>
      </trkpt>
      <trkpt lat="49.12602" lon="1.95553">
        <ele>89.3</ele>
        <time>2022-02-05T10:18:59Z</time>
      </trkpt>
      <trkpt lat="49.12606" lon="1.95562">
        <ele>89.8</ele>
        <time>2022-02-05T10:19:04Z</time>
      </trkpt>
      <trkpt lat="49.12606" lon="1.95573">
        <ele>89.3</ele>
        <time>2022-02-05T10:19:10Z</time>
      </trkpt>
      <trkpt lat="49.12605" lon="1.95585">
        <ele>88.8</ele>
        <time>2022-02-05T10:19:16Z</time>
      </trkpt>
      <trkpt lat="49.12607" lon="1.95593">
        <ele>88.9</ele>
        <time>2022-02-05T10:19:21Z</time>
      </trkpt>
      <trkpt lat="49.1261" lon="1.95609">
        <ele>89.6</ele>
        <time>2022-02-05T10:19:27Z</time>
      </trkpt>
      <trkpt lat="49.12611" lon="1.95626">
        <ele>89.4</ele>
        <time>2022-02-05T10:19:33Z</time>
      </trkpt>
      <trkpt lat="49.12614" lon="1.95641">
        <ele>89.3</ele>
        <time>2022-02-05T10:19:39Z</time>
      </trkpt>
      <trkpt lat="49.12616" lon="1.95653">
        <ele>89.4</ele>
        <time>2022-02-05T10:19:44Z</time>
      </trkpt>
      <trkpt lat="49.12616" lon="1.95662">
        <ele>89.4</ele>
        <time>2022-02-05T10:19:50Z</time>
      </trkpt>
      <trkpt lat="49.12617" lon="1.95665">
        <ele>89.4</ele>
        <time>2022-02-05T10:19:55Z</time>
      </trkpt>
      <trkpt lat="49.12616" lon="1.95667">
        <ele>89.4</ele>
        <time>2022-02-05T10:20:01Z</time>
      </trkpt>
      <trkpt lat="49.12617" lon="1.95671">
        <ele>89.3</ele>
        <time>2022-02-05T10:20:06Z</time>
      </trkpt>
      <trkpt lat="49.12619" lon="1.95683">
        <ele>89.2</ele>
        <time>2022-02-05T10:20:12Z</time>
      </trkpt>
      <trkpt lat="49.12621" lon="1.95699">
        <ele>89</ele>
        <time>2022-02-05T10:20:18Z</time>
      </trkpt>
      <trkpt lat="49.12622" lon="1.95713">
        <ele>89.2</ele>
        <time>2022-02-05T10:20:24Z</time>
      </trkpt>
      <trkpt lat="49.12622" lon="1.95727">
        <ele>89.2</ele>
        <time>2022-02-05T10:20:30Z</time>
      </trkpt>
      <trkpt lat="49.12622" lon="1.95738">
        <ele>89.2</ele>
        <time>2022-02-05T10:20:35Z</time>
      </trkpt>
      <trkpt lat="49.12621" lon="1.95749">
        <ele>89</ele>
        <time>2022-02-05T10:20:40Z</time>
      </trkpt>
      <trkpt lat="49.12621" lon="1.95757">
        <ele>89</ele>
        <time>2022-02-05T10:20:45Z</time>
      </trkpt>
      <trkpt lat="49.12618" lon="1.95773">
        <ele>88.7</ele>
        <time>2022-02-05T10:20:51Z</time>
      </trkpt>
      <trkpt lat="49.12615" lon="1.95783">
        <ele>88.4</ele>
        <time>2022-02-05T10:20:56Z</time>
      </trkpt>
      <trkpt lat="49.12611" lon="1.95794">
        <ele>88</ele>
        <time>2022-02-05T10:21:01Z</time>
      </trkpt>
      <trkpt lat="49.12607" lon="1.95811">
        <ele>87.2</ele>
        <time>2022-02-05T10:21:07Z</time>
      </trkpt>
      <trkpt lat="49.12604" lon="1.95825">
        <ele>86.8</ele>
        <time>2022-02-05T10:21:13Z</time>
      </trkpt>
      <trkpt lat="49.12605" lon="1.95837">
        <ele>86.7</ele>
        <time>2022-02-05T10:21:18Z</time>
      </trkpt>
      <trkpt lat="49.12604" lon="1.95847">
        <ele>86.1</ele>
        <time>2022-02-05T10:21:24Z</time>
      </trkpt>
      <trkpt lat="49.12602" lon="1.95858">
        <ele>85.5</ele>
        <time>2022-02-05T10:21:29Z</time>
      </trkpt>
      <trkpt lat="49.12602" lon="1.95869">
        <ele>85.4</ele>
        <time>2022-02-05T10:21:35Z</time>
      </trkpt>
      <trkpt lat="49.12604" lon="1.95878">
        <ele>85.7</ele>
        <time>2022-02-05T10:21:40Z</time>
      </trkpt>
      <trkpt lat="49.12606" lon="1.95889">
        <ele>86.1</ele>
        <time>2022-02-05T10:21:46Z</time>
      </trkpt>
      <trkpt lat="49.12608" lon="1.95897">
        <ele>86</ele>
        <time>2022-02-05T10:21:51Z</time>
      </trkpt>
      <trkpt lat="49.12608" lon="1.95907">
        <ele>85.7</ele>
        <time>2022-02-05T10:21:57Z</time>
      </trkpt>
      <trkpt lat="49.12609" lon="1.95922">
        <ele>85.3</ele>
        <time>2022-02-05T10:22:03Z</time>
      </trkpt>
      <trkpt lat="49.12611" lon="1.95932">
        <ele>85.4</ele>
        <time>2022-02-05T10:22:08Z</time>
      </trkpt>
      <trkpt lat="49.12613" lon="1.95939">
        <ele>85.4</ele>
        <time>2022-02-05T10:22:14Z</time>
      </trkpt>
      <trkpt lat="49.12615" lon="1.95946">
        <ele>85.3</ele>
        <time>2022-02-05T10:22:20Z</time>
      </trkpt>
      <trkpt lat="49.12617" lon="1.95956">
        <ele>85.3</ele>
        <time>2022-02-05T10:22:26Z</time>
      </trkpt>
      <trkpt lat="49.1262" lon="1.95964">
        <ele>85.2</ele>
        <time>2022-02-05T10:22:31Z</time>
      </trkpt>
      <trkpt lat="49.12623" lon="1.95975">
        <ele>85.2</ele>
        <time>2022-02-05T10:22:37Z</time>
      </trkpt>
      <trkpt lat="49.12625" lon="1.95986">
        <ele>85</ele>
        <time>2022-02-05T10:22:42Z</time>
      </trkpt>
      <trkpt lat="49.12627" lon="1.96002">
        <ele>84.7</ele>
        <time>2022-02-05T10:22:47Z</time>
      </trkpt>
      <trkpt lat="49.12627" lon="1.96021">
        <ele>84.7</ele>
        <time>2022-02-05T10:22:53Z</time>
      </trkpt>
      <trkpt lat="49.12629" lon="1.96038">
        <ele>84.7</ele>
        <time>2022-02-05T10:22:59Z</time>
      </trkpt>
      <trkpt lat="49.12631" lon="1.96052">
        <ele>84.5</ele>
        <time>2022-02-05T10:23:04Z</time>
      </trkpt>
      <trkpt lat="49.12632" lon="1.96065">
        <ele>84.7</ele>
        <time>2022-02-05T10:23:09Z</time>
      </trkpt>
      <trkpt lat="49.12632" lon="1.9608">
        <ele>84.9</ele>
        <time>2022-02-05T10:23:15Z</time>
      </trkpt>
      <trkpt lat="49.12629" lon="1.9609">
        <ele>85.2</ele>
        <time>2022-02-05T10:23:20Z</time>
      </trkpt>
      <trkpt lat="49.12623" lon="1.96095">
        <ele>85.5</ele>
        <time>2022-02-05T10:23:26Z</time>
      </trkpt>
      <trkpt lat="49.12616" lon="1.96093">
        <ele>85.6</ele>
        <time>2022-02-05T10:23:32Z</time>
      </trkpt>
      <trkpt lat="49.12608" lon="1.96088">
        <ele>85.6</ele>
        <time>2022-02-05T10:23:38Z</time>
      </trkpt>
      <trkpt lat="49.12602" lon="1.96081">
        <ele>85.8</ele>
        <time>2022-02-05T10:23:43Z</time>
      </trkpt>
      <trkpt lat="49.12595" lon="1.96073">
        <ele>86.2</ele>
        <time>2022-02-05T10:23:49Z</time>
      </trkpt>
      <trkpt lat="49.12588" lon="1.96064">
        <ele>86.7</ele>
        <time>2022-02-05T10:23:55Z</time>
      </trkpt>
      <trkpt lat="49.12582" lon="1.96056">
        <ele>87.1</ele>
        <time>2022-02-05T10:24:01Z</time>
      </trkpt>
      <trkpt lat="49.12578" lon="1.96053">
        <ele>87</ele>
        <time>2022-02-05T10:24:06Z</time>
      </trkpt>
      <trkpt lat="49.12574" lon="1.9605">
        <ele>87</ele>
        <time>2022-02-05T10:24:11Z</time>
      </trkpt>
      <trkpt lat="49.12567" lon="1.96047">
        <ele>87.3</ele>
        <time>2022-02-05T10:24:17Z</time>
      </trkpt>
      <trkpt lat="49.12561" lon="1.96045">
        <ele>87.7</ele>
        <time>2022-02-05T10:24:23Z</time>
      </trkpt>
      <trkpt lat="49.12554" lon="1.96041">
        <ele>88.2</ele>
        <time>2022-02-05T10:24:29Z</time>
      </trkpt>
      <trkpt lat="49.12549" lon="1.96037">
        <ele>88.6</ele>
        <time>2022-02-05T10:24:34Z</time>
      </trkpt>
      <trkpt lat="49.12542" lon="1.96029">
        <ele>89</ele>
        <time>2022-02-05T10:24:40Z</time>
      </trkpt>
      <trkpt lat="49.12536" lon="1.96019">
        <ele>88.7</ele>
        <time>2022-02-05T10:24:45Z</time>
      </trkpt>
      <trkpt lat="49.12528" lon="1.96007">
        <ele>88.6</ele>
        <time>2022-02-05T10:24:50Z</time>
      </trkpt>
      <trkpt lat="49.1252" lon="1.95993">
        <ele>88.7</ele>
        <time>2022-02-05T10:24:56Z</time>
      </trkpt>
      <trkpt lat="49.12514" lon="1.95982">
        <ele>88.9</ele>
        <time>2022-02-05T10:25:01Z</time>
      </trkpt>
      <trkpt lat="49.12508" lon="1.95973">
        <ele>89.3</ele>
        <time>2022-02-05T10:25:06Z</time>
      </trkpt>
      <trkpt lat="49.12502" lon="1.95961">
        <ele>89.4</ele>
        <time>2022-02-05T10:25:12Z</time>
      </trkpt>
      <trkpt lat="49.12495" lon="1.95951">
        <ele>89.5</ele>
        <time>2022-02-05T10:25:18Z</time>
      </trkpt>
      <trkpt lat="49.1249" lon="1.95942">
        <ele>89.7</ele>
        <time>2022-02-05T10:25:23Z</time>
      </trkpt>
      <trkpt lat="49.12483" lon="1.95933">
        <ele>90.3</ele>
        <time>2022-02-05T10:25:28Z</time>
      </trkpt>
      <trkpt lat="49.12476" lon="1.95923">
        <ele>91.4</ele>
        <time>2022-02-05T10:25:34Z</time>
      </trkpt>
      <trkpt lat="49.1247" lon="1.95915">
        <ele>92.1</ele>
        <time>2022-02-05T10:25:39Z</time>
      </trkpt>
      <trkpt lat="49.12463" lon="1.95908">
        <ele>92.2</ele>
        <time>2022-02-05T10:25:44Z</time>
      </trkpt>
      <trkpt lat="49.12455" lon="1.95899">
        <ele>92.4</ele>
        <time>2022-02-05T10:25:50Z</time>
      </trkpt>
      <trkpt lat="49.12448" lon="1.95892">
        <ele>92.7</ele>
        <time>2022-02-05T10:25:55Z</time>
      </trkpt>
      <trkpt lat="49.1244" lon="1.95885">
        <ele>93.1</ele>
        <time>2022-02-05T10:26:01Z</time>
      </trkpt>
      <trkpt lat="49.12433" lon="1.95879">
        <ele>93.4</ele>
        <time>2022-02-05T10:26:06Z</time>
      </trkpt>
      <trkpt lat="49.12426" lon="1.95872">
        <ele>93.7</ele>
        <time>2022-02-05T10:26:11Z</time>
      </trkpt>
      <trkpt lat="49.12417" lon="1.95866">
        <ele>94.1</ele>
        <time>2022-02-05T10:26:17Z</time>
      </trkpt>
      <trkpt lat="49.12409" lon="1.95863">
        <ele>94.6</ele>
        <time>2022-02-05T10:26:23Z</time>
      </trkpt>
      <trkpt lat="49.12403" lon="1.95862">
        <ele>95</ele>
        <time>2022-02-05T10:26:29Z</time>
      </trkpt>
      <trkpt lat="49.12397" lon="1.95862">
        <ele>95.5</ele>
        <time>2022-02-05T10:26:35Z</time>
      </trkpt>
      <trkpt lat="49.1239" lon="1.95862">
        <ele>95.9</ele>
        <time>2022-02-05T10:26:41Z</time>
      </trkpt>
      <trkpt lat="49.12382" lon="1.95862">
        <ele>96.3</ele>
        <time>2022-02-05T10:26:46Z</time>
      </trkpt>
      <trkpt lat="49.12373" lon="1.95864">
        <ele>96.7</ele>
        <time>2022-02-05T10:26:52Z</time>
      </trkpt>
      <trkpt lat="49.12365" lon="1.95865">
        <ele>97</ele>
        <time>2022-02-05T10:26:57Z</time>
      </trkpt>
      <trkpt lat="49.12357" lon="1.95868">
        <ele>97.2</ele>
        <time>2022-02-05T10:27:03Z</time>
      </trkpt>
      <trkpt lat="49.12348" lon="1.95873">
        <ele>97.2</ele>
        <time>2022-02-05T10:27:09Z</time>
      </trkpt>
      <trkpt lat="49.12341" lon="1.95879">
        <ele>97.2</ele>
        <time>2022-02-05T10:27:14Z</time>
      </trkpt>
      <trkpt lat="49.12334" lon="1.95885">
        <ele>97</ele>
        <time>2022-02-05T10:27:20Z</time>
      </trkpt>
      <trkpt lat="49.12328" lon="1.95889">
        <ele>97</ele>
        <time>2022-02-05T10:27:25Z</time>
      </trkpt>
      <trkpt lat="49.12322" lon="1.95895">
        <ele>97</ele>
        <time>2022-02-05T10:27:31Z</time>
      </trkpt>
      <trkpt lat="49.12315" lon="1.95903">
        <ele>97</ele>
        <time>2022-02-05T10:27:37Z</time>
      </trkpt>
      <trkpt lat="49.12308" lon="1.95911">
        <ele>97</ele>
        <time>2022-02-05T10:27:43Z</time>
      </trkpt>
      <trkpt lat="49.12299" lon="1.95919">
        <ele>97</ele>
        <time>2022-02-05T10:27:49Z</time>
      </trkpt>
      <trkpt lat="49.12293" lon="1.95925">
        <ele>97</ele>
        <time>2022-02-05T10:27:54Z</time>
      </trkpt>
      <trkpt lat="49.12286" lon="1.95931">
        <ele>97</ele>
        <time>2022-02-05T10:28:00Z</time>
      </trkpt>
      <trkpt lat="49.1228" lon="1.95937">
        <ele>97</ele>
        <time>2022-02-05T10:28:06Z</time>
      </trkpt>
      <trkpt lat="49.12273" lon="1.9594">
        <ele>96.8</ele>
        <time>2022-02-05T10:28:11Z</time>
      </trkpt>
      <trkpt lat="49.12266" lon="1.95943">
        <ele>96.6</ele>
        <time>2022-02-05T10:28:17Z</time>
      </trkpt>
      <trkpt lat="49.12259" lon="1.95945">
        <ele>96.3</ele>
        <time>2022-02-05T10:28:23Z</time>
      </trkpt>
      <trkpt lat="49.12254" lon="1.95946">
        <ele>96.1</ele>
        <time>2022-02-05T10:28:28Z</time>
      </trkpt>
      <trkpt lat="49.12248" lon="1.95948">
        <ele>95.9</ele>
        <time>2022-02-05T10:28:34Z</time>
      </trkpt>
      <trkpt lat="49.12243" lon="1.95952">
        <ele>95.5</ele>
        <time>2022-02-05T10:28:39Z</time>
      </trkpt>
      <trkpt lat="49.12236" lon="1.95957">
        <ele>95</ele>
        <time>2022-02-05T10:28:45Z</time>
      </trkpt>
      <trkpt lat="49.12231" lon="1.9596">
        <ele>94.7</ele>
        <time>2022-02-05T10:28:50Z</time>
      </trkpt>
      <trkpt lat="49.12225" lon="1.95965">
        <ele>94.2</ele>
        <time>2022-02-05T10:28:56Z</time>
      </trkpt>
      <trkpt lat="49.12219" lon="1.95972">
        <ele>93.8</ele>
        <time>2022-02-05T10:29:01Z</time>
      </trkpt>
      <trkpt lat="49.12213" lon="1.9598">
        <ele>93.3</ele>
        <time>2022-02-05T10:29:06Z</time>
      </trkpt>
      <trkpt lat="49.12207" lon="1.9599">
        <ele>92.6</ele>
        <time>2022-02-05T10:29:12Z</time>
      </trkpt>
      <trkpt lat="49.12202" lon="1.95998">
        <ele>91.9</ele>
        <time>2022-02-05T10:29:17Z</time>
      </trkpt>
      <trkpt lat="49.12198" lon="1.96008">
        <ele>91.3</ele>
        <time>2022-02-05T10:29:22Z</time>
      </trkpt>
      <trkpt lat="49.12192" lon="1.96021">
        <ele>90.8</ele>
        <time>2022-02-05T10:29:28Z</time>
      </trkpt>
      <trkpt lat="49.12187" lon="1.96034">
        <ele>90.2</ele>
        <time>2022-02-05T10:29:33Z</time>
      </trkpt>
      <trkpt lat="49.12182" lon="1.96047">
        <ele>89.6</ele>
        <time>2022-02-05T10:29:40Z</time>
      </trkpt>
      <trkpt lat="49.12174" lon="1.96064">
        <ele>88.8</ele>
        <time>2022-02-05T10:29:45Z</time>
      </trkpt>
      <trkpt lat="49.12167" lon="1.96076">
        <ele>88.1</ele>
        <time>2022-02-05T10:29:50Z</time>
      </trkpt>
      <trkpt lat="49.12161" lon="1.96086">
        <ele>87.1</ele>
        <time>2022-02-05T10:29:55Z</time>
      </trkpt>
      <trkpt lat="49.12155" lon="1.96097">
        <ele>86</ele>
        <time>2022-02-05T10:30:01Z</time>
      </trkpt>
      <trkpt lat="49.12149" lon="1.96109">
        <ele>85.1</ele>
        <time>2022-02-05T10:30:08Z</time>
      </trkpt>
      <trkpt lat="49.12143" lon="1.96121">
        <ele>84.4</ele>
        <time>2022-02-05T10:30:13Z</time>
      </trkpt>
      <trkpt lat="49.12138" lon="1.96128">
        <ele>83.9</ele>
        <time>2022-02-05T10:30:18Z</time>
      </trkpt>
      <trkpt lat="49.12132" lon="1.96135">
        <ele>83</ele>
        <time>2022-02-05T10:30:24Z</time>
      </trkpt>
      <trkpt lat="49.12129" lon="1.96141">
        <ele>82.5</ele>
        <time>2022-02-05T10:30:29Z</time>
      </trkpt>
      <trkpt lat="49.12125" lon="1.96149">
        <ele>82.1</ele>
        <time>2022-02-05T10:30:34Z</time>
      </trkpt>
      <trkpt lat="49.12121" lon="1.96161">
        <ele>81.5</ele>
        <time>2022-02-05T10:30:40Z</time>
      </trkpt>
      <trkpt lat="49.12117" lon="1.96171">
        <ele>81</ele>
        <time>2022-02-05T10:30:46Z</time>
      </trkpt>
      <trkpt lat="49.12114" lon="1.96179">
        <ele>80.8</ele>
        <time>2022-02-05T10:30:51Z</time>
      </trkpt>
      <trkpt lat="49.1211" lon="1.96189">
        <ele>80.6</ele>
        <time>2022-02-05T10:30:57Z</time>
      </trkpt>
      <trkpt lat="49.12106" lon="1.96199">
        <ele>79.8</ele>
        <time>2022-02-05T10:31:02Z</time>
      </trkpt>
      <trkpt lat="49.12101" lon="1.96208">
        <ele>78.4</ele>
        <time>2022-02-05T10:31:07Z</time>
      </trkpt>
      <trkpt lat="49.12096" lon="1.96221">
        <ele>76.7</ele>
        <time>2022-02-05T10:31:13Z</time>
      </trkpt>
      <trkpt lat="49.12091" lon="1.9623">
        <ele>75.6</ele>
        <time>2022-02-05T10:31:18Z</time>
      </trkpt>
      <trkpt lat="49.12086" lon="1.9624">
        <ele>74.6</ele>
        <time>2022-02-05T10:31:24Z</time>
      </trkpt>
      <trkpt lat="49.12083" lon="1.96248">
        <ele>73.8</ele>
        <time>2022-02-05T10:31:29Z</time>
      </trkpt>
      <trkpt lat="49.12078" lon="1.96258">
        <ele>72</ele>
        <time>2022-02-05T10:31:35Z</time>
      </trkpt>
      <trkpt lat="49.12075" lon="1.96268">
        <ele>70.5</ele>
        <time>2022-02-05T10:31:40Z</time>
      </trkpt>
      <trkpt lat="49.12072" lon="1.96277">
        <ele>69.4</ele>
        <time>2022-02-05T10:31:45Z</time>
      </trkpt>
      <trkpt lat="49.1207" lon="1.96288">
        <ele>68.6</ele>
        <time>2022-02-05T10:31:51Z</time>
      </trkpt>
      <trkpt lat="49.12068" lon="1.96297">
        <ele>68.1</ele>
        <time>2022-02-05T10:31:57Z</time>
      </trkpt>
      <trkpt lat="49.12066" lon="1.9631">
        <ele>67.3</ele>
        <time>2022-02-05T10:32:02Z</time>
      </trkpt>
      <trkpt lat="49.12065" lon="1.96322">
        <ele>66.4</ele>
        <time>2022-02-05T10:32:07Z</time>
      </trkpt>
      <trkpt lat="49.12064" lon="1.96338">
        <ele>65.3</ele>
        <time>2022-02-05T10:32:13Z</time>
      </trkpt>
      <trkpt lat="49.12064" lon="1.96351">
        <ele>64.4</ele>
        <time>2022-02-05T10:32:18Z</time>
      </trkpt>
      <trkpt lat="49.12063" lon="1.96363">
        <ele>63.4</ele>
        <time>2022-02-05T10:32:23Z</time>
      </trkpt>
      <trkpt lat="49.12061" lon="1.96376">
        <ele>62</ele>
        <time>2022-02-05T10:32:29Z</time>
      </trkpt>
      <trkpt lat="49.1206" lon="1.96387">
        <ele>61.2</ele>
        <time>2022-02-05T10:32:35Z</time>
      </trkpt>
      <trkpt lat="49.1206" lon="1.96402">
        <ele>60.8</ele>
        <time>2022-02-05T10:32:41Z</time>
      </trkpt>
      <trkpt lat="49.12063" lon="1.96414">
        <ele>61</ele>
        <time>2022-02-05T10:32:46Z</time>
      </trkpt>
      <trkpt lat="49.12064" lon="1.96427">
        <ele>60.9</ele>
        <time>2022-02-05T10:32:52Z</time>
      </trkpt>
      <trkpt lat="49.12065" lon="1.96437">
        <ele>60.9</ele>
        <time>2022-02-05T10:32:57Z</time>
      </trkpt>
      <trkpt lat="49.12066" lon="1.96448">
        <ele>60.8</ele>
        <time>2022-02-05T10:33:03Z</time>
      </trkpt>
      <trkpt lat="49.12065" lon="1.96457">
        <ele>60.5</ele>
        <time>2022-02-05T10:33:09Z</time>
      </trkpt>
      <trkpt lat="49.12064" lon="1.9647">
        <ele>60.2</ele>
        <time>2022-02-05T10:33:15Z</time>
      </trkpt>
      <trkpt lat="49.12064" lon="1.96482">
        <ele>60.2</ele>
        <time>2022-02-05T10:33:20Z</time>
      </trkpt>
      <trkpt lat="49.12064" lon="1.96491">
        <ele>60</ele>
        <time>2022-02-05T10:33:26Z</time>
      </trkpt>
      <trkpt lat="49.12063" lon="1.96499">
        <ele>59.8</ele>
        <time>2022-02-05T10:33:31Z</time>
      </trkpt>
      <trkpt lat="49.12061" lon="1.96508">
        <ele>59.5</ele>
        <time>2022-02-05T10:33:36Z</time>
      </trkpt>
      <trkpt lat="49.12057" lon="1.96515">
        <ele>59.1</ele>
        <time>2022-02-05T10:33:42Z</time>
      </trkpt>
      <trkpt lat="49.12049" lon="1.96521">
        <ele>58.8</ele>
        <time>2022-02-05T10:33:48Z</time>
      </trkpt>
      <trkpt lat="49.12042" lon="1.96524">
        <ele>58.5</ele>
        <time>2022-02-05T10:33:53Z</time>
      </trkpt>
      <trkpt lat="49.12033" lon="1.96528">
        <ele>58.2</ele>
        <time>2022-02-05T10:33:58Z</time>
      </trkpt>
      <trkpt lat="49.12025" lon="1.96531">
        <ele>58.5</ele>
        <time>2022-02-05T10:34:04Z</time>
      </trkpt>
      <trkpt lat="49.12017" lon="1.96534">
        <ele>59.5</ele>
        <time>2022-02-05T10:34:10Z</time>
      </trkpt>
      <trkpt lat="49.12008" lon="1.96536">
        <ele>60.7</ele>
        <time>2022-02-05T10:34:16Z</time>
      </trkpt>
      <trkpt lat="49.12" lon="1.96535">
        <ele>61.5</ele>
        <time>2022-02-05T10:34:22Z</time>
      </trkpt>
      <trkpt lat="49.11995" lon="1.96534">
        <ele>62.7</ele>
        <time>2022-02-05T10:34:27Z</time>
      </trkpt>
      <trkpt lat="49.11991" lon="1.9653">
        <ele>63.5</ele>
        <time>2022-02-05T10:34:32Z</time>
      </trkpt>
      <trkpt lat="49.11987" lon="1.96524">
        <ele>63.9</ele>
        <time>2022-02-05T10:34:38Z</time>
      </trkpt>
      <trkpt lat="49.11982" lon="1.96517">
        <ele>64.4</ele>
        <time>2022-02-05T10:34:44Z</time>
      </trkpt>
      <trkpt lat="49.11977" lon="1.96511">
        <ele>65</ele>
        <time>2022-02-05T10:34:50Z</time>
      </trkpt>
      <trkpt lat="49.11973" lon="1.96506">
        <ele>65.5</ele>
        <time>2022-02-05T10:34:55Z</time>
      </trkpt>
      <trkpt lat="49.11968" lon="1.96501">
        <ele>66.5</ele>
        <time>2022-02-05T10:35:01Z</time>
      </trkpt>
      <trkpt lat="49.11962" lon="1.96493">
        <ele>68.2</ele>
        <time>2022-02-05T10:35:07Z</time>
      </trkpt>
      <trkpt lat="49.11955" lon="1.96485">
        <ele>70</ele>
        <time>2022-02-05T10:35:13Z</time>
      </trkpt>
      <trkpt lat="49.11949" lon="1.96479">
        <ele>71.2</ele>
        <time>2022-02-05T10:35:19Z</time>
      </trkpt>
      <trkpt lat="49.11945" lon="1.96475">
        <ele>72.2</ele>
        <time>2022-02-05T10:35:25Z</time>
      </trkpt>
      <trkpt lat="49.11941" lon="1.96471">
        <ele>72.9</ele>
        <time>2022-02-05T10:35:30Z</time>
      </trkpt>
      <trkpt lat="49.11937" lon="1.96466">
        <ele>73.5</ele>
        <time>2022-02-05T10:35:36Z</time>
      </trkpt>
      <trkpt lat="49.11933" lon="1.9646">
        <ele>74</ele>
        <time>2022-02-05T10:35:42Z</time>
      </trkpt>
      <trkpt lat="49.11929" lon="1.96454">
        <ele>74.9</ele>
        <time>2022-02-05T10:35:48Z</time>
      </trkpt>
      <trkpt lat="49.11924" lon="1.96448">
        <ele>75.9</ele>
        <time>2022-02-05T10:35:54Z</time>
      </trkpt>
      <trkpt lat="49.11919" lon="1.96444">
        <ele>77</ele>
        <time>2022-02-05T10:35:59Z</time>
      </trkpt>
      <trkpt lat="49.11913" lon="1.96439">
        <ele>78.3</ele>
        <time>2022-02-05T10:36:05Z</time>
      </trkpt>
      <trkpt lat="49.11908" lon="1.96436">
        <ele>79.3</ele>
        <time>2022-02-05T10:36:11Z</time>
      </trkpt>
      <trkpt lat="49.11903" lon="1.96433">
        <ele>80.4</ele>
        <time>2022-02-05T10:36:16Z</time>
      </trkpt>
      <trkpt lat="49.11895" lon="1.96429">
        <ele>82</ele>
        <time>2022-02-05T10:36:22Z</time>
      </trkpt>
      <trkpt lat="49.11887" lon="1.96426">
        <ele>83.5</ele>
        <time>2022-02-05T10:36:28Z</time>
      </trkpt>
      <trkpt lat="49.1188" lon="1.96424">
        <ele>84.2</ele>
        <time>2022-02-05T10:36:33Z</time>
      </trkpt>
      <trkpt lat="49.11873" lon="1.96422">
        <ele>84.8</ele>
        <time>2022-02-05T10:36:39Z</time>
      </trkpt>
      <trkpt lat="49.11868" lon="1.96422">
        <ele>85.3</ele>
        <time>2022-02-05T10:36:44Z</time>
      </trkpt>
      <trkpt lat="49.1186" lon="1.96423">
        <ele>86</ele>
        <time>2022-02-05T10:36:51Z</time>
      </trkpt>
      <trkpt lat="49.11853" lon="1.96425">
        <ele>86.3</ele>
        <time>2022-02-05T10:36:57Z</time>
      </trkpt>
      <trkpt lat="49.11847" lon="1.96427">
        <ele>86.5</ele>
        <time>2022-02-05T10:37:02Z</time>
      </trkpt>
      <trkpt lat="49.1184" lon="1.96429">
        <ele>86.7</ele>
        <time>2022-02-05T10:37:07Z</time>
      </trkpt>
      <trkpt lat="49.11833" lon="1.96432">
        <ele>87</ele>
        <time>2022-02-05T10:37:12Z</time>
      </trkpt>
      <trkpt lat="49.11825" lon="1.96433">
        <ele>87</ele>
        <time>2022-02-05T10:37:17Z</time>
      </trkpt>
      <trkpt lat="49.11818" lon="1.96435">
        <ele>87</ele>
        <time>2022-02-05T10:37:23Z</time>
      </trkpt>
      <trkpt lat="49.11811" lon="1.96435">
        <ele>87</ele>
        <time>2022-02-05T10:37:29Z</time>
      </trkpt>
      <trkpt lat="49.11803" lon="1.96436">
        <ele>86.9</ele>
        <time>2022-02-05T10:37:35Z</time>
      </trkpt>
      <trkpt lat="49.11796" lon="1.96436">
        <ele>86.7</ele>
        <time>2022-02-05T10:37:40Z</time>
      </trkpt>
      <trkpt lat="49.11785" lon="1.96435">
        <ele>86.3</ele>
        <time>2022-02-05T10:37:46Z</time>
      </trkpt>
      <trkpt lat="49.11775" lon="1.96435">
        <ele>85.9</ele>
        <time>2022-02-05T10:37:52Z</time>
      </trkpt>
      <trkpt lat="49.11768" lon="1.96435">
        <ele>85.6</ele>
        <time>2022-02-05T10:37:57Z</time>
      </trkpt>
      <trkpt lat="49.1176" lon="1.96435">
        <ele>85.4</ele>
        <time>2022-02-05T10:38:02Z</time>
      </trkpt>
      <trkpt lat="49.1175" lon="1.96436">
        <ele>85</ele>
        <time>2022-02-05T10:38:08Z</time>
      </trkpt>
      <trkpt lat="49.11743" lon="1.96436">
        <ele>84.3</ele>
        <time>2022-02-05T10:38:13Z</time>
      </trkpt>
      <trkpt lat="49.11733" lon="1.96435">
        <ele>83.3</ele>
        <time>2022-02-05T10:38:19Z</time>
      </trkpt>
      <trkpt lat="49.11725" lon="1.96437">
        <ele>82.5</ele>
        <time>2022-02-05T10:38:25Z</time>
      </trkpt>
      <trkpt lat="49.11718" lon="1.96436">
        <ele>81.8</ele>
        <time>2022-02-05T10:38:30Z</time>
      </trkpt>
      <trkpt lat="49.11711" lon="1.96438">
        <ele>81</ele>
        <time>2022-02-05T10:38:36Z</time>
      </trkpt>
      <trkpt lat="49.11705" lon="1.96441">
        <ele>80.2</ele>
        <time>2022-02-05T10:38:41Z</time>
      </trkpt>
      <trkpt lat="49.11698" lon="1.96443">
        <ele>79.4</ele>
        <time>2022-02-05T10:38:46Z</time>
      </trkpt>
      <trkpt lat="49.11688" lon="1.96444">
        <ele>78</ele>
        <time>2022-02-05T10:38:52Z</time>
      </trkpt>
      <trkpt lat="49.1168" lon="1.96439">
        <ele>77.1</ele>
        <time>2022-02-05T10:38:58Z</time>
      </trkpt>
      <trkpt lat="49.11675" lon="1.96435">
        <ele>76.4</ele>
        <time>2022-02-05T10:39:03Z</time>
      </trkpt>
      <trkpt lat="49.1167" lon="1.96432">
        <ele>75.8</ele>
        <time>2022-02-05T10:39:09Z</time>
      </trkpt>
      <trkpt lat="49.11665" lon="1.96424">
        <ele>75.7</ele>
        <time>2022-02-05T10:39:14Z</time>
      </trkpt>
      <trkpt lat="49.11658" lon="1.9641">
        <ele>75.8</ele>
        <time>2022-02-05T10:39:20Z</time>
      </trkpt>
      <trkpt lat="49.11648" lon="1.96402">
        <ele>75.2</ele>
        <time>2022-02-05T10:39:26Z</time>
      </trkpt>
      <trkpt lat="49.11642" lon="1.96396">
        <ele>74.5</ele>
        <time>2022-02-05T10:39:31Z</time>
      </trkpt>
      <trkpt lat="49.11635" lon="1.96388">
        <ele>73.9</ele>
        <time>2022-02-05T10:39:37Z</time>
      </trkpt>
      <trkpt lat="49.1163" lon="1.96386">
        <ele>73.7</ele>
        <time>2022-02-05T10:39:42Z</time>
      </trkpt>
      <trkpt lat="49.11622" lon="1.96382">
        <ele>73.3</ele>
        <time>2022-02-05T10:39:48Z</time>
      </trkpt>
      <trkpt lat="49.11613" lon="1.96377">
        <ele>72.3</ele>
        <time>2022-02-05T10:39:54Z</time>
      </trkpt>
      <trkpt lat="49.11606" lon="1.96375">
        <ele>72.2</ele>
        <time>2022-02-05T10:39:59Z</time>
      </trkpt>
      <trkpt lat="49.11596" lon="1.96369">
        <ele>71.9</ele>
        <time>2022-02-05T10:40:05Z</time>
      </trkpt>
      <trkpt lat="49.11588" lon="1.96364">
        <ele>71.4</ele>
        <time>2022-02-05T10:40:11Z</time>
      </trkpt>
      <trkpt lat="49.1158" lon="1.96363">
        <ele>71.6</ele>
        <time>2022-02-05T10:40:17Z</time>
      </trkpt>
      <trkpt lat="49.11573" lon="1.96363">
        <ele>72.4</ele>
        <time>2022-02-05T10:40:22Z</time>
      </trkpt>
      <trkpt lat="49.11563" lon="1.96359">
        <ele>72.9</ele>
        <time>2022-02-05T10:40:28Z</time>
      </trkpt>
      <trkpt lat="49.11557" lon="1.96355">
        <ele>72.6</ele>
        <time>2022-02-05T10:40:33Z</time>
      </trkpt>
      <trkpt lat="49.1155" lon="1.96353">
        <ele>72.4</ele>
        <time>2022-02-05T10:40:39Z</time>
      </trkpt>
      <trkpt lat="49.11542" lon="1.96352">
        <ele>72.4</ele>
        <time>2022-02-05T10:40:44Z</time>
      </trkpt>
      <trkpt lat="49.11532" lon="1.96349">
        <ele>72.2</ele>
        <time>2022-02-05T10:40:50Z</time>
      </trkpt>
      <trkpt lat="49.11523" lon="1.9635">
        <ele>72.2</ele>
        <time>2022-02-05T10:40:55Z</time>
      </trkpt>
      <trkpt lat="49.11518" lon="1.96354">
        <ele>72.4</ele>
        <time>2022-02-05T10:41:00Z</time>
      </trkpt>
      <trkpt lat="49.11512" lon="1.9636">
        <ele>72.7</ele>
        <time>2022-02-05T10:41:06Z</time>
      </trkpt>
      <trkpt lat="49.11504" lon="1.96365">
        <ele>72.7</ele>
        <time>2022-02-05T10:41:11Z</time>
      </trkpt>
      <trkpt lat="49.11497" lon="1.96374">
        <ele>73</ele>
        <time>2022-02-05T10:41:17Z</time>
      </trkpt>
      <trkpt lat="49.11491" lon="1.96381">
        <ele>72.6</ele>
        <time>2022-02-05T10:41:22Z</time>
      </trkpt>
      <trkpt lat="49.11483" lon="1.96391">
        <ele>72.1</ele>
        <time>2022-02-05T10:41:28Z</time>
      </trkpt>
      <trkpt lat="49.11476" lon="1.964">
        <ele>71.6</ele>
        <time>2022-02-05T10:41:33Z</time>
      </trkpt>
      <trkpt lat="49.11469" lon="1.96409">
        <ele>71</ele>
        <time>2022-02-05T10:41:39Z</time>
      </trkpt>
      <trkpt lat="49.11465" lon="1.96417">
        <ele>70.8</ele>
        <time>2022-02-05T10:41:44Z</time>
      </trkpt>
      <trkpt lat="49.11461" lon="1.96427">
        <ele>70.8</ele>
        <time>2022-02-05T10:41:50Z</time>
      </trkpt>
      <trkpt lat="49.11456" lon="1.96436">
        <ele>70.5</ele>
        <time>2022-02-05T10:41:55Z</time>
      </trkpt>
      <trkpt lat="49.11451" lon="1.96446">
        <ele>69.8</ele>
        <time>2022-02-05T10:42:01Z</time>
      </trkpt>
      <trkpt lat="49.11446" lon="1.96453">
        <ele>68.9</ele>
        <time>2022-02-05T10:42:06Z</time>
      </trkpt>
      <trkpt lat="49.11441" lon="1.96463">
        <ele>68.8</ele>
        <time>2022-02-05T10:42:12Z</time>
      </trkpt>
      <trkpt lat="49.11435" lon="1.9647">
        <ele>68.3</ele>
        <time>2022-02-05T10:42:17Z</time>
      </trkpt>
      <trkpt lat="49.11428" lon="1.96478">
        <ele>67.4</ele>
        <time>2022-02-05T10:42:23Z</time>
      </trkpt>
      <trkpt lat="49.11422" lon="1.9649">
        <ele>66.8</ele>
        <time>2022-02-05T10:42:28Z</time>
      </trkpt>
      <trkpt lat="49.11415" lon="1.965">
        <ele>65.8</ele>
        <time>2022-02-05T10:42:34Z</time>
      </trkpt>
      <trkpt lat="49.1141" lon="1.96511">
        <ele>66</ele>
        <time>2022-02-05T10:42:40Z</time>
      </trkpt>
      <trkpt lat="49.11408" lon="1.9652">
        <ele>66.2</ele>
        <time>2022-02-05T10:42:45Z</time>
      </trkpt>
      <trkpt lat="49.11404" lon="1.9653">
        <ele>66</ele>
        <time>2022-02-05T10:42:50Z</time>
      </trkpt>
      <trkpt lat="49.114" lon="1.96538">
        <ele>65.5</ele>
        <time>2022-02-05T10:42:55Z</time>
      </trkpt>
      <trkpt lat="49.11396" lon="1.96551">
        <ele>65.1</ele>
        <time>2022-02-05T10:43:01Z</time>
      </trkpt>
      <trkpt lat="49.11393" lon="1.9656">
        <ele>64.9</ele>
        <time>2022-02-05T10:43:06Z</time>
      </trkpt>
      <trkpt lat="49.1139" lon="1.96569">
        <ele>64.2</ele>
        <time>2022-02-05T10:43:11Z</time>
      </trkpt>
      <trkpt lat="49.11385" lon="1.9658">
        <ele>63.5</ele>
        <time>2022-02-05T10:43:17Z</time>
      </trkpt>
      <trkpt lat="49.11383" lon="1.96588">
        <ele>63.2</ele>
        <time>2022-02-05T10:43:22Z</time>
      </trkpt>
      <trkpt lat="49.11377" lon="1.96599">
        <ele>62.3</ele>
        <time>2022-02-05T10:43:28Z</time>
      </trkpt>
      <trkpt lat="49.11374" lon="1.96606">
        <ele>61.9</ele>
        <time>2022-02-05T10:43:33Z</time>
      </trkpt>
      <trkpt lat="49.11371" lon="1.96604">
        <ele>61.4</ele>
        <time>2022-02-05T10:43:38Z</time>
      </trkpt>
      <trkpt lat="49.11367" lon="1.96607">
        <ele>60.8</ele>
        <time>2022-02-05T10:43:43Z</time>
      </trkpt>
      <trkpt lat="49.11361" lon="1.96611">
        <ele>59.9</ele>
        <time>2022-02-05T10:43:49Z</time>
      </trkpt>
      <trkpt lat="49.11354" lon="1.96616">
        <ele>59.4</ele>
        <time>2022-02-05T10:43:54Z</time>
      </trkpt>
      <trkpt lat="49.11346" lon="1.96614">
        <ele>58.5</ele>
        <time>2022-02-05T10:44:00Z</time>
      </trkpt>
      <trkpt lat="49.11343" lon="1.96608">
        <ele>58.1</ele>
        <time>2022-02-05T10:44:05Z</time>
      </trkpt>
      <trkpt lat="49.11342" lon="1.96601">
        <ele>58</ele>
        <time>2022-02-05T10:44:10Z</time>
      </trkpt>
      <trkpt lat="49.11339" lon="1.96592">
        <ele>57.6</ele>
        <time>2022-02-05T10:44:16Z</time>
      </trkpt>
      <trkpt lat="49.11336" lon="1.96585">
        <ele>57.3</ele>
        <time>2022-02-05T10:44:21Z</time>
      </trkpt>
      <trkpt lat="49.11336" lon="1.96575">
        <ele>57</ele>
        <time>2022-02-05T10:44:27Z</time>
      </trkpt>
      <trkpt lat="49.11336" lon="1.96569">
        <ele>56.8</ele>
        <time>2022-02-05T10:44:32Z</time>
      </trkpt>
      <trkpt lat="49.11333" lon="1.96557">
        <ele>56.1</ele>
        <time>2022-02-05T10:44:38Z</time>
      </trkpt>
      <trkpt lat="49.11332" lon="1.96546">
        <ele>55.6</ele>
        <time>2022-02-05T10:44:43Z</time>
      </trkpt>
      <trkpt lat="49.11329" lon="1.96534">
        <ele>54.9</ele>
        <time>2022-02-05T10:44:49Z</time>
      </trkpt>
      <trkpt lat="49.11326" lon="1.96522">
        <ele>54.4</ele>
        <time>2022-02-05T10:44:54Z</time>
      </trkpt>
      <trkpt lat="49.11326" lon="1.96513">
        <ele>54.3</ele>
        <time>2022-02-05T10:45:00Z</time>
      </trkpt>
      <trkpt lat="49.11325" lon="1.96508">
        <ele>54.2</ele>
        <time>2022-02-05T10:45:05Z</time>
      </trkpt>
      <trkpt lat="49.11324" lon="1.96507">
        <ele>54.1</ele>
        <time>2022-02-05T10:45:11Z</time>
      </trkpt>
      <trkpt lat="49.11323" lon="1.96505">
        <ele>54</ele>
        <time>2022-02-05T10:45:16Z</time>
      </trkpt>
      <trkpt lat="49.1132" lon="1.96494">
        <ele>53.5</ele>
        <time>2022-02-05T10:45:22Z</time>
      </trkpt>
      <trkpt lat="49.11319" lon="1.96485">
        <ele>53.2</ele>
        <time>2022-02-05T10:45:27Z</time>
      </trkpt>
      <trkpt lat="49.11318" lon="1.96474">
        <ele>53</ele>
        <time>2022-02-05T10:45:33Z</time>
      </trkpt>
      <trkpt lat="49.11316" lon="1.96459">
        <ele>52.6</ele>
        <time>2022-02-05T10:45:39Z</time>
      </trkpt>
      <trkpt lat="49.11313" lon="1.9645">
        <ele>52.3</ele>
        <time>2022-02-05T10:45:44Z</time>
      </trkpt>
      <trkpt lat="49.11309" lon="1.96439">
        <ele>51.9</ele>
        <time>2022-02-05T10:45:50Z</time>
      </trkpt>
      <trkpt lat="49.11307" lon="1.96429">
        <ele>51.5</ele>
        <time>2022-02-05T10:45:55Z</time>
      </trkpt>
      <trkpt lat="49.11305" lon="1.96418">
        <ele>51.1</ele>
        <time>2022-02-05T10:46:00Z</time>
      </trkpt>
      <trkpt lat="49.11302" lon="1.96407">
        <ele>51</ele>
        <time>2022-02-05T10:46:06Z</time>
      </trkpt>
      <trkpt lat="49.11298" lon="1.96396">
        <ele>51</ele>
        <time>2022-02-05T10:46:11Z</time>
      </trkpt>
      <trkpt lat="49.11295" lon="1.96386">
        <ele>51</ele>
        <time>2022-02-05T10:46:16Z</time>
      </trkpt>
      <trkpt lat="49.11294" lon="1.96374">
        <ele>51</ele>
        <time>2022-02-05T10:46:22Z</time>
      </trkpt>
      <trkpt lat="49.1129" lon="1.96365">
        <ele>51</ele>
        <time>2022-02-05T10:46:27Z</time>
      </trkpt>
      <trkpt lat="49.11283" lon="1.96356">
        <ele>51.1</ele>
        <time>2022-02-05T10:46:33Z</time>
      </trkpt>
      <trkpt lat="49.11277" lon="1.96355">
        <ele>51.3</ele>
        <time>2022-02-05T10:46:38Z</time>
      </trkpt>
      <trkpt lat="49.1127" lon="1.96358">
        <ele>51.4</ele>
        <time>2022-02-05T10:46:43Z</time>
      </trkpt>
      <trkpt lat="49.11262" lon="1.96365">
        <ele>51.6</ele>
        <time>2022-02-05T10:46:49Z</time>
      </trkpt>
      <trkpt lat="49.11255" lon="1.96375">
        <ele>51.8</ele>
        <time>2022-02-05T10:46:55Z</time>
      </trkpt>
      <trkpt lat="49.1125" lon="1.96383">
        <ele>52</ele>
        <time>2022-02-05T10:47:01Z</time>
      </trkpt>
      <trkpt lat="49.11245" lon="1.96389">
        <ele>52.2</ele>
        <time>2022-02-05T10:47:06Z</time>
      </trkpt>
      <trkpt lat="49.11237" lon="1.96394">
        <ele>52.3</ele>
        <time>2022-02-05T10:47:11Z</time>
      </trkpt>
      <trkpt lat="49.11225" lon="1.96397">
        <ele>52.6</ele>
        <time>2022-02-05T10:47:17Z</time>
      </trkpt>
      <trkpt lat="49.11215" lon="1.96397">
        <ele>52.8</ele>
        <time>2022-02-05T10:47:23Z</time>
      </trkpt>
      <trkpt lat="49.11209" lon="1.96395">
        <ele>52.9</ele>
        <time>2022-02-05T10:47:29Z</time>
      </trkpt>
      <trkpt lat="49.11201" lon="1.96395">
        <ele>52.9</ele>
        <time>2022-02-05T10:47:35Z</time>
      </trkpt>
      <trkpt lat="49.11193" lon="1.96391">
        <ele>53</ele>
        <time>2022-02-05T10:47:40Z</time>
      </trkpt>
      <trkpt lat="49.11186" lon="1.96385">
        <ele>53.7</ele>
        <time>2022-02-05T10:47:45Z</time>
      </trkpt>
      <trkpt lat="49.11179" lon="1.96381">
        <ele>54.4</ele>
        <time>2022-02-05T10:47:51Z</time>
      </trkpt>
      <trkpt lat="49.11169" lon="1.96376">
        <ele>55.3</ele>
        <time>2022-02-05T10:47:57Z</time>
      </trkpt>
      <trkpt lat="49.11164" lon="1.96373">
        <ele>55.9</ele>
        <time>2022-02-05T10:48:02Z</time>
      </trkpt>
      <trkpt lat="49.11158" lon="1.96369">
        <ele>56.5</ele>
        <time>2022-02-05T10:48:07Z</time>
      </trkpt>
      <trkpt lat="49.11151" lon="1.96363">
        <ele>57.4</ele>
        <time>2022-02-05T10:48:13Z</time>
      </trkpt>
      <trkpt lat="49.11142" lon="1.9636">
        <ele>58</ele>
        <time>2022-02-05T10:48:18Z</time>
      </trkpt>
      <trkpt lat="49.11133" lon="1.96359">
        <ele>58.3</ele>
        <time>2022-02-05T10:48:24Z</time>
      </trkpt>
      <trkpt lat="49.11126" lon="1.96355">
        <ele>58.7</ele>
        <time>2022-02-05T10:48:30Z</time>
      </trkpt>
      <trkpt lat="49.11119" lon="1.96354">
        <ele>59</ele>
        <time>2022-02-05T10:48:35Z</time>
      </trkpt>
      <trkpt lat="49.1111" lon="1.96355">
        <ele>59</ele>
        <time>2022-02-05T10:48:41Z</time>
      </trkpt>
      <trkpt lat="49.11105" lon="1.96358">
        <ele>58.9</ele>
        <time>2022-02-05T10:48:46Z</time>
      </trkpt>
      <trkpt lat="49.11099" lon="1.96358">
        <ele>59.2</ele>
        <time>2022-02-05T10:48:51Z</time>
      </trkpt>
      <trkpt lat="49.11096" lon="1.96359">
        <ele>59.4</ele>
        <time>2022-02-05T10:48:56Z</time>
      </trkpt>
      <trkpt lat="49.1109" lon="1.96362">
        <ele>59.6</ele>
        <time>2022-02-05T10:49:02Z</time>
      </trkpt>
      <trkpt lat="49.11079" lon="1.96366">
        <ele>60.3</ele>
        <time>2022-02-05T10:49:08Z</time>
      </trkpt>
      <trkpt lat="49.1107" lon="1.96366">
        <ele>60.6</ele>
        <time>2022-02-05T10:49:14Z</time>
      </trkpt>
      <trkpt lat="49.11061" lon="1.96365">
        <ele>60.8</ele>
        <time>2022-02-05T10:49:19Z</time>
      </trkpt>
      <trkpt lat="49.11052" lon="1.96368">
        <ele>61.1</ele>
        <time>2022-02-05T10:49:25Z</time>
      </trkpt>
      <trkpt lat="49.11043" lon="1.96373">
        <ele>61.5</ele>
        <time>2022-02-05T10:49:30Z</time>
      </trkpt>
      <trkpt lat="49.11034" lon="1.96376">
        <ele>61.8</ele>
        <time>2022-02-05T10:49:36Z</time>
      </trkpt>
      <trkpt lat="49.11028" lon="1.96375">
        <ele>62</ele>
        <time>2022-02-05T10:49:41Z</time>
      </trkpt>
      <trkpt lat="49.11019" lon="1.96376">
        <ele>62.1</ele>
        <time>2022-02-05T10:49:47Z</time>
      </trkpt>
      <trkpt lat="49.11012" lon="1.96375">
        <ele>62.3</ele>
        <time>2022-02-05T10:49:52Z</time>
      </trkpt>
      <trkpt lat="49.11004" lon="1.96375">
        <ele>62.4</ele>
        <time>2022-02-05T10:49:57Z</time>
      </trkpt>
      <trkpt lat="49.10996" lon="1.96376">
        <ele>62.5</ele>
        <time>2022-02-05T10:50:02Z</time>
      </trkpt>
      <trkpt lat="49.10987" lon="1.96377">
        <ele>62.4</ele>
        <time>2022-02-05T10:50:08Z</time>
      </trkpt>
      <trkpt lat="49.1098" lon="1.96378">
        <ele>62.4</ele>
        <time>2022-02-05T10:50:14Z</time>
      </trkpt>
      <trkpt lat="49.10979" lon="1.96377">
        <ele>62.4</ele>
        <time>2022-02-05T10:50:20Z</time>
      </trkpt>
      <trkpt lat="49.1098" lon="1.96379">
        <ele>62.4</ele>
        <time>2022-02-05T10:50:27Z</time>
      </trkpt>
      <trkpt lat="49.10979" lon="1.96381">
        <ele>62.3</ele>
        <time>2022-02-05T10:50:32Z</time>
      </trkpt>
      <trkpt lat="49.10979" lon="1.96382">
        <ele>62.3</ele>
        <time>2022-02-05T10:50:38Z</time>
      </trkpt>
      <trkpt lat="49.10979" lon="1.96382">
        <ele>62.3</ele>
        <time>2022-02-05T10:50:43Z</time>
      </trkpt>
      <trkpt lat="49.10976" lon="1.96382">
        <ele>62.2</ele>
        <time>2022-02-05T10:50:49Z</time>
      </trkpt>
      <trkpt lat="49.10973" lon="1.96383">
        <ele>62.2</ele>
        <time>2022-02-05T10:50:55Z</time>
      </trkpt>
      <trkpt lat="49.10973" lon="1.96386">
        <ele>62.1</ele>
        <time>2022-02-05T10:51:01Z</time>
      </trkpt>
      <trkpt lat="49.10973" lon="1.96386">
        <ele>62.1</ele>
        <time>2022-02-05T10:51:07Z</time>
      </trkpt>
      <trkpt lat="49.10973" lon="1.96384">
        <ele>62.2</ele>
        <time>2022-02-05T10:51:12Z</time>
      </trkpt>
      <trkpt lat="49.10972" lon="1.96382">
        <ele>62.2</ele>
        <time>2022-02-05T10:51:18Z</time>
      </trkpt>
      <trkpt lat="49.10971" lon="1.96382">
        <ele>62.3</ele>
        <time>2022-02-05T10:51:24Z</time>
      </trkpt>
      <trkpt lat="49.1097" lon="1.96382">
        <ele>62.3</ele>
        <time>2022-02-05T10:51:30Z</time>
      </trkpt>
      <trkpt lat="49.1097" lon="1.96383">
        <ele>62.2</ele>
        <time>2022-02-05T10:51:35Z</time>
      </trkpt>
      <trkpt lat="49.1097" lon="1.96383">
        <ele>62.2</ele>
        <time>2022-02-05T10:51:40Z</time>
      </trkpt>
      <trkpt lat="49.1097" lon="1.96384">
        <ele>62.2</ele>
        <time>2022-02-05T10:51:47Z</time>
      </trkpt>
      <trkpt lat="49.1097" lon="1.96384">
        <ele>62.2</ele>
        <time>2022-02-05T10:51:52Z</time>
      </trkpt>
      <trkpt lat="49.10969" lon="1.96383">
        <ele>62.2</ele>
        <time>2022-02-05T10:51:57Z</time>
      </trkpt>
      <trkpt lat="49.10969" lon="1.96383">
        <ele>62.3</ele>
        <time>2022-02-05T10:52:03Z</time>
      </trkpt>
      <trkpt lat="49.10969" lon="1.96383">
        <ele>62.2</ele>
        <time>2022-02-05T10:52:09Z</time>
      </trkpt>
      <trkpt lat="49.10969" lon="1.96385">
        <ele>62.2</ele>
        <time>2022-02-05T10:52:15Z</time>
      </trkpt>
      <trkpt lat="49.10969" lon="1.96385">
        <ele>62.2</ele>
        <time>2022-02-05T10:52:20Z</time>
      </trkpt>
      <trkpt lat="49.1097" lon="1.96385">
        <ele>62.2</ele>
        <time>2022-02-05T10:52:26Z</time>
      </trkpt>
      <trkpt lat="49.1097" lon="1.96385">
        <ele>62.2</ele>
        <time>2022-02-05T10:52:32Z</time>
      </trkpt>
      <trkpt lat="49.1097" lon="1.96384">
        <ele>62.2</ele>
        <time>2022-02-05T10:52:38Z</time>
      </trkpt>
      <trkpt lat="49.1097" lon="1.96384">
        <ele>62.2</ele>
        <time>2022-02-05T10:52:44Z</time>
      </trkpt>
      <trkpt lat="49.1097" lon="1.96383">
        <ele>62.2</ele>
        <time>2022-02-05T10:52:49Z</time>
      </trkpt>
      <trkpt lat="49.10968" lon="1.9638">
        <ele>62.4</ele>
        <time>2022-02-05T10:52:55Z</time>
      </trkpt>
      <trkpt lat="49.10967" lon="1.9638">
        <ele>62.4</ele>
        <time>2022-02-05T10:53:00Z</time>
      </trkpt>
      <trkpt lat="49.10966" lon="1.9638">
        <ele>62.4</ele>
        <time>2022-02-05T10:53:06Z</time>
      </trkpt>
      <trkpt lat="49.10967" lon="1.9638">
        <ele>62.4</ele>
        <time>2022-02-05T10:53:11Z</time>
      </trkpt>
      <trkpt lat="49.10967" lon="1.96381">
        <ele>62.3</ele>
        <time>2022-02-05T10:53:16Z</time>
      </trkpt>
      <trkpt lat="49.1096" lon="1.96382">
        <ele>62.4</ele>
        <time>2022-02-05T10:53:22Z</time>
      </trkpt>
      <trkpt lat="49.10952" lon="1.96385">
        <ele>62.2</ele>
        <time>2022-02-05T10:53:28Z</time>
      </trkpt>
      <trkpt lat="49.10945" lon="1.96387">
        <ele>62.2</ele>
        <time>2022-02-05T10:53:33Z</time>
      </trkpt>
      <trkpt lat="49.10937" lon="1.96389">
        <ele>62</ele>
        <time>2022-02-05T10:53:39Z</time>
      </trkpt>
      <trkpt lat="49.10929" lon="1.96391">
        <ele>61.9</ele>
        <time>2022-02-05T10:53:44Z</time>
      </trkpt>
      <trkpt lat="49.10921" lon="1.96392">
        <ele>61.9</ele>
        <time>2022-02-05T10:53:49Z</time>
      </trkpt>
      <trkpt lat="49.10914" lon="1.96396">
        <ele>61.8</ele>
        <time>2022-02-05T10:53:55Z</time>
      </trkpt>
      <trkpt lat="49.10906" lon="1.964">
        <ele>61.6</ele>
        <time>2022-02-05T10:54:00Z</time>
      </trkpt>
      <trkpt lat="49.10896" lon="1.96403">
        <ele>61.5</ele>
        <time>2022-02-05T10:54:06Z</time>
      </trkpt>
      <trkpt lat="49.10889" lon="1.96404">
        <ele>61.5</ele>
        <time>2022-02-05T10:54:11Z</time>
      </trkpt>
      <trkpt lat="49.1088" lon="1.96405">
        <ele>61.1</ele>
        <time>2022-02-05T10:54:17Z</time>
      </trkpt>
      <trkpt lat="49.10873" lon="1.96407">
        <ele>60.8</ele>
        <time>2022-02-05T10:54:23Z</time>
      </trkpt>
      <trkpt lat="49.10865" lon="1.96406">
        <ele>60.5</ele>
        <time>2022-02-05T10:54:28Z</time>
      </trkpt>
      <trkpt lat="49.10856" lon="1.96405">
        <ele>60</ele>
        <time>2022-02-05T10:54:34Z</time>
      </trkpt>
      <trkpt lat="49.10847" lon="1.96405">
        <ele>59.4</ele>
        <time>2022-02-05T10:54:39Z</time>
      </trkpt>
      <trkpt lat="49.1084" lon="1.96405">
        <ele>58.9</ele>
        <time>2022-02-05T10:54:45Z</time>
      </trkpt>
      <trkpt lat="49.10834" lon="1.96406">
        <ele>58.4</ele>
        <time>2022-02-05T10:54:50Z</time>
      </trkpt>
      <trkpt lat="49.10826" lon="1.96405">
        <ele>58.1</ele>
        <time>2022-02-05T10:54:56Z</time>
      </trkpt>
      <trkpt lat="49.10817" lon="1.96404">
        <ele>57.8</ele>
        <time>2022-02-05T10:55:01Z</time>
      </trkpt>
      <trkpt lat="49.10809" lon="1.96404">
        <ele>57.5</ele>
        <time>2022-02-05T10:55:06Z</time>
      </trkpt>
      <trkpt lat="49.108" lon="1.96404">
        <ele>57.3</ele>
        <time>2022-02-05T10:55:12Z</time>
      </trkpt>
      <trkpt lat="49.10794" lon="1.96404">
        <ele>57.2</ele>
        <time>2022-02-05T10:55:17Z</time>
      </trkpt>
      <trkpt lat="49.10786" lon="1.96405">
        <ele>57</ele>
        <time>2022-02-05T10:55:23Z</time>
      </trkpt>
      <trkpt lat="49.10778" lon="1.96406">
        <ele>56.8</ele>
        <time>2022-02-05T10:55:28Z</time>
      </trkpt>
      <trkpt lat="49.1077" lon="1.96407">
        <ele>57</ele>
        <time>2022-02-05T10:55:34Z</time>
      </trkpt>
      <trkpt lat="49.10763" lon="1.96407">
        <ele>57.2</ele>
        <time>2022-02-05T10:55:39Z</time>
      </trkpt>
      <trkpt lat="49.10755" lon="1.9641">
        <ele>57.3</ele>
        <time>2022-02-05T10:55:45Z</time>
      </trkpt>
      <trkpt lat="49.10749" lon="1.96412">
        <ele>57.4</ele>
        <time>2022-02-05T10:55:51Z</time>
      </trkpt>
      <trkpt lat="49.10741" lon="1.96414">
        <ele>57.8</ele>
        <time>2022-02-05T10:55:57Z</time>
      </trkpt>
      <trkpt lat="49.10733" lon="1.96416">
        <ele>58.2</ele>
        <time>2022-02-05T10:56:02Z</time>
      </trkpt>
      <trkpt lat="49.10727" lon="1.9642">
        <ele>58.6</ele>
        <time>2022-02-05T10:56:07Z</time>
      </trkpt>
      <trkpt lat="49.10718" lon="1.96422">
        <ele>59</ele>
        <time>2022-02-05T10:56:13Z</time>
      </trkpt>
      <trkpt lat="49.1071" lon="1.96426">
        <ele>59.1</ele>
        <time>2022-02-05T10:56:18Z</time>
      </trkpt>
      <trkpt lat="49.10701" lon="1.9643">
        <ele>59.3</ele>
        <time>2022-02-05T10:56:24Z</time>
      </trkpt>
      <trkpt lat="49.10694" lon="1.96434">
        <ele>59.4</ele>
        <time>2022-02-05T10:56:29Z</time>
      </trkpt>
      <trkpt lat="49.10686" lon="1.9644">
        <ele>59.2</ele>
        <time>2022-02-05T10:56:35Z</time>
      </trkpt>
      <trkpt lat="49.10677" lon="1.96443">
        <ele>59.1</ele>
        <time>2022-02-05T10:56:41Z</time>
      </trkpt>
      <trkpt lat="49.10669" lon="1.96445">
        <ele>59</ele>
        <time>2022-02-05T10:56:47Z</time>
      </trkpt>
      <trkpt lat="49.10663" lon="1.96447">
        <ele>59</ele>
        <time>2022-02-05T10:56:52Z</time>
      </trkpt>
      <trkpt lat="49.10655" lon="1.96453">
        <ele>59.1</ele>
        <time>2022-02-05T10:56:58Z</time>
      </trkpt>
      <trkpt lat="49.10644" lon="1.96456">
        <ele>59.4</ele>
        <time>2022-02-05T10:57:04Z</time>
      </trkpt>
      <trkpt lat="49.10636" lon="1.96458">
        <ele>59.5</ele>
        <time>2022-02-05T10:57:09Z</time>
      </trkpt>
      <trkpt lat="49.10628" lon="1.96461">
        <ele>59.4</ele>
        <time>2022-02-05T10:57:15Z</time>
      </trkpt>
      <trkpt lat="49.10621" lon="1.96464">
        <ele>59.3</ele>
        <time>2022-02-05T10:57:21Z</time>
      </trkpt>
      <trkpt lat="49.10615" lon="1.96468">
        <ele>59.2</ele>
        <time>2022-02-05T10:57:26Z</time>
      </trkpt>
      <trkpt lat="49.10606" lon="1.96472">
        <ele>59.2</ele>
        <time>2022-02-05T10:57:32Z</time>
      </trkpt>
      <trkpt lat="49.10599" lon="1.96476">
        <ele>59.3</ele>
        <time>2022-02-05T10:57:37Z</time>
      </trkpt>
      <trkpt lat="49.10589" lon="1.96479">
        <ele>59.5</ele>
        <time>2022-02-05T10:57:43Z</time>
      </trkpt>
      <trkpt lat="49.10582" lon="1.96482">
        <ele>59.7</ele>
        <time>2022-02-05T10:57:48Z</time>
      </trkpt>
      <trkpt lat="49.10575" lon="1.96485">
        <ele>59.7</ele>
        <time>2022-02-05T10:57:53Z</time>
      </trkpt>
      <trkpt lat="49.10568" lon="1.9649">
        <ele>59.7</ele>
        <time>2022-02-05T10:57:59Z</time>
      </trkpt>
      <trkpt lat="49.10558" lon="1.96492">
        <ele>59.9</ele>
        <time>2022-02-05T10:58:05Z</time>
      </trkpt>
      <trkpt lat="49.1055" lon="1.96498">
        <ele>60</ele>
        <time>2022-02-05T10:58:11Z</time>
      </trkpt>
      <trkpt lat="49.10543" lon="1.96502">
        <ele>59.9</ele>
        <time>2022-02-05T10:58:17Z</time>
      </trkpt>
      <trkpt lat="49.10535" lon="1.96506">
        <ele>59.8</ele>
        <time>2022-02-05T10:58:22Z</time>
      </trkpt>
      <trkpt lat="49.10527" lon="1.9651">
        <ele>59.7</ele>
        <time>2022-02-05T10:58:28Z</time>
      </trkpt>
      <trkpt lat="49.1052" lon="1.96513">
        <ele>59.9</ele>
        <time>2022-02-05T10:58:33Z</time>
      </trkpt>
      <trkpt lat="49.10514" lon="1.96516">
        <ele>60.1</ele>
        <time>2022-02-05T10:58:38Z</time>
      </trkpt>
      <trkpt lat="49.10507" lon="1.96518">
        <ele>60.4</ele>
        <time>2022-02-05T10:58:43Z</time>
      </trkpt>
      <trkpt lat="49.10498" lon="1.96524">
        <ele>60.3</ele>
        <time>2022-02-05T10:58:49Z</time>
      </trkpt>
      <trkpt lat="49.10487" lon="1.96531">
        <ele>60.4</ele>
        <time>2022-02-05T10:58:55Z</time>
      </trkpt>
      <trkpt lat="49.1048" lon="1.96534">
        <ele>60.5</ele>
        <time>2022-02-05T10:59:00Z</time>
      </trkpt>
      <trkpt lat="49.10473" lon="1.96539">
        <ele>60.6</ele>
        <time>2022-02-05T10:59:06Z</time>
      </trkpt>
      <trkpt lat="49.10468" lon="1.96548">
        <ele>60.3</ele>
        <time>2022-02-05T10:59:12Z</time>
      </trkpt>
      <trkpt lat="49.10464" lon="1.96552">
        <ele>60.1</ele>
        <time>2022-02-05T10:59:17Z</time>
      </trkpt>
      <trkpt lat="49.10455" lon="1.96561">
        <ele>59.6</ele>
        <time>2022-02-05T10:59:23Z</time>
      </trkpt>
      <trkpt lat="49.10446" lon="1.96567">
        <ele>59.2</ele>
        <time>2022-02-05T10:59:29Z</time>
      </trkpt>
      <trkpt lat="49.1044" lon="1.96572">
        <ele>58.9</ele>
        <time>2022-02-05T10:59:35Z</time>
      </trkpt>
      <trkpt lat="49.10435" lon="1.96577">
        <ele>58.7</ele>
        <time>2022-02-05T10:59:40Z</time>
      </trkpt>
      <trkpt lat="49.10428" lon="1.96583">
        <ele>58.6</ele>
        <time>2022-02-05T10:59:46Z</time>
      </trkpt>
      <trkpt lat="49.1042" lon="1.96589">
        <ele>58.4</ele>
        <time>2022-02-05T10:59:51Z</time>
      </trkpt>
      <trkpt lat="49.10411" lon="1.96597">
        <ele>58</ele>
        <time>2022-02-05T10:59:57Z</time>
      </trkpt>
      <trkpt lat="49.10403" lon="1.96601">
        <ele>57.9</ele>
        <time>2022-02-05T11:00:03Z</time>
      </trkpt>
      <trkpt lat="49.10397" lon="1.96604">
        <ele>57.9</ele>
        <time>2022-02-05T11:00:09Z</time>
      </trkpt>
      <trkpt lat="49.1039" lon="1.96604">
        <ele>58</ele>
        <time>2022-02-05T11:00:14Z</time>
      </trkpt>
      <trkpt lat="49.10381" lon="1.96604">
        <ele>58.1</ele>
        <time>2022-02-05T11:00:20Z</time>
      </trkpt>
      <trkpt lat="49.10373" lon="1.96606">
        <ele>58.1</ele>
        <time>2022-02-05T11:00:25Z</time>
      </trkpt>
      <trkpt lat="49.10365" lon="1.9661">
        <ele>58</ele>
        <time>2022-02-05T11:00:31Z</time>
      </trkpt>
      <trkpt lat="49.10358" lon="1.96612">
        <ele>58</ele>
        <time>2022-02-05T11:00:36Z</time>
      </trkpt>
      <trkpt lat="49.10349" lon="1.96612">
        <ele>57.9</ele>
        <time>2022-02-05T11:00:42Z</time>
      </trkpt>
      <trkpt lat="49.10338" lon="1.96614">
        <ele>57.9</ele>
        <time>2022-02-05T11:00:47Z</time>
      </trkpt>
      <trkpt lat="49.10329" lon="1.96615">
        <ele>57.7</ele>
        <time>2022-02-05T11:00:54Z</time>
      </trkpt>
      <trkpt lat="49.1032" lon="1.96616">
        <ele>57.4</ele>
        <time>2022-02-05T11:00:59Z</time>
      </trkpt>
      <trkpt lat="49.10312" lon="1.96616">
        <ele>57.1</ele>
        <time>2022-02-05T11:01:05Z</time>
      </trkpt>
      <trkpt lat="49.10306" lon="1.96616">
        <ele>56.9</ele>
        <time>2022-02-05T11:01:11Z</time>
      </trkpt>
      <trkpt lat="49.103" lon="1.96615">
        <ele>56.9</ele>
        <time>2022-02-05T11:01:16Z</time>
      </trkpt>
      <trkpt lat="49.10292" lon="1.96616">
        <ele>56.8</ele>
        <time>2022-02-05T11:01:21Z</time>
      </trkpt>
      <trkpt lat="49.10282" lon="1.96617">
        <ele>56.8</ele>
        <time>2022-02-05T11:01:27Z</time>
      </trkpt>
      <trkpt lat="49.10277" lon="1.96628">
        <ele>56.5</ele>
        <time>2022-02-05T11:01:32Z</time>
      </trkpt>
      <trkpt lat="49.10276" lon="1.96636">
        <ele>56.2</ele>
        <time>2022-02-05T11:01:38Z</time>
      </trkpt>
      <trkpt lat="49.10276" lon="1.96642">
        <ele>56</ele>
        <time>2022-02-05T11:01:44Z</time>
      </trkpt>
      <trkpt lat="49.10277" lon="1.96644">
        <ele>55.8</ele>
        <time>2022-02-05T11:01:50Z</time>
      </trkpt>
      <trkpt lat="49.10278" lon="1.96643">
        <ele>55.9</ele>
        <time>2022-02-05T11:01:55Z</time>
      </trkpt>
      <trkpt lat="49.10278" lon="1.96642">
        <ele>55.9</ele>
        <time>2022-02-05T11:02:01Z</time>
      </trkpt>
      <trkpt lat="49.10278" lon="1.96642">
        <ele>55.9</ele>
        <time>2022-02-05T11:02:06Z</time>
      </trkpt>
      <trkpt lat="49.10278" lon="1.96641">
        <ele>55.9</ele>
        <time>2022-02-05T11:02:12Z</time>
      </trkpt>
      <trkpt lat="49.10278" lon="1.9664">
        <ele>55.9</ele>
        <time>2022-02-05T11:02:18Z</time>
      </trkpt>
      <trkpt lat="49.10278" lon="1.9664">
        <ele>56</ele>
        <time>2022-02-05T11:02:24Z</time>
      </trkpt>
      <trkpt lat="49.10278" lon="1.96641">
        <ele>55.9</ele>
        <time>2022-02-05T11:02:29Z</time>
      </trkpt>
      <trkpt lat="49.10278" lon="1.96647">
        <ele>55.7</ele>
        <time>2022-02-05T11:02:35Z</time>
      </trkpt>
      <trkpt lat="49.10281" lon="1.96658">
        <ele>55.3</ele>
        <time>2022-02-05T11:02:40Z</time>
      </trkpt>
      <trkpt lat="49.10284" lon="1.9667">
        <ele>54.9</ele>
        <time>2022-02-05T11:02:46Z</time>
      </trkpt>
      <trkpt lat="49.10285" lon="1.96677">
        <ele>54.5</ele>
        <time>2022-02-05T11:02:52Z</time>
      </trkpt>
      <trkpt lat="49.10284" lon="1.96689">
        <ele>54</ele>
        <time>2022-02-05T11:02:57Z</time>
      </trkpt>
      <trkpt lat="49.10281" lon="1.96704">
        <ele>53.2</ele>
        <time>2022-02-05T11:03:02Z</time>
      </trkpt>
      <trkpt lat="49.1028" lon="1.96715">
        <ele>52.4</ele>
        <time>2022-02-05T11:03:07Z</time>
      </trkpt>
      <trkpt lat="49.1028" lon="1.96725">
        <ele>51.7</ele>
        <time>2022-02-05T11:03:13Z</time>
      </trkpt>
      <trkpt lat="49.10279" lon="1.96738">
        <ele>50.9</ele>
        <time>2022-02-05T11:03:19Z</time>
      </trkpt>
      <trkpt lat="49.10283" lon="1.96749">
        <ele>50.1</ele>
        <time>2022-02-05T11:03:24Z</time>
      </trkpt>
      <trkpt lat="49.10284" lon="1.96762">
        <ele>49.6</ele>
        <time>2022-02-05T11:03:30Z</time>
      </trkpt>
      <trkpt lat="49.10288" lon="1.96774">
        <ele>49.1</ele>
        <time>2022-02-05T11:03:35Z</time>
      </trkpt>
      <trkpt lat="49.10292" lon="1.96784">
        <ele>49</ele>
        <time>2022-02-05T11:03:40Z</time>
      </trkpt>
      <trkpt lat="49.10292" lon="1.96796">
        <ele>49</ele>
        <time>2022-02-05T11:03:46Z</time>
      </trkpt>
      <trkpt lat="49.10293" lon="1.9681">
        <ele>48.9</ele>
        <time>2022-02-05T11:03:52Z</time>
      </trkpt>
      <trkpt lat="49.10294" lon="1.9682">
        <ele>48.8</ele>
        <time>2022-02-05T11:03:57Z</time>
      </trkpt>
      <trkpt lat="49.10298" lon="1.96833">
        <ele>48.7</ele>
        <time>2022-02-05T11:04:03Z</time>
      </trkpt>
      <trkpt lat="49.10302" lon="1.96844">
        <ele>48.9</ele>
        <time>2022-02-05T11:04:08Z</time>
      </trkpt>
      <trkpt lat="49.10306" lon="1.96855">
        <ele>49</ele>
        <time>2022-02-05T11:04:14Z</time>
      </trkpt>
      <trkpt lat="49.10309" lon="1.96862">
        <ele>48.9</ele>
        <time>2022-02-05T11:04:19Z</time>
      </trkpt>
      <trkpt lat="49.10309" lon="1.96874">
        <ele>48.5</ele>
        <time>2022-02-05T11:04:25Z</time>
      </trkpt>
      <trkpt lat="49.10311" lon="1.96885">
        <ele>48.1</ele>
        <time>2022-02-05T11:04:31Z</time>
      </trkpt>
      <trkpt lat="49.10312" lon="1.96892">
        <ele>48</ele>
        <time>2022-02-05T11:04:36Z</time>
      </trkpt>
      <trkpt lat="49.10315" lon="1.96903">
        <ele>48</ele>
        <time>2022-02-05T11:04:42Z</time>
      </trkpt>
      <trkpt lat="49.10318" lon="1.96911">
        <ele>48</ele>
        <time>2022-02-05T11:04:47Z</time>
      </trkpt>
      <trkpt lat="49.10321" lon="1.96924">
        <ele>48</ele>
        <time>2022-02-05T11:04:53Z</time>
      </trkpt>
      <trkpt lat="49.10322" lon="1.96935">
        <ele>48</ele>
        <time>2022-02-05T11:04:58Z</time>
      </trkpt>
      <trkpt lat="49.10323" lon="1.96944">
        <ele>48</ele>
        <time>2022-02-05T11:05:03Z</time>
      </trkpt>
      <trkpt lat="49.10324" lon="1.96955">
        <ele>48.4</ele>
        <time>2022-02-05T11:05:09Z</time>
      </trkpt>
      <trkpt lat="49.10324" lon="1.96967">
        <ele>48.8</ele>
        <time>2022-02-05T11:05:14Z</time>
      </trkpt>
      <trkpt lat="49.10325" lon="1.96978">
        <ele>49.2</ele>
        <time>2022-02-05T11:05:19Z</time>
      </trkpt>
      <trkpt lat="49.10324" lon="1.96989">
        <ele>49.4</ele>
        <time>2022-02-05T11:05:25Z</time>
      </trkpt>
      <trkpt lat="49.10322" lon="1.97">
        <ele>49.6</ele>
        <time>2022-02-05T11:05:30Z</time>
      </trkpt>
      <trkpt lat="49.1032" lon="1.97012">
        <ele>49.7</ele>
        <time>2022-02-05T11:05:36Z</time>
      </trkpt>
      <trkpt lat="49.10318" lon="1.97024">
        <ele>49.9</ele>
        <time>2022-02-05T11:05:41Z</time>
      </trkpt>
      <trkpt lat="49.10317" lon="1.97035">
        <ele>50.4</ele>
        <time>2022-02-05T11:05:46Z</time>
      </trkpt>
      <trkpt lat="49.10315" lon="1.97043">
        <ele>50.9</ele>
        <time>2022-02-05T11:05:52Z</time>
      </trkpt>
      <trkpt lat="49.10314" lon="1.97054">
        <ele>51.5</ele>
        <time>2022-02-05T11:05:58Z</time>
      </trkpt>
      <trkpt lat="49.10313" lon="1.97064">
        <ele>52.1</ele>
        <time>2022-02-05T11:06:03Z</time>
      </trkpt>
      <trkpt lat="49.10312" lon="1.97076">
        <ele>52.5</ele>
        <time>2022-02-05T11:06:09Z</time>
      </trkpt>
      <trkpt lat="49.10311" lon="1.97087">
        <ele>52.9</ele>
        <time>2022-02-05T11:06:14Z</time>
      </trkpt>
      <trkpt lat="49.1031" lon="1.97098">
        <ele>53.1</ele>
        <time>2022-02-05T11:06:19Z</time>
      </trkpt>
      <trkpt lat="49.10307" lon="1.97111">
        <ele>53.1</ele>
        <time>2022-02-05T11:06:25Z</time>
      </trkpt>
      <trkpt lat="49.10307" lon="1.97122">
        <ele>53.6</ele>
        <time>2022-02-05T11:06:31Z</time>
      </trkpt>
      <trkpt lat="49.10306" lon="1.97136">
        <ele>53.9</ele>
        <time>2022-02-05T11:06:37Z</time>
      </trkpt>
      <trkpt lat="49.10302" lon="1.97149">
        <ele>53.9</ele>
        <time>2022-02-05T11:06:43Z</time>
      </trkpt>
      <trkpt lat="49.10299" lon="1.97157">
        <ele>54</ele>
        <time>2022-02-05T11:06:48Z</time>
      </trkpt>
      <trkpt lat="49.10295" lon="1.97167">
        <ele>54.2</ele>
        <time>2022-02-05T11:06:54Z</time>
      </trkpt>
      <trkpt lat="49.10291" lon="1.97174">
        <ele>53.8</ele>
        <time>2022-02-05T11:06:59Z</time>
      </trkpt>
      <trkpt lat="49.10284" lon="1.97178">
        <ele>53.4</ele>
        <time>2022-02-05T11:07:05Z</time>
      </trkpt>
      <trkpt lat="49.10277" lon="1.97172">
        <ele>52.9</ele>
        <time>2022-02-05T11:07:11Z</time>
      </trkpt>
      <trkpt lat="49.1027" lon="1.9718">
        <ele>51.8</ele>
        <time>2022-02-05T11:07:17Z</time>
      </trkpt>
      <trkpt lat="49.10265" lon="1.97179">
        <ele>51</ele>
        <time>2022-02-05T11:07:23Z</time>
      </trkpt>
      <trkpt lat="49.10258" lon="1.97172">
        <ele>50</ele>
        <time>2022-02-05T11:07:29Z</time>
      </trkpt>
      <trkpt lat="49.10251" lon="1.97166">
        <ele>49.2</ele>
        <time>2022-02-05T11:07:34Z</time>
      </trkpt>
      <trkpt lat="49.10245" lon="1.97159">
        <ele>48.6</ele>
        <time>2022-02-05T11:07:40Z</time>
      </trkpt>
      <trkpt lat="49.10237" lon="1.97155">
        <ele>48.1</ele>
        <time>2022-02-05T11:07:46Z</time>
      </trkpt>
      <trkpt lat="49.10229" lon="1.97149">
        <ele>47.5</ele>
        <time>2022-02-05T11:07:51Z</time>
      </trkpt>
      <trkpt lat="49.10222" lon="1.97141">
        <ele>47</ele>
        <time>2022-02-05T11:07:57Z</time>
      </trkpt>
      <trkpt lat="49.10217" lon="1.97135">
        <ele>47</ele>
        <time>2022-02-05T11:08:02Z</time>
      </trkpt>
      <trkpt lat="49.1021" lon="1.97129">
        <ele>47</ele>
        <time>2022-02-05T11:08:08Z</time>
      </trkpt>
      <trkpt lat="49.10204" lon="1.97123">
        <ele>47</ele>
        <time>2022-02-05T11:08:13Z</time>
      </trkpt>
      <trkpt lat="49.10198" lon="1.97119">
        <ele>47</ele>
        <time>2022-02-05T11:08:19Z</time>
      </trkpt>
      <trkpt lat="49.10192" lon="1.97114">
        <ele>47</ele>
        <time>2022-02-05T11:08:24Z</time>
      </trkpt>
      <trkpt lat="49.10183" lon="1.97109">
        <ele>47</ele>
        <time>2022-02-05T11:08:30Z</time>
      </trkpt>
      <trkpt lat="49.10178" lon="1.97104">
        <ele>47.1</ele>
        <time>2022-02-05T11:08:35Z</time>
      </trkpt>
      <trkpt lat="49.1017" lon="1.97099">
        <ele>47.4</ele>
        <time>2022-02-05T11:08:41Z</time>
      </trkpt>
      <trkpt lat="49.10164" lon="1.97093">
        <ele>47.7</ele>
        <time>2022-02-05T11:08:47Z</time>
      </trkpt>
      <trkpt lat="49.10157" lon="1.97086">
        <ele>47.9</ele>
        <time>2022-02-05T11:08:53Z</time>
      </trkpt>
      <trkpt lat="49.10148" lon="1.97078">
        <ele>48.1</ele>
        <time>2022-02-05T11:08:58Z</time>
      </trkpt>
      <trkpt lat="49.10139" lon="1.97071">
        <ele>48.4</ele>
        <time>2022-02-05T11:09:04Z</time>
      </trkpt>
      <trkpt lat="49.10134" lon="1.97062">
        <ele>48.6</ele>
        <time>2022-02-05T11:09:09Z</time>
      </trkpt>
      <trkpt lat="49.10127" lon="1.97056">
        <ele>48.6</ele>
        <time>2022-02-05T11:09:14Z</time>
      </trkpt>
      <trkpt lat="49.10121" lon="1.97056">
        <ele>48.3</ele>
        <time>2022-02-05T11:09:19Z</time>
      </trkpt>
      <trkpt lat="49.10115" lon="1.97057">
        <ele>48.1</ele>
        <time>2022-02-05T11:09:25Z</time>
      </trkpt>
      <trkpt lat="49.1011" lon="1.97053">
        <ele>48.1</ele>
        <time>2022-02-05T11:09:30Z</time>
      </trkpt>
      <trkpt lat="49.10103" lon="1.97045">
        <ele>48.5</ele>
        <time>2022-02-05T11:09:36Z</time>
      </trkpt>
      <trkpt lat="49.10096" lon="1.97037">
        <ele>49</ele>
        <time>2022-02-05T11:09:41Z</time>
      </trkpt>
      <trkpt lat="49.10087" lon="1.97034">
        <ele>49.5</ele>
        <time>2022-02-05T11:09:47Z</time>
      </trkpt>
      <trkpt lat="49.1008" lon="1.97037">
        <ele>49.4</ele>
        <time>2022-02-05T11:09:52Z</time>
      </trkpt>
      <trkpt lat="49.10071" lon="1.97039">
        <ele>49.6</ele>
        <time>2022-02-05T11:09:58Z</time>
      </trkpt>
      <trkpt lat="49.10062" lon="1.97043">
        <ele>49.8</ele>
        <time>2022-02-05T11:10:04Z</time>
      </trkpt>
      <trkpt lat="49.10055" lon="1.97046">
        <ele>50</ele>
        <time>2022-02-05T11:10:10Z</time>
      </trkpt>
      <trkpt lat="49.10047" lon="1.97051">
        <ele>50</ele>
        <time>2022-02-05T11:10:16Z</time>
      </trkpt>
      <trkpt lat="49.10038" lon="1.97056">
        <ele>50</ele>
        <time>2022-02-05T11:10:22Z</time>
      </trkpt>
      <trkpt lat="49.1003" lon="1.97057">
        <ele>50</ele>
        <time>2022-02-05T11:10:28Z</time>
      </trkpt>
      <trkpt lat="49.10023" lon="1.97062">
        <ele>50</ele>
        <time>2022-02-05T11:10:34Z</time>
      </trkpt>
      <trkpt lat="49.10016" lon="1.97066">
        <ele>50.1</ele>
        <time>2022-02-05T11:10:39Z</time>
      </trkpt>
      <trkpt lat="49.10008" lon="1.9707">
        <ele>50.4</ele>
        <time>2022-02-05T11:10:45Z</time>
      </trkpt>
      <trkpt lat="49.10001" lon="1.97074">
        <ele>50.6</ele>
        <time>2022-02-05T11:10:50Z</time>
      </trkpt>
      <trkpt lat="49.09995" lon="1.97077">
        <ele>50.6</ele>
        <time>2022-02-05T11:10:55Z</time>
      </trkpt>
      <trkpt lat="49.09986" lon="1.97081">
        <ele>50.5</ele>
        <time>2022-02-05T11:11:01Z</time>
      </trkpt>
      <trkpt lat="49.09981" lon="1.97087">
        <ele>50.3</ele>
        <time>2022-02-05T11:11:06Z</time>
      </trkpt>
      <trkpt lat="49.09972" lon="1.97089">
        <ele>50</ele>
        <time>2022-02-05T11:11:14Z</time>
      </trkpt>
      <trkpt lat="49.09969" lon="1.9709">
        <ele>50</ele>
        <time>2022-02-05T11:11:19Z</time>
      </trkpt>
      <trkpt lat="49.09969" lon="1.9709">
        <ele>50</ele>
        <time>2022-02-05T11:11:25Z</time>
      </trkpt>
    </trkseg>
  </trk>
</gpx>